GFSSGP_500_rhum_000.txt.gz
RH
33 45 50 70 81 95 99 97 91 93 90 88 82 76 84 85 96 90 90 92 86 87 78 69 72 62 60 51 54 42 34 34 35 36 23 22 24 25 30 29 23 17 16 15 16 8 21 16 42
15 26 16 51 88 96 96 97 97 91 91 91 84 80 86 90 91 98 99 97 86 72 57 44 42 44 41 35 36 32 31 34 36 29 24 21 20 20 26 29 27 22 20 22 17 12 26 38 40
11 8 4 28 46 89 90 87 77 82 86 89 89 90 78 99 96 98 86 83 71 59 49 40 40 34 31 32 29 32 35 40 33 29 28 25 24 26 31 34 33 30 26 20 18 19 26 46 59
23 9 6 9 12 24 48 60 61 65 80 89 90 72 70 70 77 78 73 71 62 42 40 40 42 39 34 29 23 31 27 30 32 22 23 26 27 36 37 36 33 36 36 30 24 25 26 28 50
38 22 32 11 8 14 18 29 42 49 60 88 81 65 63 56 59 62 56 45 28 16 22 35 41 35 31 27 20 21 22 24 29 33 28 24 31 45 46 49 50 48 50 44 39 33 34 38 39
54 42 100 64 6 6 7 8 13 32 48 55 74 59 55 50 42 36 31 27 30 30 32 26 37 34 22 20 22 21 26 33 36 35 51 57 47 48 51 54 56 53 53 52 57 47 42 33 31
55 86 97 92 10 6 5 5 5 12 44 51 49 47 52 53 42 32 30 33 34 26 24 25 24 23 26 24 25 30 36 39 46 64 50 45 50 57 54 61 48 50 61 76 83 72 62 40 41
83 82 73 89 90 8 5 5 7 6 9 23 34 44 49 54 47 39 33 35 33 25 16 25 37 26 28 24 30 38 45 43 46 53 44 39 45 54 54 59 49 50 72 76 72 62 63 71 75
58 96 97 89 93 10 4 3 3 7 8 8 9 10 23 39 46 44 41 33 24 16 13 11 16 28 35 22 25 25 32 20 28 26 22 25 28 38 42 38 30 30 35 45 48 56 52 46 38
44 100 100 55 66 12 6 3 2 4 6 8 10 12 11 15 36 40 35 25 17 19 17 6 21 35 24 23 30 28 20 10 9 10 20 29 35 26 19 13 9 8 7 12 17 13 12 9 15
42 98 64 43 26 20 4 4 2 2 4 6 7 11 14 14 17 26 21 16 13 11 13 24 22 20 8 28 28 18 12 9 13 34 36 30 20 15 5 2 2 3 4 2 2 2 1 2 6
49 38 37 36 24 13 3 1 3 2 4 5 7 6 12 15 18 19 15 12 12 18 18 12 10 18 21 29 26 8 11 20 27 37 21 32 28 10 8 8 1 3 3 3 3 3 3 4 5
52 40 41 31 17 8 4 2 3 4 3 4 5 4 9 15 16 14 13 13 17 18 10 6 10 15 14 24 21 8 20 19 21 35 26 25 22 48 18 34 20 7 7 7 6 4 3 3 3
62 34 38 19 7 6 5 5 5 5 4 4 3 2 8 14 17 17 18 18 15 14 9 1 4 24 31 19 28 11 13 17 10 21 7 11 12 55 31 29 13 6 7 8 8 8 7 6 5
69 25 29 12 5 6 5 4 5 5 5 4 3 6 4 7 7 8 6 6 6 6 8 1 9 18 25 4 17 4 3 9 13 16 8 11 31 33 27 32 21 19 12 8 9 10 10 10 9
60 43 54 9 7 5 9 34 7 9 6 4 4 4 8 4 5 4 4 3 1 1 3 4 5 6 2 17 11 4 9 9 17 14 32 28 23 11 24 29 30 22 14 12 12 13 12 12 12
53 75 80 22 8 9 14 60 47 46 39 9 4 4 4 6 5 5 3 0 1 2 2 2 8 9 1 2 18 2 4 24 37 28 29 17 18 24 27 18 16 22 22 28 13 13 11 9 10
78 63 86 70 16 21 20 49 50 41 46 34 5 3 4 5 4 4 4 3 3 4 6 3 1 0 6 13 36 32 24 22 8 6 25 17 34 19 29 20 17 17 20 9 8 8 8 8 10
81 87 86 82 76 70 69 62 54 45 36 25 8 4 5 6 5 4 4 4 3 3 3 3 3 2 14 29 7 5 14 4 12 2 26 20 12 8 13 12 7 8 7 7 7 7 8 9 10
66 81 82 83 84 82 87 72 66 59 50 33 34 37 10 10 9 8 6 4 3 3 3 3 4 4 5 9 6 12 16 5 5 5 15 13 12 11 11 9 8 7 7 7 7 7 8 10 10
38 70 85 94 79 86 90 78 64 66 68 55 64 64 61 33 17 16 16 11 4 2 2 3 4 4 10 13 20 17 15 14 8 10 14 11 10 12 12 7 7 8 7 7 6 7 8 9 10
29 34 88 90 94 84 71 92 83 80 52 48 58 67 75 78 74 56 48 28 22 4 3 3 5 6 7 14 10 10 7 6 7 8 8 8 9 9 10 9 8 7 7 8 6 7 7 8 10
16 59 51 84 94 98 100 92 90 67 64 58 64 61 62 64 65 68 59 45 30 12 6 3 4 6 7 9 8 6 6 7 8 8 8 9 10 14 12 10 9 7 8 7 8 8 7 8 10
23 64 68 72 86 87 91 95 74 83 47 65 75 68 67 64 62 67 64 50 54 47 29 12 5 4 6 7 7 7 7 7 8 13 14 12 15 15 13 10 6 3 3 6 9 10 8 9 10
27 46 52 74 79 81 90 91 44 81 68 50 69 67 72 82 72 66 70 48 35 31 46 44 25 5 7 8 10 12 14 12 19 14 14 17 20 22 21 21 23 25 7 6 12 11 11 11 12
19 24 64 70 67 72 87 77 35 18 52 49 56 65 72 78 53 56 54 61 38 42 27 38 44 21 11 11 13 21 24 22 18 15 15 16 19 20 24 31 37 50 32 5 12 14 13 12 14
26 34 51 69 69 61 58 54 12 32 48 51 55 66 71 72 59 66 65 46 45 27 22 24 28 38 30 29 26 27 22 15 15 18 22 42 56 33 30 39 37 68 63 35 2 6 12 13 15
37 31 56 67 70 70 67 69 69 33 45 57 57 58 60 61 60 59 59 57 53 28 22 16 13 18 30 30 26 18 16 26 34 40 41 39 89 77 81 50 95 77 72 67 56 37 11 6 11
13 60 50 71 72 66 71 66 68 25 43 63 70 59 62 64 64 62 61 65 65 43 36 37 11 16 26 25 25 37 42 41 44 36 79 86 86 77 60 76 60 94 91 80 68 57 52 32 17
31 37 65 64 55 72 66 56 61 65 23 40 60 67 65 53 54 63 56 61 62 50 33 20 8 13 23 31 42 50 42 38 39 43 98 92 70 83 95 95 93 72 82 75 82 90 81 79 66

GFSSGP_500_rhum_003.txt.gz
RH
42 62 72 92 97 97 87 93 91 89 94 86 82 93 98 99 97 93 88 87 85 89 92 92 77 71 59 42 35 34 36 36 34 30 25 23 25 28 27 24 19 17 17 19 11 15 2 23 46
37 25 55 78 96 98 97 90 90 94 88 84 85 89 84 96 91 83 89 80 75 68 48 46 49 41 38 29 31 33 34 36 34 23 21 22 24 29 29 26 22 20 25 20 14 17 17 18 44
18 27 72 86 89 98 98 96 94 91 87 86 85 87 86 92 94 96 83 76 74 49 32 32 34 36 28 28 30 32 37 34 29 25 24 21 21 26 30 34 30 25 22 20 20 20 29 41 48
8 10 35 100 85 92 89 84 76 73 72 80 84 79 92 85 93 77 70 70 56 44 36 34 32 30 24 17 26 27 27 27 27 22 20 19 25 33 33 31 28 30 31 28 26 29 23 44 56
29 49 93 65 17 45 46 38 48 65 69 76 73 66 69 70 72 69 65 62 34 21 31 33 30 26 21 11 14 15 18 21 21 22 20 18 31 37 38 45 48 46 46 49 47 37 42 35 51
73 90 92 86 11 9 9 12 31 44 59 77 66 57 53 52 58 57 50 31 29 30 20 28 32 24 19 13 12 15 20 29 32 44 51 40 34 44 48 57 58 55 65 67 54 46 41 33 38
93 84 96 86 12 7 6 7 53 30 47 56 59 51 45 44 35 31 23 31 34 24 21 21 22 22 17 16 23 31 37 44 53 41 39 45 50 50 54 52 41 53 72 82 81 68 64 43 41
96 92 94 92 96 5 8 9 8 18 35 46 48 40 40 45 41 34 33 30 29 18 18 22 23 18 13 25 34 42 41 39 36 33 38 44 49 52 55 63 42 54 66 61 58 59 60 68 70
63 87 94 97 91 52 7 8 8 6 12 18 15 32 34 43 45 38 34 30 15 15 9 17 31 45 22 18 21 25 15 21 15 14 24 33 39 41 36 32 28 25 29 28 27 20 26 32 33
78 94 97 88 97 81 3 4 5 7 7 7 8 15 22 33 30 31 28 17 17 17 16 0 22 20 6 23 23 19 8 6 9 23 22 17 12 10 6 6 5 3 3 1 2 1 1 4 6
86 97 95 88 91 98 3 12 3 5 4 5 6 10 19 12 10 14 19 13 8 13 13 20 23 20 16 24 24 13 8 14 34 25 13 5 4 1 3 3 4 4 5 12 4 3 4 4 5
72 96 97 97 32 100 71 54 2 1 10 4 5 8 10 13 13 15 12 9 9 13 17 8 2 9 17 16 16 10 18 28 33 11 20 12 2 1 17 9 7 7 6 6 4 4 4 4 4
62 95 92 78 37 93 94 46 2 2 3 3 2 7 11 11 11 10 8 6 12 16 7 8 14 14 15 27 5 14 19 21 28 27 7 15 44 14 21 12 5 7 9 9 10 9 8 5 5
90 90 88 86 83 12 82 31 2 3 3 4 2 6 9 13 12 10 9 13 14 9 3 4 15 25 18 35 11 9 12 7 12 9 5 3 18 28 25 34 15 10 8 9 9 12 10 9 9
84 80 66 24 59 5 12 10 4 4 3 3 4 4 6 13 12 12 10 9 8 6 3 1 14 30 8 11 8 1 3 12 9 17 5 1 35 9 5 37 33 20 10 8 12 16 11 11 10
73 67 80 85 46 33 4 32 5 5 4 3 3 6 4 4 4 3 4 3 4 6 4 1 6 1 7 15 11 2 8 9 10 4 16 25 10 5 20 15 12 20 18 34 13 10 10 11 12
80 75 79 98 40 61 4 93 39 14 8 4 3 3 4 4 4 2 2 1 0 1 1 2 4 15 0 5 12 5 0 26 43 32 23 8 17 14 17 19 19 18 18 17 7 7 8 7 9
82 78 79 91 75 75 4 89 71 27 18 4 3 3 3 4 4 4 1 0 0 2 3 2 2 1 0 7 42 28 25 20 9 4 21 16 21 20 27 23 14 14 10 7 7 7 7 7 7
74 77 70 82 94 26 78 82 53 40 21 6 3 2 2 3 4 3 3 2 2 3 5 5 4 2 0 11 27 3 9 10 3 4 5 16 10 7 23 17 9 19 8 7 7 6 6 6 7
75 74 80 86 84 90 81 94 95 74 34 14 2 4 5 4 3 3 3 3 3 3 3 3 4 4 1 9 5 2 6 8 2 2 4 16 14 14 14 20 20 10 8 8 7 6 6 6 8
71 73 74 75 76 97 88 98 91 92 55 37 22 11 7 9 12 11 7 2 2 2 2 2 3 4 4 7 24 24 24 13 15 7 6 8 7 8 9 16 16 11 8 8 7 7 6 7 8
58 74 79 75 93 98 85 85 98 71 86 31 39 38 32 26 34 29 27 20 13 6 1 1 2 3 4 12 10 14 24 8 6 6 7 8 20 9 11 12 13 13 11 9 8 8 7 8 7
33 66 77 81 80 86 91 79 95 98 86 74 40 41 33 29 39 56 58 51 39 24 7 0 1 3 5 6 18 16 12 12 7 6 7 8 11 13 14 17 16 14 11 7 7 7 7 8 7
27 65 73 69 75 77 85 92 77 90 96 90 80 47 40 40 46 50 59 64 57 49 27 7 0 0 2 4 11 10 24 18 9 6 7 16 14 13 16 18 21 23 22 19 11 4 7 8 9
28 60 68 68 67 64 74 88 86 90 79 92 83 99 78 50 52 56 59 58 61 38 35 38 36 16 2 1 3 7 12 15 13 14 17 18 15 14 13 14 19 25 28 30 39 22 6 10 10
7 29 57 68 64 63 68 70 69 85 85 82 93 82 94 65 48 59 59 61 58 35 29 23 25 41 41 13 6 12 13 17 24 21 19 15 12 11 27 39 42 33 33 33 39 49 12 5 7
13 22 46 59 62 58 58 63 76 92 93 82 78 78 81 76 54 72 57 58 49 37 19 17 18 22 40 32 16 16 21 28 22 16 18 16 24 42 40 60 66 66 74 60 60 61 56 41 12
6 25 45 57 57 58 55 57 62 72 63 73 78 77 84 88 58 69 57 60 53 54 36 23 18 16 17 36 38 35 30 22 16 28 26 32 56 61 74 73 91 90 76 71 50 67 74 69 63
3 8 51 57 58 54 57 57 56 70 91 72 77 71 78 89 58 58 59 60 62 68 48 31 29 20 9 15 29 28 24 23 38 34 39 36 68 67 74 72 68 56 64 75 73 72 63 62 78
30 17 33 57 60 56 54 54 66 65 68 74 75 77 87 88 56 60 64 62 52 53 53 56 30 12 9 16 25 26 26 44 39 43 40 43 57 76 89 73 42 36 55 68 76 91 76 75 85

GFSSGP_500_rhum_006.txt.gz
RH
70 78 94 96 98 94 95 96 92 82 91 81 80 96 93 94 98 91 88 84 79 84 87 66 62 50 48 34 26 26 29 31 29 26 23 22 28 28 27 22 16 17 19 18 11 10 4 28 48
46 78 95 98 87 97 93 91 100 88 85 79 84 86 94 96 92 81 83 71 62 50 44 46 40 32 26 26 25 30 30 32 24 20 21 25 27 29 28 26 23 25 22 19 11 16 7 19 49
44 84 86 97 80 97 96 97 84 90 95 90 78 96 86 90 84 81 70 67 47 32 33 35 34 30 27 26 23 25 25 27 23 22 22 22 23 27 31 29 27 24 22 20 21 19 22 22 51
17 47 69 89 89 97 94 89 85 75 72 70 69 72 96 93 87 69 66 58 43 33 30 31 29 25 14 17 16 20 26 23 23 21 20 22 26 32 31 26 27 35 36 40 32 25 20 38 53
51 66 92 88 92 89 66 59 79 69 56 62 63 65 70 78 73 68 73 35 25 28 30 32 30 25 17 12 12 19 23 20 21 22 20 21 32 36 39 46 46 48 56 51 41 34 34 29 44
96 96 83 97 44 40 56 22 52 99 37 51 54 56 60 55 65 61 42 27 34 26 26 27 28 25 16 14 15 21 26 33 39 46 41 31 28 35 46 51 52 58 73 76 59 41 38 27 30
75 69 88 88 62 11 10 47 96 29 29 47 61 57 48 41 50 44 30 34 28 26 23 25 20 17 16 21 29 33 37 44 38 34 39 42 38 45 41 31 43 62 72 70 61 65 65 42 40
64 76 97 97 96 59 6 40 93 20 90 37 42 45 40 34 31 23 31 30 33 20 19 22 17 18 18 28 31 30 30 28 34 38 42 41 43 43 55 40 40 47 49 44 49 48 49 56 61
98 100 97 98 98 68 13 6 7 6 13 28 86 37 41 36 38 37 35 29 16 12 11 28 25 22 23 17 20 14 18 18 19 27 32 33 70 19 26 26 20 19 13 6 4 4 8 13 20
96 87 95 95 73 92 27 7 5 5 6 10 7 20 21 42 39 35 29 17 13 11 6 20 41 7 17 19 16 7 7 18 20 13 10 5 31 8 5 7 9 5 8 3 3 5 8 6 7
92 98 84 83 64 93 92 12 4 4 4 5 4 7 8 14 23 18 10 12 16 14 2 14 13 12 20 22 11 7 20 26 14 7 2 2 5 46 75 60 70 55 48 87 10 6 5 5 5
99 81 77 97 87 78 86 44 7 5 26 4 3 5 8 12 10 7 8 10 9 13 15 19 10 17 18 11 12 18 31 24 14 17 9 15 23 36 94 43 35 16 20 20 16 7 4 4 5
91 94 87 100 68 64 98 51 22 7 3 3 2 2 8 10 10 9 9 7 11 16 7 3 12 19 24 8 15 22 23 28 28 8 15 44 16 22 35 14 11 8 8 8 9 10 9 9 8
84 86 92 90 87 46 95 85 17 2 3 3 1 2 6 9 10 9 7 8 12 4 4 12 18 17 25 17 10 12 10 9 13 5 5 5 31 14 25 34 23 14 5 8 12 12 14 13 12
86 87 85 73 69 91 59 96 11 5 3 3 2 3 4 10 10 8 6 11 6 3 1 14 25 19 8 18 4 2 7 10 7 15 4 5 25 8 18 32 16 19 12 32 15 16 8 11 12
69 79 81 84 83 49 14 96 7 4 4 3 5 4 3 8 9 10 8 7 4 4 1 10 11 10 11 15 7 3 6 12 6 3 10 22 10 7 21 16 25 31 19 23 10 11 8 9 8
50 76 77 82 96 95 15 93 96 37 5 4 2 3 3 3 3 4 3 2 3 4 2 1 6 9 1 8 13 8 0 30 49 32 19 14 25 30 19 19 31 23 13 8 13 6 6 6 7
49 76 73 74 65 81 77 18 29 41 54 18 3 2 2 2 1 2 1 1 1 1 1 1 1 3 4 2 33 40 36 34 17 7 22 21 28 19 45 28 23 9 14 21 10 6 5 6 7
59 77 69 83 91 98 98 76 14 62 35 25 3 2 2 2 2 1 0 0 1 3 4 4 3 3 0 0 16 22 9 13 6 4 0 18 15 16 30 21 36 19 14 9 8 6 5 5 6
34 77 74 83 89 98 97 83 41 67 65 38 10 2 2 2 2 3 3 3 3 3 4 4 4 4 4 1 6 7 2 6 5 2 3 11 26 16 14 17 21 18 24 22 7 6 5 5 5
25 71 74 77 92 89 90 90 98 97 59 49 24 2 3 3 3 3 2 2 2 3 3 3 3 3 4 4 6 31 44 23 16 11 7 5 6 6 18 12 12 12 14 12 11 9 6 6 6
22 37 70 74 86 79 78 75 87 92 64 34 26 12 3 3 4 6 6 5 4 2 1 1 1 2 3 3 10 8 5 17 10 8 6 7 9 13 13 10 10 13 15 16 15 10 7 6 6
19 51 59 72 86 88 93 82 95 92 96 85 41 26 22 9 7 8 10 11 9 17 11 6 0 1 2 3 4 19 24 18 12 9 11 6 12 16 14 11 12 14 19 22 25 26 23 11 5
19 64 62 64 74 87 90 90 63 98 61 90 97 88 40 30 26 27 26 27 38 35 42 30 16 2 0 2 7 9 26 16 21 19 15 14 15 17 10 16 41 42 41 32 32 41 33 43 21
15 54 60 57 62 64 74 89 51 94 96 75 93 95 83 43 64 54 48 46 56 58 53 44 45 32 4 0 1 3 5 7 14 23 18 18 17 12 17 46 60 59 54 56 52 57 43 46 53
11 40 35 55 58 59 55 64 72 89 91 81 86 94 98 65 60 50 65 50 58 63 62 45 29 22 33 26 25 11 2 8 9 14 21 17 25 43 44 58 57 63 55 59 64 61 59 38 53
7 25 15 53 55 59 56 58 59 63 85 72 77 96 97 95 85 50 60 51 61 54 57 32 22 18 18 29 41 37 11 9 14 25 16 24 42 52 49 45 49 53 50 35 57 78 78 69 55
3 12 23 41 53 51 51 53 67 60 62 76 78 81 96 80 59 78 60 52 63 53 54 39 36 27 16 16 26 38 31 26 29 18 25 28 47 44 45 51 55 40 32 31 37 60 61 71 86
14 5 14 36 38 49 51 56 57 58 63 67 66 52 72 69 85 78 56 49 55 57 55 52 43 45 26 14 9 16 30 27 18 25 31 23 33 48 48 43 37 45 51 48 41 33 36 40 44
15 5 4 20 28 38 47 49 56 66 62 70 68 62 38 31 87 88 72 50 44 56 54 47 62 44 23 13 6 6 7 11 15 27 29 38 51 50 46 59 66 63 67 64 60 74 64 48 38

GFSSGP_500_rhum_009.txt.gz
RH
69 66 82 76 93 95 94 95 98 86 86 80 77 88 99 94 80 94 81 73 72 80 65 50 42 39 31 29 27 27 27 25 25 25 24 26 29 28 26 20 18 20 19 16 11 5 13 23 35
66 70 97 90 90 96 89 96 98 89 87 78 80 80 97 96 75 83 69 51 41 43 36 26 25 22 24 24 25 20 26 26 23 20 21 20 20 21 25 23 20 19 19 18 10 11 7 23 43
70 94 94 98 86 91 94 89 77 79 89 77 76 72 88 80 70 72 62 40 30 32 32 29 25 22 23 18 21 21 24 24 22 22 20 18 22 26 24 22 23 26 26 22 21 16 17 19 44
87 92 89 97 32 44 66 64 66 62 67 68 68 77 84 75 73 66 60 46 30 28 29 26 20 13 16 16 18 23 21 23 20 17 15 18 25 27 28 29 34 44 39 36 29 25 22 36 44
95 91 83 96 68 39 34 66 98 65 59 61 62 67 69 76 69 72 45 40 29 23 24 26 23 18 12 12 20 23 23 23 28 27 18 15 20 33 43 44 49 64 74 45 38 31 27 25 40
69 45 96 86 98 44 76 48 72 50 54 57 52 57 62 58 65 59 28 31 23 20 22 25 20 14 19 19 25 29 35 36 39 42 35 24 28 46 50 44 50 68 75 75 63 43 34 23 27
67 65 93 82 94 76 20 18 100 55 24 43 40 57 54 50 57 34 33 28 21 18 22 17 15 15 26 29 30 33 38 35 36 39 42 38 44 40 32 37 51 55 51 51 50 58 63 52 45
67 94 96 79 98 94 78 20 27 28 46 33 40 50 45 35 41 30 34 32 21 15 17 16 13 15 19 27 24 27 22 27 33 38 43 42 39 44 31 28 24 18 16 12 16 22 29 32 38
57 69 94 79 96 97 94 68 8 6 50 18 55 36 38 29 24 27 31 28 18 9 17 18 18 19 13 16 15 19 21 23 25 29 38 58 24 23 34 31 14 9 2 3 11 7 7 8 13
41 80 98 97 80 93 82 57 8 4 4 3 34 21 28 36 35 33 33 22 10 8 15 37 13 13 17 9 10 15 21 12 11 10 20 72 29 59 29 29 55 36 10 16 14 8 7 5 5
78 94 93 76 68 94 97 72 18 5 3 3 4 5 9 16 43 35 29 8 14 11 10 25 5 20 19 7 10 20 14 8 5 4 6 24 78 56 60 59 55 52 27 42 12 5 4 6 6
86 91 92 96 87 79 97 81 20 6 3 4 2 2 6 15 17 20 11 11 12 6 12 12 13 24 8 14 24 28 17 18 13 11 14 34 67 56 50 47 47 30 20 15 21 11 9 8 8
72 91 96 97 96 94 90 94 66 15 4 3 4 1 3 10 10 8 8 8 10 12 12 5 17 16 6 16 23 30 25 16 11 20 42 25 35 60 40 39 27 20 19 22 19 13 12 10 10
64 89 92 90 92 96 73 80 93 39 2 3 2 3 2 9 12 15 9 6 11 8 3 12 21 17 8 16 18 16 15 23 9 7 6 26 14 9 56 38 21 12 6 25 16 15 8 12 12
46 85 95 96 95 93 100 78 97 54 5 3 3 4 3 3 8 9 8 9 8 2 2 18 13 8 18 8 3 3 8 6 7 10 3 24 12 13 18 25 23 40 16 19 16 10 8 6 6
46 64 85 95 75 89 73 34 81 34 16 3 3 6 3 8 7 7 5 10 3 2 10 14 14 9 14 13 5 4 9 11 6 6 11 18 10 9 20 33 27 35 16 11 8 10 5 5 6
40 40 54 74 88 89 91 38 26 94 74 25 2 2 3 6 7 7 7 3 4 3 3 8 6 2 5 6 14 2 1 35 39 32 19 22 32 31 34 30 32 28 10 12 18 9 5 5 4
36 26 47 79 79 86 87 72 39 44 27 28 3 2 2 2 3 3 2 1 2 2 2 1 2 2 0 3 28 39 38 38 30 13 21 20 30 32 30 28 28 33 26 17 14 9 6 6 5
36 36 50 73 78 92 92 78 92 52 34 27 8 3 2 3 1 2 1 1 1 2 2 2 2 2 1 0 8 21 21 10 12 6 0 7 13 21 17 14 15 12 15 15 22 14 8 7 6
27 26 45 78 89 90 86 75 79 58 48 29 8 2 2 2 3 2 1 0 1 2 4 4 4 4 4 4 4 7 2 5 5 2 4 10 10 6 7 11 15 10 11 15 14 14 12 9 7
27 28 45 78 92 81 97 92 73 91 91 89 10 5 4 2 2 2 2 3 3 3 3 3 3 3 3 4 3 9 28 25 16 11 5 6 6 9 14 16 12 12 14 18 21 22 22 15 8
8 32 42 80 95 92 87 91 98 99 91 84 20 41 14 12 3 3 2 2 2 2 1 1 1 1 2 2 3 12 12 12 13 9 10 8 8 12 15 16 12 11 12 15 20 22 25 26 26
2 33 55 76 85 84 83 97 70 99 79 62 83 74 36 23 12 13 7 7 8 9 6 3 2 1 0 1 2 3 14 16 23 14 8 14 14 15 17 11 12 17 30 39 43 45 36 39 33
3 15 40 70 74 83 79 88 77 93 76 95 89 80 83 65 45 19 34 36 33 29 28 30 29 23 13 2 1 2 7 11 22 16 21 24 16 16 10 8 22 36 42 41 51 67 64 62 47
5 6 19 52 63 57 76 82 50 78 94 79 78 72 83 75 54 42 32 52 39 38 48 54 52 37 37 19 3 0 4 6 6 8 12 18 16 9 22 22 37 42 46 40 33 55 60 56 64
5 8 5 5 22 30 40 67 51 54 81 84 85 95 89 93 81 76 64 70 58 52 54 56 59 51 34 24 27 12 2 2 2 7 11 16 20 26 26 42 35 37 33 28 34 38 43 40 51
4 5 10 13 24 28 21 37 52 57 61 71 86 89 70 88 88 82 90 87 56 49 54 63 50 35 31 22 15 24 30 30 25 10 18 17 46 29 20 39 37 44 54 56 57 63 85 78 57
5 7 16 19 19 17 10 35 22 54 60 60 63 73 80 79 89 69 85 74 44 46 48 49 36 34 21 12 11 14 23 37 37 25 16 24 22 23 32 43 36 42 61 71 70 79 87 82 70
6 5 11 16 20 18 29 6 26 53 65 67 62 62 66 62 56 48 58 63 43 49 48 50 38 36 32 15 14 10 10 13 27 14 21 27 19 36 39 38 43 33 47 65 68 63 82 77 54
10 7 10 9 12 22 22 6 16 56 62 62 62 66 72 70 67 55 64 70 48 54 46 40 40 47 46 17 14 6 6 9 14 18 25 24 21 22 24 33 36 42 49 52 75 84 78 73 49

GFSSGP_500_rhum_012.txt.gz
RH
92 87 84 94 94 99 88 87 91 97 88 76 78 88 93 89 77 65 62 71 78 74 67 65 53 36 35 30 27 26 25 24 25 24 26 28 27 25 22 21 21 19 17 12 10 6 16 24 46
80 96 98 97 94 96 96 93 86 98 92 82 79 86 94 79 72 62 50 37 44 40 46 49 40 31 28 30 29 30 25 23 22 20 19 17 19 19 22 20 19 19 19 15 10 6 7 18 37
88 97 99 80 86 97 98 85 77 77 79 74 71 80 77 71 65 50 34 30 31 31 28 27 26 26 25 26 23 23 23 22 22 20 17 15 22 24 21 22 27 31 29 22 19 13 10 29 39
92 96 96 70 69 68 98 91 77 63 73 66 63 82 78 66 66 66 48 30 30 28 26 21 16 19 16 18 25 21 22 20 18 16 14 18 26 26 27 31 47 42 39 30 28 22 28 37 42
81 94 72 57 19 69 74 81 36 86 91 60 65 90 80 72 66 60 38 30 27 28 27 21 17 12 13 22 24 25 24 30 33 24 14 18 24 36 38 46 68 68 51 40 32 27 26 30 39
67 78 93 99 64 44 75 70 66 46 46 51 59 64 70 68 68 42 36 28 21 18 24 25 16 18 20 26 29 35 35 34 40 35 21 22 37 30 41 52 60 60 55 58 61 52 35 28 37
80 84 74 99 100 54 60 31 64 81 34 48 53 59 65 70 59 27 29 23 15 15 15 16 18 27 29 30 33 36 32 35 35 37 35 34 34 35 40 43 39 33 28 27 27 37 53 54 53
99 78 61 67 65 67 61 52 18 17 63 47 48 40 52 60 43 30 32 29 13 14 14 15 16 26 31 26 24 26 26 27 39 37 30 33 32 27 22 14 6 4 7 8 7 12 18 24 42
98 81 83 70 64 61 68 49 26 5 31 19 48 35 35 39 35 33 32 26 14 10 12 13 15 18 21 19 21 20 21 23 29 35 19 18 35 28 20 16 3 6 16 6 7 6 6 7 18
100 73 87 96 85 62 49 48 20 3 5 5 30 22 37 29 25 29 32 26 12 10 24 16 15 13 11 15 19 16 9 10 17 41 50 51 43 37 49 46 35 19 17 12 8 5 6 6 7
53 67 81 97 82 63 30 59 66 6 6 7 3 6 24 36 39 40 38 24 12 9 32 6 18 16 7 12 16 6 5 4 4 15 60 70 51 58 53 39 41 29 19 17 7 7 6 7 7
62 66 73 96 99 98 69 53 76 17 3 3 4 3 5 11 30 27 29 14 11 9 14 14 24 13 10 17 15 12 13 6 12 16 43 60 40 36 40 31 29 20 22 22 12 10 9 9 9
61 73 95 98 98 95 93 78 24 58 3 2 3 2 2 6 10 7 8 12 8 12 11 17 8 10 18 25 28 11 12 13 32 32 27 21 40 40 35 21 13 8 19 16 17 10 8 6 7
69 58 75 86 95 98 97 98 38 79 3 3 3 3 4 7 8 8 9 9 11 11 6 20 17 9 19 22 24 22 18 9 8 13 24 17 9 30 42 27 28 32 25 21 12 9 7 6 5
53 53 48 69 76 97 89 59 60 74 16 7 3 6 3 6 12 10 9 10 12 4 10 21 19 12 13 12 10 9 7 6 10 4 10 19 8 16 25 35 32 28 41 20 10 11 6 6 6
54 53 45 54 89 77 98 70 63 31 72 68 18 3 3 6 7 8 6 12 4 3 14 14 7 14 11 4 5 8 9 6 11 6 18 17 14 22 35 31 33 28 13 14 19 14 8 6 6
53 45 39 47 91 97 83 87 70 45 45 34 42 5 2 8 8 6 8 6 4 4 12 11 7 12 11 12 7 1 10 19 18 24 23 17 34 31 34 30 29 28 27 25 19 20 15 7 7
40 50 49 48 75 92 78 80 81 74 72 45 46 34 2 3 8 6 4 2 4 2 5 4 4 1 2 11 33 26 27 40 34 20 15 17 28 24 17 13 15 15 11 13 16 19 14 10 9
47 57 52 62 88 85 81 89 97 87 74 83 55 27 4 2 1 2 1 1 2 2 2 1 1 1 0 2 14 21 31 13 17 7 1 4 12 11 7 8 13 12 10 12 16 14 15 13 11
17 42 56 56 78 86 96 87 93 86 94 64 39 44 7 2 3 2 1 1 1 2 3 3 4 4 4 3 6 10 0 8 3 2 4 10 6 8 11 16 15 12 10 11 13 16 19 21 20
10 13 50 44 81 81 81 95 95 90 91 66 60 51 6 2 2 3 2 1 1 2 3 4 4 3 3 4 4 4 14 16 12 10 6 6 7 8 13 15 14 10 9 11 13 19 24 26 27
3 12 52 76 77 82 90 97 92 94 90 77 63 43 12 3 3 6 5 3 3 2 2 2 2 2 2 2 3 4 20 34 26 11 11 10 12 12 13 13 8 8 18 43 47 50 55 55 49
2 24 40 76 81 87 85 92 68 99 62 63 70 72 88 18 4 18 20 22 29 30 25 16 9 3 2 1 1 2 6 10 6 22 14 13 16 15 12 9 8 22 49 39 28 38 52 48 51
2 20 39 68 82 85 69 71 63 63 70 65 79 54 80 57 27 38 36 27 36 32 32 37 32 22 21 19 7 1 2 5 16 19 15 20 23 12 11 9 20 35 62 44 29 30 32 36 63
2 4 25 32 69 38 66 69 33 69 70 72 81 58 72 87 73 51 52 41 26 32 38 44 42 38 31 35 35 15 1 2 8 9 11 12 12 11 9 26 36 46 43 33 30 43 54 55 47
2 2 2 14 24 29 52 45 17 43 68 80 78 82 74 64 76 76 62 52 50 40 43 46 47 47 47 42 33 28 27 4 1 1 4 9 11 12 20 31 43 39 27 38 42 53 51 58 66
3 3 3 3 8 32 14 43 13 37 71 78 73 85 67 66 61 67 82 62 55 47 56 53 52 60 49 42 37 27 16 25 22 18 8 9 11 18 19 34 34 33 35 39 58 66 68 64 64
4 6 6 4 4 6 6 18 5 14 50 61 62 63 62 62 62 56 67 74 53 38 60 57 54 50 38 26 18 13 11 11 29 35 19 21 10 20 32 35 34 31 32 49 60 68 74 70 70
4 4 4 8 9 6 4 2 3 7 51 60 65 65 68 60 64 66 69 70 73 45 43 60 62 49 35 28 19 15 11 10 23 36 31 11 19 16 30 40 33 41 39 44 54 58 76 72 79
6 6 6 4 4 4 4 2 6 8 47 64 64 68 70 64 80 80 73 73 59 36 37 60 52 54 45 28 26 17 8 6 16 34 16 21 15 14 24 24 32 37 52 48 50 53 67 66 65

GFSSGP_500_rhum_015.txt.gz
RH
77 71 80 96 93 91 84 89 88 83 79 79 86 87 85 78 70 74 77 84 86 94 91 74 52 44 31 30 26 24 23 24 21 22 23 23 22 21 22 20 19 19 16 11 8 24 35 44 46
83 90 71 86 79 94 98 89 91 84 78 76 89 80 74 67 62 62 91 83 74 65 64 53 44 38 29 26 28 30 25 22 20 20 17 18 18 19 20 20 20 18 18 12 9 10 22 31 47
92 78 92 90 82 96 91 82 78 76 74 71 88 83 70 67 52 43 53 60 41 40 43 43 35 29 27 28 29 26 20 23 21 17 17 20 21 21 23 29 32 31 25 22 16 11 24 46 55
93 76 96 97 89 94 80 76 70 67 67 77 77 79 72 60 51 44 49 43 33 30 27 28 22 16 23 26 21 20 20 19 17 15 15 19 28 31 34 52 58 40 33 30 28 25 36 54 64
72 74 81 85 78 64 68 58 68 75 63 70 81 78 78 69 64 46 40 35 31 30 22 18 15 12 20 23 24 24 29 36 29 14 15 28 40 42 50 70 68 64 63 42 33 26 26 39 56
68 83 100 92 36 42 65 79 69 32 47 53 78 81 81 71 65 38 32 32 29 26 25 17 17 15 23 27 32 35 34 39 31 18 28 38 35 45 54 48 32 29 33 48 55 46 44 53 57
87 65 80 65 71 47 25 19 11 38 41 49 53 74 76 72 63 41 28 22 27 22 16 17 23 25 27 31 34 34 34 37 33 31 34 36 38 36 18 11 10 10 11 16 22 28 38 55 54
87 78 64 60 63 48 40 13 7 8 57 33 56 47 56 75 51 29 23 20 19 16 15 17 27 27 25 25 28 25 30 31 31 32 27 22 14 6 4 5 10 9 6 7 5 6 26 26 37
94 75 83 68 64 56 51 28 8 13 37 46 51 51 54 62 38 34 32 25 14 16 14 15 22 23 22 20 19 19 21 22 21 16 32 22 20 12 5 11 17 9 8 5 6 8 25 14 15
94 88 86 70 56 43 69 65 60 33 7 7 25 41 44 44 36 34 31 28 14 14 13 15 13 16 19 18 14 9 14 30 41 35 42 28 47 48 33 25 30 14 8 7 12 20 15 7 7
98 89 76 65 53 45 51 33 35 44 8 4 6 17 38 34 27 30 36 32 12 19 19 16 12 13 14 13 8 3 7 17 44 63 52 50 54 38 34 24 16 18 18 9 8 8 7 7 6
46 78 77 73 54 52 47 25 56 61 5 3 4 3 10 35 38 40 41 31 12 26 9 19 13 10 13 6 7 3 6 14 42 55 57 33 39 26 22 18 21 20 14 13 11 7 6 6 6
84 80 62 58 70 71 49 30 57 95 14 6 2 3 3 10 31 20 16 13 10 22 11 25 12 13 17 9 15 13 16 21 26 23 23 34 44 37 21 13 12 18 19 16 12 9 7 6 7
95 76 58 68 68 63 54 31 61 32 28 13 4 6 4 8 12 8 7 12 7 13 15 10 10 20 17 20 12 14 14 28 24 18 15 10 19 34 26 34 45 30 39 11 14 10 6 6 6
66 79 60 63 78 33 65 41 41 50 80 99 45 4 4 8 9 9 8 10 10 8 18 17 6 17 17 18 15 10 7 8 6 10 22 8 14 26 36 33 32 19 16 20 22 16 9 7 6
50 75 66 57 58 61 25 54 67 62 66 90 84 5 4 7 14 11 8 11 6 7 17 16 12 10 8 5 5 7 6 12 8 5 22 14 23 36 31 37 36 33 29 28 24 22 24 10 7
46 43 61 56 47 52 32 56 73 81 79 77 39 38 4 8 9 10 8 8 2 5 14 10 7 14 7 7 4 10 12 8 9 20 22 13 34 36 38 22 18 16 12 13 14 17 17 14 10
25 42 66 62 57 57 55 61 86 96 98 92 54 32 6 4 8 6 10 5 2 6 6 9 8 8 10 13 6 6 26 35 27 23 14 22 24 23 12 10 13 14 11 10 12 13 15 15 14
33 44 61 62 63 59 54 63 67 90 96 100 65 49 8 3 7 7 8 3 4 3 4 3 2 0 1 26 29 27 36 40 20 8 1 9 13 8 8 14 16 13 11 10 11 15 18 20 21
21 23 50 67 71 60 66 68 73 81 95 100 60 41 16 3 3 3 3 2 4 2 2 1 2 3 3 1 14 8 11 10 5 3 5 9 6 8 11 15 14 13 11 10 13 17 24 33 35
8 9 47 68 76 75 80 57 56 69 94 85 80 76 13 3 3 3 1 1 1 2 2 3 4 4 4 5 4 5 7 7 8 9 6 6 7 9 10 12 12 13 9 31 41 37 37 40 44
4 7 46 69 86 87 65 52 45 59 71 58 72 37 21 7 3 3 3 2 1 1 2 3 4 3 2 3 4 3 15 28 25 16 8 11 14 12 10 10 13 11 33 39 32 34 42 34 37
2 13 40 63 81 80 72 48 38 43 43 58 73 50 96 68 18 6 6 5 6 13 7 6 3 2 1 0 1 3 6 12 8 7 20 16 12 20 20 12 9 18 36 48 36 34 32 31 42
2 15 31 63 76 68 46 45 42 41 41 66 61 46 70 91 60 56 17 6 14 22 28 26 28 27 21 13 6 2 2 3 10 14 22 15 17 19 13 12 18 29 39 55 37 30 34 33 42
2 4 17 30 57 6 40 40 18 56 51 66 62 70 67 79 89 94 74 75 50 10 15 22 23 28 35 36 26 12 6 3 2 10 14 18 12 9 12 12 27 31 41 38 36 40 43 52 54
2 2 2 2 7 8 21 17 5 47 57 66 77 85 80 64 69 86 87 88 74 43 19 26 26 24 29 40 46 41 40 16 3 2 8 5 6 8 12 20 31 44 40 37 39 38 44 45 47
4 3 2 3 4 6 4 7 7 32 47 71 81 79 74 73 70 80 78 75 83 39 34 35 38 35 36 41 49 49 34 25 30 16 3 2 14 12 14 16 31 40 32 30 38 52 50 51 55
5 6 4 3 3 3 2 2 2 13 31 52 71 60 60 53 62 68 69 71 77 68 39 44 36 40 47 40 28 26 27 25 20 32 32 24 23 18 15 16 35 38 36 32 33 42 45 54 55
7 6 6 5 4 3 2 2 2 3 25 36 68 63 68 59 62 64 74 76 76 78 62 49 45 47 41 46 30 20 15 12 12 19 47 36 31 17 17 18 28 33 27 30 36 42 43 49 56
10 7 6 6 5 5 3 3 3 3 8 26 46 66 53 61 66 65 82 85 75 76 62 44 56 50 49 44 35 23 15 13 10 18 44 35 31 17 15 25 31 33 32 42 39 37 43 46 45

GFSSGP_500_rhum_021.txt.gz
RH
56 70 82 96 95 97 96 89 84 87 82 79 77 71 63 64 75 84 89 93 98 96 96 96 81 62 30 25 24 19 17 14 13 14 18 21 22 20 20 18 16 23 20 12 32 41 33 44 46
53 56 63 94 90 84 83 86 84 78 84 82 73 67 66 67 65 83 91 95 100 93 70 78 89 38 25 22 17 16 16 14 11 17 22 22 22 26 30 25 20 17 13 31 20 26 30 43 52
74 72 63 89 83 81 79 83 78 77 79 72 74 67 61 59 70 82 75 90 93 82 53 62 56 23 16 19 17 17 16 11 14 20 22 24 33 45 37 32 26 22 25 10 19 35 38 45 53
85 89 90 94 91 73 76 78 77 76 85 92 84 68 62 60 56 68 68 63 66 52 41 36 21 16 18 19 20 22 18 11 16 30 35 38 64 68 58 55 30 28 28 23 23 36 55 56 61
91 98 100 96 90 75 69 71 69 67 70 76 75 71 64 53 46 46 35 41 35 30 26 23 16 19 23 24 29 32 17 11 25 36 42 52 59 44 36 48 52 49 29 28 34 36 50 66 65
86 87 91 80 76 68 62 32 62 50 73 76 74 73 64 62 50 39 33 31 29 23 18 17 15 23 27 33 33 34 14 17 35 39 45 50 33 19 22 26 34 38 45 46 53 53 53 52 25
76 66 70 76 48 58 47 22 32 48 53 65 73 72 70 68 49 34 30 24 21 25 17 17 22 27 33 30 34 23 17 31 29 38 42 23 9 8 8 10 16 28 42 38 38 24 14 16 17
99 94 67 60 39 27 8 25 43 22 27 43 56 71 62 66 47 36 25 17 15 16 17 22 22 27 29 30 31 28 28 34 37 29 12 8 11 7 6 5 8 37 28 31 15 7 7 11 9
87 99 71 52 35 21 11 8 12 19 36 41 44 60 69 65 45 35 28 18 14 13 18 24 23 22 23 26 31 31 30 22 20 7 28 32 28 10 8 7 22 30 30 20 18 14 9 8 8
83 86 77 67 36 20 8 4 6 7 21 44 33 37 61 68 34 31 32 22 12 14 16 23 21 18 18 18 20 19 21 20 18 15 25 36 32 18 13 9 8 20 12 23 16 17 9 8 9
93 83 58 53 50 22 6 6 4 4 4 7 13 26 46 65 40 35 36 30 11 12 14 16 20 16 13 18 20 20 38 28 41 42 39 32 24 19 17 18 9 10 10 7 7 8 8 8 7
90 81 67 48 45 36 7 5 3 4 5 3 4 8 27 49 43 36 35 34 13 14 12 13 18 12 7 21 28 41 42 46 48 40 34 29 26 16 15 12 16 14 11 8 6 5 12 7 8
61 83 74 53 34 21 26 7 5 6 12 7 5 4 7 31 31 29 31 35 18 23 14 11 14 10 4 6 24 51 53 47 43 38 27 19 15 16 23 28 27 11 13 14 10 7 19 6 6
47 34 49 69 53 33 66 30 16 11 10 14 5 5 5 8 27 31 34 30 18 26 15 11 13 7 4 6 18 31 37 34 26 31 36 27 24 31 35 30 29 29 29 25 20 17 13 7 6
47 33 21 69 72 54 66 52 69 27 12 24 24 7 7 8 9 24 21 12 12 17 20 10 16 7 11 8 14 22 17 15 12 13 32 35 34 33 33 31 28 19 14 17 32 18 20 20 8
30 26 23 65 73 76 52 59 80 66 49 32 28 18 8 9 8 8 9 10 12 14 20 10 16 10 10 8 13 18 10 14 18 9 17 32 34 31 26 16 14 15 12 28 28 25 24 14 14
15 20 33 58 75 61 45 64 78 66 72 22 37 22 7 11 10 9 9 9 11 12 10 12 14 9 10 9 6 6 7 5 18 17 25 34 36 36 51 17 11 14 13 16 17 16 13 17 19
7 21 35 66 75 53 55 62 76 67 60 42 39 31 7 8 10 10 9 8 9 14 12 10 10 4 3 4 5 4 6 6 14 21 17 28 25 40 7 10 16 18 12 8 26 32 31 32 35
16 31 41 82 81 61 51 68 76 64 45 40 33 56 18 5 8 9 9 5 5 12 12 11 10 6 6 3 5 6 7 15 16 8 19 15 15 7 9 13 15 19 9 16 28 26 22 24 24
6 18 33 76 64 48 53 48 79 68 83 72 42 71 54 5 8 8 9 5 2 11 12 9 12 10 11 4 8 16 26 29 16 3 6 9 6 8 8 10 12 13 8 20 26 23 25 22 31
2 6 29 41 58 35 48 38 70 72 85 80 92 20 46 4 7 7 7 3 4 6 8 7 9 5 10 26 26 26 29 22 10 4 5 8 9 15 18 16 16 12 10 18 25 25 23 20 26
2 6 22 48 60 54 34 31 66 70 83 54 96 34 8 5 3 3 2 4 3 3 2 2 2 1 2 2 4 13 7 9 5 4 7 8 10 12 16 20 16 10 9 16 24 22 22 21 30
2 3 13 39 58 60 45 27 50 63 75 65 83 57 5 3 3 2 1 1 2 2 2 3 4 4 4 4 4 3 6 11 14 13 12 12 15 14 14 17 13 10 12 16 25 26 28 29 31
2 2 8 23 42 21 22 24 22 47 65 82 85 47 9 6 3 2 1 1 1 2 2 3 4 4 3 3 3 3 3 6 19 21 16 13 19 19 15 13 10 10 14 17 21 27 28 26 31
2 2 3 10 12 4 21 21 6 27 55 65 82 36 22 20 6 4 3 4 5 3 3 3 3 3 2 2 2 2 2 3 5 16 18 12 16 18 16 12 11 11 12 17 24 31 30 33 33
3 2 2 2 2 7 9 3 4 23 36 66 85 86 42 14 16 13 26 33 40 25 22 16 16 14 16 17 21 18 10 4 4 4 8 10 13 12 13 10 13 13 14 18 28 34 35 35 49
6 4 3 2 2 3 2 2 4 13 30 34 57 85 53 15 13 30 42 21 28 38 57 63 36 21 20 24 22 25 31 33 18 6 5 5 7 8 10 7 14 17 17 13 28 36 37 40 39
9 8 6 4 3 3 3 3 2 6 16 35 75 74 62 36 19 77 69 61 60 69 76 61 38 33 35 26 25 30 40 44 47 40 36 21 10 7 5 5 14 19 21 14 26 35 41 43 42
10 8 8 7 6 4 4 4 3 3 8 28 66 68 82 78 70 54 80 89 99 99 71 70 47 41 41 35 30 36 40 30 30 42 44 35 31 29 17 7 13 21 22 18 26 31 44 42 46
16 13 12 10 8 8 7 5 4 4 4 8 38 69 82 82 84 98 100 99 98 96 97 76 72 47 53 47 49 46 42 38 31 26 20 18 20 22 36 26 15 23 23 22 30 36 47 38 46

GFSSGP_500_rhum_024.txt.gz
RH
61 64 80 93 95 94 85 79 82 79 75 71 68 65 68 68 75 85 88 97 90 92 96 85 84 40 26 25 20 17 13 13 15 19 21 21 20 19 18 29 12 17 21 42 44 42 45 46 50
52 60 72 81 89 92 90 77 77 77 76 77 72 63 68 73 77 86 83 94 94 84 73 81 71 32 22 20 17 15 14 12 15 18 20 20 34 24 19 17 18 27 26 16 33 38 46 50 51
65 74 79 84 81 92 86 83 74 83 83 83 72 70 64 73 84 87 79 94 91 65 56 72 43 22 19 16 16 15 12 15 18 20 23 35 44 33 28 22 35 19 12 22 24 32 44 51 56
74 94 97 97 88 78 82 82 79 85 78 77 82 70 63 68 80 69 80 75 62 45 41 34 19 19 19 18 19 16 12 16 24 26 44 61 55 59 32 40 39 25 22 26 33 53 56 56 67
97 97 98 99 82 76 80 77 74 78 80 82 78 73 64 61 64 58 49 38 33 29 24 23 21 22 22 24 27 17 12 22 36 48 55 38 34 51 56 51 47 22 23 28 37 51 64 66 51
99 98 97 99 84 73 66 70 62 64 76 77 72 70 60 52 55 37 31 28 27 21 18 13 22 24 32 32 34 15 13 32 42 41 25 16 22 31 37 41 39 37 44 51 49 43 22 10 11
90 85 79 76 75 65 48 26 56 52 78 65 62 68 63 62 49 36 30 25 22 22 15 17 24 29 40 33 31 12 25 34 37 16 9 10 13 17 23 28 41 39 35 17 12 14 13 17 27
74 66 61 64 56 46 42 20 24 29 47 49 51 71 67 63 45 34 20 18 17 18 19 21 26 30 31 31 18 22 26 35 16 6 7 6 5 5 20 36 28 31 12 7 6 9 7 10 19
91 68 62 55 48 22 9 20 30 15 31 36 49 71 69 64 41 29 20 15 14 15 23 23 25 27 29 29 26 29 32 20 8 10 10 7 7 15 28 33 29 19 21 15 12 8 7 7 6
99 82 74 57 34 23 10 6 6 16 32 45 45 66 69 62 42 28 26 14 14 15 22 22 21 18 23 29 29 22 15 6 25 33 30 12 10 8 10 19 18 22 19 10 10 7 6 6 6
91 82 82 68 51 29 10 6 4 5 37 45 32 46 69 59 34 32 32 16 11 12 18 21 18 16 15 20 18 18 11 10 18 32 34 26 15 15 12 9 10 9 7 8 7 11 14 6 7
92 87 64 60 52 37 9 7 4 3 4 5 17 33 56 62 38 34 34 29 11 12 13 18 17 13 17 14 27 25 26 32 35 34 26 18 16 13 11 14 13 11 9 8 6 20 26 19 7
93 81 63 55 51 34 12 6 4 4 3 4 3 9 34 57 45 36 35 33 20 16 10 17 12 6 19 24 39 27 43 41 36 28 21 16 14 26 24 19 10 13 16 15 28 32 17 6 5
67 83 77 61 44 27 32 9 9 8 4 4 4 3 10 34 36 31 30 31 26 20 13 16 8 4 13 41 51 46 44 39 35 24 18 19 28 29 29 30 28 25 25 41 48 35 25 10 6
36 58 77 73 55 41 65 44 55 29 9 6 4 3 3 8 30 28 22 24 21 23 14 15 7 3 3 20 38 44 36 27 31 34 26 26 29 31 41 27 18 14 56 41 44 37 28 18 13
31 24 28 52 76 68 73 98 87 57 31 9 8 7 7 6 8 17 15 17 13 19 16 13 9 7 5 14 20 16 15 13 12 30 34 33 31 29 26 48 23 16 38 27 30 29 29 16 16
15 19 26 33 75 88 93 88 85 64 54 15 15 8 9 8 8 9 10 9 13 13 18 12 15 8 9 10 18 17 11 20 10 13 26 32 32 34 40 40 30 17 14 26 38 32 28 29 28
7 16 22 32 66 76 77 73 81 71 66 30 9 9 10 12 9 7 9 9 12 12 8 10 12 8 7 8 8 8 6 7 20 18 28 25 23 33 7 19 43 18 20 42 45 28 22 22 26
6 12 27 38 58 84 75 78 69 66 63 58 12 9 9 9 11 10 10 8 10 11 5 11 14 6 8 9 6 4 6 6 14 19 18 16 11 7 10 16 44 13 23 34 31 22 18 20 32
2 10 23 43 50 75 83 79 78 73 59 58 18 20 8 8 9 9 8 8 8 15 12 10 13 8 3 3 4 4 6 12 15 7 11 9 6 10 10 39 32 24 24 27 30 31 19 17 34
2 7 20 34 60 68 80 71 77 81 64 60 44 31 20 8 8 9 8 4 5 11 10 9 11 7 9 3 5 13 21 26 16 3 5 8 11 16 17 25 32 34 9 23 20 24 23 18 20
1 4 20 32 49 48 74 72 64 63 75 63 59 41 38 8 7 8 8 4 2 9 12 7 11 10 9 21 26 24 24 24 12 6 5 8 10 11 15 16 16 18 13 16 16 17 18 16 25
2 2 8 27 35 50 48 38 50 59 67 62 57 91 44 12 6 7 8 4 3 4 6 3 4 2 2 4 8 10 8 8 7 4 8 10 12 14 12 15 32 10 13 8 10 14 13 17 20
2 2 3 10 32 30 16 20 20 38 48 68 61 67 40 16 4 3 3 3 3 2 1 2 3 3 4 4 4 3 4 8 10 11 11 12 13 15 18 15 13 18 8 8 11 15 18 19 26
2 2 2 5 7 4 15 15 8 32 46 68 66 73 33 26 3 2 2 2 3 2 2 3 3 4 4 4 4 4 4 3 5 15 19 17 16 14 20 18 12 11 11 10 10 14 19 28 34
2 2 2 2 3 4 5 5 7 20 40 61 74 79 44 9 3 2 1 1 1 2 2 2 3 3 3 2 2 2 1 1 2 3 4 10 14 10 13 20 16 11 12 12 8 16 22 31 30
5 4 2 4 3 5 5 3 5 11 28 49 70 72 40 12 7 3 3 3 2 2 3 6 9 10 10 10 9 12 13 11 7 5 5 5 5 8 8 13 13 8 16 12 9 16 22 34 37
10 7 5 3 4 2 2 2 2 7 18 33 56 57 50 24 17 5 10 26 30 24 23 25 22 23 20 16 19 23 26 31 33 33 28 16 10 8 7 6 6 5 13 17 11 16 23 28 34
12 10 7 6 4 4 4 6 3 4 13 30 45 58 54 64 38 11 15 29 48 60 50 49 39 26 23 25 27 24 29 35 37 42 49 47 38 34 30 28 19 6 9 21 13 16 22 26 33
17 16 12 7 6 5 5 21 4 3 6 23 35 46 65 79 65 29 63 49 58 58 63 65 65 42 35 40 36 35 30 35 34 28 27 34 40 37 34 31 33 27 13 20 17 15 24 28 34

GFSSGP_500_rhum_027.txt.gz
RH
62 70 89 91 88 97 97 95 94 82 72 74 73 72 80 87 84 86 87 97 96 98 90 77 39 20 20 16 14 15 14 14 18 18 21 18 20 19 22 25 39 38 48 51 52 50 45 46 50
52 70 84 90 96 97 90 82 79 75 73 72 71 64 71 91 76 86 88 87 87 96 72 73 36 18 17 15 14 14 11 12 17 18 16 20 22 19 22 31 19 15 30 36 36 44 54 56 61
60 71 82 80 97 89 90 87 79 82 79 78 69 77 93 74 82 81 77 82 79 58 54 48 22 17 14 16 15 12 10 15 18 19 38 39 32 20 23 21 23 30 23 22 31 43 50 53 61
58 73 83 87 85 95 84 79 79 86 82 76 72 68 62 68 80 66 80 77 61 43 43 19 16 17 18 19 17 10 13 20 20 35 57 43 40 27 24 32 18 13 23 34 48 53 53 62 60
71 71 85 95 98 77 75 78 78 80 77 74 72 64 60 62 66 60 72 46 34 32 24 20 22 22 20 23 22 9 20 30 50 54 41 48 53 40 48 36 22 21 26 35 46 60 49 19 18
76 90 95 96 86 71 65 74 76 77 82 81 75 63 55 49 50 53 35 28 25 21 18 16 22 23 25 28 23 11 32 44 43 21 20 33 42 46 41 31 34 45 49 48 36 17 20 23 13
76 97 96 94 100 70 59 65 65 57 66 70 65 58 56 55 44 33 29 22 24 22 15 17 22 28 35 30 18 19 38 33 12 12 17 23 24 28 40 42 38 23 14 13 13 11 20 28 17
66 84 94 93 97 90 51 39 24 30 52 57 51 62 61 59 42 34 20 16 22 17 18 22 24 30 35 31 12 29 36 11 6 6 7 9 30 31 30 31 13 7 6 7 7 6 8 6 7
53 95 84 100 88 93 29 15 21 27 32 34 41 54 68 63 40 24 14 14 15 18 23 22 22 26 28 18 22 30 16 6 6 5 7 13 32 39 34 20 19 17 15 12 8 6 6 7 6
64 99 98 100 93 91 26 86 16 12 16 26 35 56 61 64 39 23 14 12 13 19 24 22 19 25 29 24 28 21 7 9 10 8 7 70 22 26 27 17 23 12 8 6 6 6 8 11 9
70 98 97 77 51 44 76 75 6 6 19 29 37 46 55 62 37 26 15 11 14 17 21 18 16 20 28 26 19 7 15 28 30 12 16 12 15 15 30 10 15 7 10 7 18 31 15 7 6
74 89 94 89 49 47 69 96 90 16 51 38 26 28 58 59 33 30 27 14 12 14 18 18 14 15 22 18 14 8 14 23 30 23 18 15 17 10 14 13 10 11 8 16 31 31 9 8 5
65 71 76 56 51 48 21 28 98 59 5 5 6 17 43 67 37 31 33 27 10 12 15 18 12 15 14 20 20 20 24 26 29 24 16 12 20 20 18 12 16 22 24 60 47 33 29 7 5
88 82 74 60 55 48 24 21 9 78 4 3 2 4 23 52 53 36 34 32 18 15 12 16 7 8 18 35 28 38 38 31 25 17 15 18 27 30 30 28 26 20 52 49 40 35 39 19 11
51 76 79 66 57 43 40 64 44 79 9 6 4 2 4 23 49 38 33 31 23 18 11 14 5 13 28 38 41 41 37 35 24 18 20 27 30 32 29 23 15 36 36 29 31 32 40 16 14
30 42 77 79 67 54 52 99 99 62 22 9 6 4 2 6 27 28 26 23 23 19 12 14 5 4 19 46 49 46 28 27 32 29 25 29 29 31 27 46 15 27 19 25 30 29 22 20 23
21 26 55 96 82 76 64 88 97 75 51 19 7 5 5 4 6 15 19 19 17 19 12 15 5 3 8 25 25 21 17 10 17 30 33 32 30 30 36 32 44 21 38 44 29 23 24 27 27
13 14 70 86 89 95 99 88 92 79 87 67 16 7 7 7 5 6 11 14 11 14 14 14 7 8 6 14 19 16 14 18 11 18 28 32 32 38 11 50 33 10 48 31 22 18 19 24 24
10 70 61 83 87 88 98 96 99 94 98 100 64 15 8 7 6 7 8 8 10 13 16 10 9 7 8 9 15 13 6 8 18 19 19 22 15 8 10 63 18 19 35 32 26 15 18 33 36
2 18 69 76 85 87 97 98 95 99 97 98 91 38 8 9 7 8 8 9 11 11 8 8 8 8 9 6 5 5 6 6 8 17 14 10 8 9 43 46 21 24 31 31 22 16 18 20 33
1 2 34 72 81 82 98 98 97 95 99 99 85 49 19 8 9 10 10 8 9 11 7 7 8 4 6 3 3 4 5 7 12 5 6 7 13 15 19 35 23 15 11 51 26 12 14 21 20
2 1 10 68 77 76 80 93 96 93 94 88 67 51 29 8 9 9 9 7 6 10 15 7 7 4 3 2 3 8 10 9 11 6 3 7 12 12 14 21 32 23 14 33 24 9 14 14 20
2 2 4 15 57 81 82 87 80 91 89 95 79 63 38 9 8 8 9 5 5 6 9 6 6 6 8 8 18 15 16 18 16 10 7 8 11 11 12 12 40 17 6 17 14 14 11 13 24
2 2 2 11 23 41 48 77 78 80 86 93 96 88 58 21 7 7 8 7 3 2 5 5 6 7 12 21 18 16 14 14 12 10 9 10 12 12 13 16 18 13 9 7 10 10 12 17 25
3 2 2 4 7 6 21 17 38 76 79 86 92 92 76 46 9 6 6 6 3 3 2 2 2 2 6 7 6 6 6 7 9 11 12 12 13 14 15 18 24 10 12 7 8 11 15 16 24
4 2 2 2 3 11 10 19 11 49 80 79 90 91 93 56 17 4 4 3 3 3 2 1 2 3 4 4 4 4 4 4 4 5 7 10 9 10 12 10 14 12 9 13 7 10 14 17 28
6 4 3 29 31 28 27 19 36 58 67 63 73 86 92 81 34 3 2 2 2 3 2 2 3 3 4 4 3 2 2 1 1 2 2 3 5 6 6 8 8 9 8 10 13 8 12 19 27
11 8 6 9 34 34 32 38 39 18 16 34 29 43 63 80 41 4 2 1 1 2 2 2 3 3 2 2 4 6 8 11 12 14 17 17 14 11 8 8 8 8 9 5 18 11 12 20 25
11 10 8 7 9 35 42 34 36 46 14 14 22 41 59 65 46 6 5 2 1 1 2 3 3 3 5 9 14 13 18 20 16 19 20 25 29 38 36 34 31 29 26 13 11 19 10 16 22
15 12 9 6 7 14 33 34 34 37 17 16 21 34 53 64 58 22 11 5 5 10 14 16 26 19 23 29 22 23 24 23 25 22 23 26 32 37 41 39 36 31 29 30 18 20 15 17 21

GFSSGP_500_rhum_030.txt.gz
RH
68 84 91 96 97 95 95 96 89 80 76 77 81 83 96 90 94 96 89 97 91 83 62 30 14 13 12 12 12 11 13 15 16 19 20 15 15 15 38 34 36 45 50 48 48 44 43 48 53
58 79 94 96 98 89 96 84 99 94 75 76 82 82 82 75 80 82 91 82 78 69 60 33 17 14 14 16 11 10 12 14 18 24 24 23 21 26 25 22 16 35 36 33 37 44 47 49 57
54 78 88 90 96 94 88 94 77 84 78 75 67 62 71 70 78 81 85 80 65 44 43 18 20 14 16 16 11 9 12 15 18 22 30 24 18 16 17 22 26 17 18 22 30 42 50 57 63
56 83 84 98 98 75 80 81 80 76 80 74 70 62 56 71 76 72 77 75 48 31 24 12 16 17 19 18 9 10 17 18 19 46 34 33 24 21 28 19 12 19 26 42 49 56 46 22 22
70 83 89 98 98 96 81 79 72 76 77 74 72 60 50 52 58 52 78 58 27 27 20 21 23 21 21 22 9 15 24 27 51 40 46 40 31 30 31 20 19 24 36 48 40 12 17 10 11
76 78 98 88 94 78 72 77 72 78 76 68 71 65 53 47 44 53 47 32 20 20 17 18 22 22 25 25 9 24 38 52 27 24 40 46 45 40 22 27 35 41 40 17 17 26 27 13 9
98 97 89 92 98 96 66 67 69 66 65 61 65 62 52 49 45 39 31 29 20 16 14 19 20 31 28 26 10 35 44 25 18 23 29 29 36 38 40 34 19 12 12 9 8 14 10 8 6
79 97 98 87 94 90 99 56 34 38 34 39 48 44 51 55 43 34 31 13 22 14 18 20 26 34 29 20 18 38 22 11 11 17 24 30 34 28 11 7 6 6 7 6 5 6 6 6 6
92 97 86 82 99 98 86 42 19 41 41 28 36 38 45 58 48 34 16 19 13 17 18 22 24 29 25 13 30 31 9 5 4 8 31 51 33 26 17 15 14 12 10 6 5 5 8 5 6
70 92 92 64 83 93 56 100 30 17 16 9 20 25 41 61 55 27 11 10 13 18 16 20 23 26 16 20 29 15 6 5 6 19 63 42 51 21 20 18 7 8 8 20 33 10 6 6 6
58 91 88 94 86 79 84 50 54 9 7 6 17 26 42 57 53 24 12 10 12 17 16 15 20 26 22 26 21 6 8 8 7 37 54 99 41 23 10 13 8 8 17 28 47 13 10 5 6
76 93 95 78 74 93 99 97 98 96 98 18 28 32 34 53 47 26 18 11 11 14 16 13 15 24 23 20 10 15 24 23 12 12 16 60 17 37 12 12 17 22 22 48 40 25 12 6 5
78 70 81 87 50 71 62 42 96 53 10 3 21 20 11 43 49 29 29 17 10 12 16 11 13 22 16 12 6 22 29 29 18 14 12 62 39 24 13 20 23 30 57 89 39 30 25 16 7
78 96 99 97 98 79 39 40 15 42 25 3 3 3 9 30 56 34 32 30 14 11 16 12 8 13 15 16 13 20 24 28 27 14 11 26 31 31 24 22 19 41 32 34 33 36 49 29 14
82 92 90 91 96 94 92 99 57 93 91 18 4 3 2 12 44 46 34 32 28 13 13 10 4 13 27 27 30 36 31 24 14 16 22 28 28 28 23 20 35 34 24 24 28 23 25 22 20
28 53 67 77 90 76 63 85 100 74 56 27 22 6 3 3 18 36 38 33 31 16 11 8 5 15 22 34 33 34 31 25 19 20 24 26 21 23 43 26 26 28 37 33 29 26 21 22 27
18 20 20 82 77 66 66 79 100 72 97 37 27 21 6 3 3 12 27 24 26 20 11 9 3 18 42 44 38 27 18 22 24 26 27 25 26 22 22 45 19 33 35 29 17 17 16 17 22
8 14 21 45 98 79 84 89 75 92 88 74 31 28 31 8 4 4 14 13 15 16 13 13 4 3 29 34 24 14 8 10 19 26 26 29 30 16 20 48 23 37 29 22 16 19 30 32 32
11 28 26 88 73 99 72 93 66 78 95 98 47 69 27 24 6 4 4 7 10 13 12 13 6 5 12 19 13 10 14 15 14 22 22 13 7 13 34 36 31 36 35 24 16 20 18 31 34
2 7 70 77 85 84 96 56 92 92 96 90 75 96 44 25 9 5 6 6 8 11 11 10 10 6 8 15 13 6 4 7 16 16 12 7 6 31 64 31 29 24 58 30 12 15 21 18 19
2 2 19 79 75 88 96 94 95 75 86 96 71 44 40 26 9 7 6 7 7 11 12 10 9 8 10 8 9 7 6 5 5 6 8 6 9 13 68 30 21 33 35 41 12 10 11 18 18
2 2 3 80 76 68 76 81 69 73 96 68 85 90 96 27 10 8 9 9 8 11 8 5 5 6 7 5 5 4 4 4 5 5 5 9 14 14 18 22 27 22 23 29 25 11 13 14 16
2 3 2 33 77 73 73 73 76 75 65 88 59 56 57 22 22 6 9 9 7 9 8 6 6 3 4 3 1 2 4 6 10 8 7 12 13 12 12 14 24 21 6 26 19 12 11 18 23
3 5 10 4 61 64 66 73 72 85 68 81 79 77 52 54 48 9 8 9 6 6 7 13 8 4 2 2 1 3 6 9 12 10 10 12 13 15 14 14 16 17 14 12 20 13 10 15 22
3 3 18 27 8 15 42 72 62 76 90 93 96 88 93 64 55 34 7 8 8 4 4 6 6 5 6 6 11 14 9 11 12 10 11 11 12 14 14 14 21 14 10 17 5 10 10 14 22
4 3 2 4 7 21 20 14 9 69 92 86 98 96 96 73 70 33 13 7 7 5 2 3 7 6 6 11 17 7 8 9 10 10 11 11 9 10 11 9 7 9 11 9 12 6 8 11 19
10 4 5 14 32 36 33 21 21 34 57 88 84 89 97 82 95 45 44 4 6 5 3 2 2 2 2 7 8 6 6 5 4 4 3 2 3 4 4 6 8 8 9 8 11 15 7 9 15
12 18 10 16 31 36 33 32 28 25 24 64 72 84 93 86 83 50 39 4 4 3 3 2 1 3 4 5 5 4 3 2 3 6 8 9 10 11 9 8 8 9 12 13 7 16 15 8 12
20 32 19 12 10 40 43 33 34 39 39 46 50 49 88 83 83 63 47 8 2 2 3 3 2 3 3 3 3 3 5 7 13 18 15 14 17 19 26 31 32 31 29 27 24 9 18 14 10
26 18 15 11 11 31 39 40 37 38 40 41 38 55 65 92 98 78 56 19 3 2 1 2 2 2 3 3 4 7 12 15 21 24 21 19 24 26 28 38 40 39 34 28 23 23 17 20 14

GFSSGP_500_rhum_033.txt.gz
RH
68 82 88 92 97 97 96 96 93 83 84 80 65 89 93 87 87 86 82 94 82 57 29 13 14 14 25 12 8 12 13 16 16 17 15 14 15 35 30 33 43 47 43 40 41 39 42 49 58
66 80 90 97 97 97 96 97 98 75 74 73 75 83 76 72 77 82 86 84 70 51 34 14 13 19 26 13 7 10 14 16 20 24 18 19 18 23 25 18 33 38 32 28 34 41 48 55 66
64 82 91 99 96 97 96 97 77 70 69 71 72 66 58 63 70 82 83 70 49 34 20 19 15 24 26 10 8 12 14 17 23 23 23 20 21 23 25 25 16 18 20 35 48 52 33 22 25
57 91 88 99 96 97 79 81 81 66 71 75 70 70 53 59 69 69 76 67 37 22 12 14 17 23 22 8 12 17 17 19 33 40 30 21 22 26 20 13 21 28 45 48 20 15 9 11 36
58 84 84 98 97 82 76 76 73 73 78 76 68 61 53 48 54 54 82 54 25 22 17 20 21 24 21 8 20 24 23 34 48 45 33 25 24 26 19 20 28 42 29 14 22 20 9 10 44
84 77 78 70 79 92 65 84 70 65 71 65 71 65 58 49 45 54 60 32 18 16 16 21 22 22 22 9 28 35 40 27 27 40 37 44 37 20 26 35 39 20 15 21 20 10 7 8 40
87 87 96 90 97 74 68 71 70 53 65 56 54 61 56 47 47 45 35 31 17 13 14 17 23 23 22 10 34 34 21 20 28 28 29 26 30 38 33 16 13 10 7 7 5 5 5 6 30
97 89 94 80 82 99 97 63 52 44 96 39 48 59 46 47 48 37 33 23 19 14 15 20 28 26 19 15 33 16 13 19 21 32 34 30 17 10 8 7 7 7 5 5 5 9 5 6 9
79 92 93 87 74 90 88 72 83 34 21 38 34 36 38 45 48 42 31 15 14 14 15 20 28 27 16 25 22 8 8 13 28 34 33 23 18 12 16 12 11 4 5 8 7 8 6 7 8
67 92 97 99 98 91 98 95 75 26 14 21 24 27 28 37 55 48 23 13 14 12 15 18 25 21 14 28 12 5 5 6 27 76 76 40 18 26 11 8 48 11 41 64 12 9 6 7 8
68 97 90 73 99 98 85 55 86 19 15 10 13 21 29 40 54 42 13 10 13 11 14 18 22 15 20 24 7 5 5 12 61 56 48 27 21 20 21 12 14 19 38 40 18 6 5 5 6
50 76 94 79 47 66 94 98 92 15 51 4 7 19 30 33 45 39 16 11 12 13 14 16 24 21 24 14 6 8 6 8 23 60 60 30 32 16 29 32 31 64 64 45 34 38 13 11 4
42 72 93 82 66 47 45 62 63 54 48 2 3 9 12 14 33 35 23 14 9 12 14 12 22 21 21 9 12 23 18 14 12 14 64 39 37 26 42 33 47 38 39 56 38 59 48 15 8
60 66 86 98 96 89 69 56 35 21 26 13 4 3 2 6 30 41 31 28 13 10 13 9 20 17 12 6 26 29 25 18 13 10 28 39 30 24 40 37 47 35 24 28 30 33 35 18 15
48 91 52 92 97 100 90 94 48 34 74 38 21 5 3 2 10 29 33 30 28 11 12 5 13 14 12 10 19 22 26 16 10 22 25 26 27 34 21 34 46 49 40 28 25 24 22 26 25
38 36 69 55 82 75 98 95 64 56 64 58 29 30 6 3 7 18 28 30 31 14 13 4 9 18 22 20 33 26 21 12 18 24 24 21 26 38 49 34 39 42 34 17 15 16 20 20 28
13 17 21 59 83 98 83 92 97 99 70 93 74 34 22 13 3 3 21 29 29 18 12 4 9 17 30 33 34 27 22 18 22 23 23 24 23 23 47 50 50 33 29 16 17 28 30 21 21
6 9 15 42 41 91 78 75 92 99 96 86 95 47 50 26 7 4 3 15 19 16 9 5 14 24 32 34 30 18 19 22 24 26 27 28 20 19 56 34 51 31 30 17 20 17 30 33 27
6 15 16 17 52 93 63 63 90 86 71 73 95 68 93 37 14 7 4 4 8 15 11 10 4 25 40 41 29 10 8 12 21 24 21 15 9 28 51 26 38 52 23 17 22 17 20 31 32
2 9 11 21 37 95 58 100 97 94 57 77 80 84 72 38 22 9 5 4 7 13 12 9 4 4 24 19 13 9 12 14 17 17 12 7 11 63 38 27 32 53 53 14 11 12 14 15 20
2 2 5 9 46 91 95 94 95 98 75 66 81 90 79 81 28 9 5 6 6 10 12 8 6 4 12 13 8 6 5 7 13 12 10 5 9 47 37 19 31 18 30 25 13 13 13 17 18
2 2 2 8 73 87 95 95 100 98 84 80 58 76 48 56 39 8 7 6 7 9 10 9 7 4 6 11 11 6 4 5 4 6 6 7 13 35 23 29 18 15 24 19 14 9 13 18 18
2 2 2 4 54 81 86 96 68 97 97 80 71 77 39 55 46 24 7 9 8 8 11 6 4 4 6 7 7 5 4 4 4 4 5 12 14 12 12 23 16 14 14 20 10 10 10 14 18
4 4 4 4 29 59 62 79 76 71 73 76 82 58 64 57 51 51 9 9 9 7 10 5 4 3 5 5 3 2 3 5 6 8 7 12 12 14 13 12 13 16 10 10 13 14 8 11 18
3 7 7 6 21 7 41 65 48 74 66 69 82 86 84 44 54 71 37 12 9 6 8 9 11 6 3 2 2 2 4 5 8 10 10 13 14 15 14 13 14 13 10 11 10 5 7 8 14
4 3 2 3 3 4 15 11 14 52 76 83 79 91 95 88 49 29 40 9 8 8 4 5 8 10 4 3 2 3 11 7 11 10 11 12 12 11 10 9 9 8 11 11 12 12 7 6 9
9 5 6 8 8 13 7 5 16 25 52 78 91 97 96 77 60 31 43 22 6 8 5 3 2 4 4 5 3 12 10 8 9 10 9 7 6 5 5 5 7 9 10 12 10 13 15 8 8
12 30 13 11 17 15 10 8 8 10 19 45 61 97 94 87 51 45 38 34 6 5 6 3 2 4 4 5 11 10 6 5 4 3 2 2 4 6 7 10 10 9 10 12 16 12 15 16 8
27 44 27 18 15 21 20 22 26 32 34 26 32 75 87 85 67 34 38 64 48 4 5 3 2 1 2 3 8 5 4 2 2 6 15 15 13 13 18 17 24 26 26 24 25 24 19 15 16
43 28 21 19 11 8 21 34 48 40 35 40 43 37 84 88 86 39 34 56 69 4 2 3 3 2 3 4 4 3 2 4 8 18 20 19 11 14 21 18 20 21 26 28 28 18 15 18 17

GFSSGP_500_rhum_036.txt.gz
RH
74 81 83 90 98 90 85 93 87 95 92 78 74 93 88 84 74 75 82 76 61 36 21 23 22 24 14 11 10 14 13 14 15 14 13 20 35 33 40 46 37 33 37 42 40 41 44 54 70
68 78 78 83 96 100 95 98 97 90 78 72 78 72 63 69 72 80 76 73 58 34 17 15 21 27 18 8 9 12 15 20 22 16 16 15 24 35 30 38 40 33 28 33 42 48 46 44 37
60 85 92 92 84 89 95 90 76 71 67 61 63 62 54 57 71 75 72 62 36 27 18 16 25 27 14 7 12 13 19 26 23 23 23 26 27 26 21 15 24 20 39 49 28 9 8 19 34
66 80 79 90 84 78 87 84 85 82 72 70 63 58 52 56 61 66 75 51 27 15 15 16 22 26 8 14 17 17 22 28 35 28 19 17 18 20 18 22 27 45 32 14 13 7 18 70 78
52 80 100 98 94 74 74 79 80 81 75 74 67 61 55 51 52 48 73 38 24 16 17 18 23 23 8 24 24 23 29 37 38 31 22 22 24 18 20 33 41 16 20 20 10 6 27 65 78
64 74 92 98 79 76 74 90 81 89 77 75 67 65 63 53 48 55 57 30 19 18 23 23 25 21 9 31 27 26 22 35 41 35 32 25 17 21 33 28 14 16 13 8 6 7 20 59 72
69 78 77 79 91 77 79 79 71 88 85 71 63 61 55 50 49 45 34 31 18 14 19 21 22 20 12 33 13 15 32 40 38 36 28 23 33 27 14 10 7 5 4 5 6 6 12 37 37
73 79 96 97 97 90 78 78 71 73 87 51 42 48 39 49 52 41 33 26 18 14 16 24 24 19 19 22 9 22 26 30 33 33 33 26 12 7 6 7 5 4 5 13 9 6 9 16 28
73 79 76 95 95 93 88 82 79 79 56 56 51 45 36 43 50 41 33 14 17 16 20 29 25 16 23 9 11 18 24 30 29 14 10 7 9 12 10 8 8 29 14 8 6 8 9 10 12
80 94 80 88 97 92 97 97 90 55 20 42 34 21 26 41 58 50 22 18 14 15 19 25 25 16 21 6 7 17 29 38 32 44 22 20 18 9 24 16 18 41 36 10 10 7 11 9 10
68 70 76 96 81 74 95 94 93 39 16 13 14 21 35 45 62 42 12 10 16 15 16 23 21 16 16 5 4 7 35 59 62 30 18 14 30 12 23 33 58 54 44 26 8 5 6 6 8
68 76 63 70 94 100 78 50 48 53 12 3 18 28 42 51 50 29 12 12 17 14 15 22 15 20 12 5 5 11 47 56 58 42 30 16 20 31 41 55 51 49 62 46 33 17 10 5 6
51 75 72 60 40 43 76 51 51 60 10 3 4 22 28 42 47 25 14 12 14 14 14 24 20 22 8 6 5 7 12 16 32 61 40 23 28 50 54 49 36 27 31 31 52 41 27 12 5
65 72 76 60 44 60 48 53 45 42 47 15 5 4 7 25 46 32 30 12 11 15 12 23 21 21 6 15 17 12 14 12 15 35 38 22 32 32 34 58 40 32 29 25 32 26 24 19 13
45 63 53 54 66 90 69 41 52 60 79 54 30 8 4 9 40 40 34 27 13 14 12 18 21 16 8 27 27 22 18 9 21 26 23 25 33 42 37 46 40 39 21 17 24 18 22 28 26
18 25 21 47 90 88 95 76 44 47 67 58 40 21 8 5 7 26 36 34 26 12 14 11 19 12 8 22 23 25 15 16 24 21 18 31 34 37 39 33 27 24 20 30 37 19 19 20 25
17 8 12 23 81 98 66 96 42 49 55 70 59 37 22 9 5 7 34 35 32 15 14 8 13 16 13 29 24 16 13 20 20 21 20 23 30 46 44 40 28 24 20 22 27 36 25 18 25
6 5 7 20 48 62 80 94 77 41 32 55 79 67 35 24 6 4 16 34 34 21 14 6 15 28 23 33 25 21 18 23 23 24 24 16 28 33 34 55 38 20 19 26 20 33 32 27 31
11 8 7 18 40 50 91 99 97 62 33 50 59 87 76 32 10 6 4 21 25 25 12 6 11 20 31 35 24 20 21 22 23 23 22 9 33 33 26 42 48 35 12 20 16 16 24 29 30
3 6 5 36 29 40 84 94 88 43 40 54 79 44 78 65 27 6 4 6 15 23 14 7 18 31 38 34 16 8 13 19 20 11 7 8 49 35 22 37 34 33 17 31 13 14 14 17 26
2 2 4 12 44 37 94 95 99 63 76 81 83 60 83 83 48 7 3 4 6 15 15 12 4 29 40 30 11 9 13 15 15 9 6 7 45 47 21 26 21 26 23 11 9 12 14 14 15
2 2 4 12 36 28 85 99 91 96 80 62 90 74 67 79 67 29 3 5 5 10 11 10 5 5 22 14 10 8 9 11 11 10 7 6 20 48 24 24 15 13 20 17 10 12 17 21 21
3 3 3 6 33 35 62 86 93 78 71 50 71 72 58 67 71 48 7 5 6 7 10 9 8 5 9 14 10 6 5 5 5 6 4 10 16 16 13 27 14 12 16 18 14 11 14 19 21
5 4 3 6 43 66 49 60 73 56 58 52 82 43 58 64 90 61 13 8 7 7 9 9 8 6 5 7 12 7 5 4 4 5 5 12 13 12 11 15 12 12 11 12 6 11 9 16 22
8 6 5 12 49 35 23 69 28 42 64 74 71 35 48 61 77 80 41 16 10 7 9 8 5 5 5 8 7 4 3 4 5 7 8 11 12 16 12 11 14 11 12 11 12 9 6 12 19
12 6 3 3 7 8 8 28 15 56 70 76 67 65 73 68 74 90 63 19 9 8 9 8 8 5 4 5 4 2 2 4 6 9 10 12 14 14 12 11 10 9 10 12 12 14 13 9 13
26 7 6 5 7 4 6 9 28 45 49 38 58 85 76 66 68 82 69 37 9 8 7 7 8 12 8 3 2 1 3 6 13 12 10 12 12 11 10 7 6 8 10 11 12 13 15 15 10
14 14 9 7 7 7 4 4 4 28 21 30 43 55 33 61 70 79 66 60 19 8 7 4 4 7 8 4 3 4 15 12 10 9 9 8 5 3 2 3 6 9 9 10 10 20 15 16 16
23 23 19 23 10 8 4 2 4 11 25 40 49 48 44 63 82 77 53 70 55 7 7 4 3 2 4 4 4 15 8 7 6 5 3 2 10 15 13 14 15 17 19 19 26 25 24 19 17
62 24 34 21 10 8 6 11 17 25 23 28 46 69 36 55 70 53 47 73 69 14 5 5 3 2 5 4 5 9 6 5 4 3 8 18 17 10 9 13 17 28 33 32 31 29 29 22 17

GFSSGP_500_rhum_042.txt.gz
RH
75 70 75 88 93 77 62 79 89 96 94 87 89 72 75 65 70 80 79 65 43 40 40 38 28 14 14 14 19 17 15 12 14 30 38 43 48 39 37 31 31 33 37 44 60 65 56 62 75
83 86 94 96 95 91 90 88 95 97 86 88 71 60 69 64 74 69 69 72 38 21 29 29 26 18 12 19 15 14 14 16 15 22 39 37 43 48 40 32 25 39 57 35 34 12 17 30 43
59 80 99 96 98 91 94 98 98 96 84 78 63 60 66 72 70 62 63 50 36 18 24 27 25 11 14 12 14 16 18 15 16 23 27 31 28 18 25 23 44 25 14 10 12 39 59 63 58
62 82 93 97 96 95 96 98 100 94 90 89 82 63 68 62 62 53 58 37 27 18 18 27 21 9 13 15 20 25 22 21 19 24 30 34 23 21 28 42 19 21 7 10 60 73 78 85 54
65 81 99 76 81 91 90 88 86 91 96 82 78 70 62 60 57 62 48 32 18 18 18 27 20 12 16 17 24 32 31 26 15 20 34 17 25 37 38 19 23 8 6 17 60 73 70 67 66
55 74 99 84 97 100 93 94 94 95 94 87 75 67 62 53 56 67 40 26 17 18 20 27 13 17 20 21 31 33 31 26 24 24 19 23 35 35 18 18 7 5 6 12 40 54 73 83 96
49 56 79 86 92 88 84 89 89 96 94 80 69 66 55 46 61 63 34 25 19 21 23 27 11 27 26 29 25 30 28 27 30 21 24 35 26 13 8 6 5 9 6 13 25 31 38 54 69
38 65 96 86 90 100 96 98 98 97 90 79 53 56 42 39 55 59 34 26 17 22 23 24 12 31 27 19 24 34 39 26 24 35 26 11 8 26 12 7 12 6 8 11 30 34 36 54 67
44 76 97 93 92 93 98 91 87 91 82 43 45 40 36 42 40 42 35 21 15 19 21 25 14 33 12 27 29 26 27 28 20 10 7 9 10 12 25 56 23 11 9 17 20 16 24 30 53
71 82 96 78 91 91 97 95 91 93 69 47 32 31 35 48 41 38 26 22 17 20 29 25 18 18 21 28 30 31 25 12 7 14 10 14 13 14 26 46 32 14 10 16 9 14 13 7 20
77 82 84 66 81 95 98 96 92 76 50 34 14 33 39 54 50 32 15 18 16 22 29 23 22 10 20 29 26 15 15 15 25 12 10 13 24 50 65 60 46 35 25 10 13 6 9 8 7
50 71 88 67 88 100 79 85 60 22 16 10 15 29 38 34 40 20 13 17 18 20 27 21 23 9 22 30 25 53 24 18 16 28 20 34 50 48 39 40 55 46 50 29 16 9 5 8 9
56 62 92 80 87 66 59 70 37 17 2 7 15 23 30 25 31 15 12 15 16 19 26 20 20 9 29 60 60 59 27 23 18 23 35 51 56 58 36 30 36 30 38 49 29 14 7 5 7
95 78 69 79 90 82 54 31 16 7 2 3 7 8 10 30 19 13 14 17 16 19 17 18 17 5 27 56 54 64 50 41 30 32 46 42 61 67 47 34 20 21 32 30 32 23 18 12 4
84 92 35 64 83 94 62 37 26 8 8 6 2 4 6 31 23 18 13 14 16 18 19 19 17 4 12 42 42 56 52 41 32 28 42 56 49 47 41 36 40 40 44 22 25 27 24 22 12
50 50 20 59 61 78 62 45 33 18 21 18 10 4 4 11 24 28 19 13 15 15 22 22 17 5 8 15 11 23 35 33 30 37 44 50 56 43 35 34 28 31 40 24 16 22 26 27 19
34 42 23 48 53 66 59 51 37 40 53 26 18 11 7 5 12 34 31 27 13 14 19 23 15 6 8 9 11 20 25 24 26 31 33 47 49 38 41 42 39 35 35 30 21 20 26 30 23
33 26 28 42 58 60 79 72 43 48 66 28 31 27 23 9 5 12 29 31 27 14 12 21 14 9 23 15 12 21 21 19 24 24 28 41 43 52 48 47 37 36 24 29 25 28 31 30 27
7 28 33 52 60 59 68 91 59 40 70 49 50 32 34 34 15 6 6 22 28 18 9 19 11 18 27 22 15 22 19 19 22 18 24 40 34 48 45 40 40 28 15 21 26 28 25 22 21
3 6 30 42 48 44 68 80 79 38 59 66 56 49 65 36 37 12 6 7 23 25 13 11 11 16 25 23 13 19 19 22 22 17 16 50 31 41 29 26 28 43 15 14 16 21 23 19 16
6 2 14 43 67 93 64 72 80 55 43 40 48 55 65 61 59 24 6 4 15 20 14 6 14 15 31 13 15 21 22 23 23 13 11 54 31 26 22 27 33 19 25 14 16 16 16 15 15
9 6 4 30 73 76 88 35 51 49 52 34 41 43 69 60 71 35 8 4 6 22 14 9 23 19 26 15 20 24 23 18 13 7 10 50 42 24 16 11 19 18 14 10 13 14 19 22 26
17 10 5 5 43 80 61 75 18 19 24 35 37 50 68 65 75 67 14 4 4 13 14 8 12 28 26 19 21 18 17 16 13 7 7 22 48 24 20 14 11 11 24 12 6 8 9 10 14
45 18 7 6 15 45 40 56 12 11 14 28 66 62 72 68 65 73 53 6 4 5 12 10 9 16 30 18 11 10 15 14 11 10 6 12 25 15 20 14 13 11 12 12 11 8 7 8 12
50 28 14 6 9 2 14 39 2 7 35 50 64 74 70 75 64 79 68 22 6 4 10 9 10 24 35 28 10 8 13 10 7 6 5 11 14 10 9 13 16 12 12 13 14 15 14 10 8
46 34 19 8 4 3 6 6 4 7 12 57 73 76 72 88 76 78 77 24 8 6 8 12 10 6 21 34 15 9 6 6 5 5 4 11 12 14 10 13 13 11 10 10 13 14 15 17 14
57 48 29 20 7 3 3 4 6 6 12 49 70 79 62 66 80 79 84 33 10 8 8 11 11 9 4 14 16 10 6 5 4 5 6 11 12 13 14 12 12 11 9 9 10 11 12 15 18
38 61 56 26 14 5 3 2 2 3 7 29 69 71 58 64 60 90 89 69 14 10 8 11 10 8 9 6 13 12 12 6 4 6 9 8 12 13 12 11 10 9 6 7 9 10 12 18 15
38 62 55 42 22 8 4 3 3 3 4 9 40 63 64 64 64 84 88 95 60 12 9 9 10 7 5 5 6 8 8 5 3 6 10 11 12 12 11 10 6 4 4 6 9 9 18 26 24
62 52 59 50 21 13 10 4 3 4 4 11 25 60 68 60 60 83 92 92 99 29 10 9 10 5 4 5 4 8 5 2 3 7 13 11 12 10 4 4 5 8 8 14 17 16 26 30 33

GFSSGP_500_rhum_045.txt.gz
RH
69 51 61 80 78 78 83 84 90 87 79 80 83 82 74 74 78 75 67 56 37 54 47 39 28 18 15 15 16 17 14 17 31 47 50 48 43 42 44 33 38 40 48 57 62 63 54 64 74
81 83 93 92 97 94 76 75 87 96 85 83 79 74 66 63 71 65 66 52 26 39 33 30 29 14 22 17 15 15 12 30 45 50 43 54 39 36 41 38 54 56 26 14 15 15 16 31 47
74 77 92 100 95 90 96 88 95 98 89 75 66 62 60 66 71 64 60 39 25 24 27 29 27 16 22 15 15 18 18 25 25 40 43 40 48 44 45 47 23 13 9 57 74 77 72 49 73
61 79 92 97 92 93 96 98 98 93 94 92 70 70 62 64 62 56 44 34 20 19 28 30 16 16 16 17 20 19 16 18 28 36 34 41 29 35 28 16 10 6 32 63 71 81 86 64 90
64 83 98 87 95 96 93 96 93 93 92 96 75 72 66 60 58 54 35 25 17 18 28 28 15 14 15 24 25 23 23 31 31 32 26 24 36 20 17 9 5 6 30 62 61 62 65 60 83
60 77 79 67 86 93 90 86 90 93 97 90 82 67 59 48 56 51 31 21 15 18 26 25 13 22 19 26 32 34 28 17 24 23 20 36 21 14 6 4 6 7 17 36 74 81 94 94 66
49 58 62 84 99 91 98 95 95 98 96 88 79 66 49 45 55 40 32 20 18 20 25 16 16 27 27 28 29 30 30 23 17 20 33 22 10 6 5 8 7 9 24 32 42 61 82 75 61
36 43 66 97 93 95 95 95 97 96 90 78 69 56 37 34 41 37 34 19 19 23 24 15 20 29 28 26 30 27 28 27 21 31 17 8 16 8 8 14 7 8 23 27 29 40 73 70 67
36 44 66 98 95 96 99 98 97 95 93 82 57 34 34 33 28 38 27 18 17 21 21 16 22 21 21 28 39 38 28 29 22 10 9 13 10 20 43 18 8 11 18 28 23 22 41 53 57
46 56 74 80 88 95 94 88 88 93 86 63 42 26 24 35 32 34 21 17 17 20 25 16 25 13 27 28 32 32 26 11 7 9 11 12 18 25 42 35 12 16 31 27 18 11 8 32 27
49 75 74 77 73 91 91 95 91 95 93 56 36 14 22 34 39 23 19 16 15 26 26 17 22 20 28 26 25 15 7 16 12 10 14 25 44 55 54 39 29 14 7 9 7 8 9 7 8
56 79 62 48 54 83 84 87 87 96 87 51 18 18 22 32 37 15 15 18 18 25 25 18 16 23 30 22 11 9 20 17 19 15 33 53 49 38 42 47 36 37 25 13 9 6 8 9 6
59 72 59 76 87 90 69 78 92 75 26 14 11 17 28 25 29 12 14 15 18 24 25 19 12 21 27 20 41 17 15 22 24 31 51 59 66 40 36 40 31 36 38 23 12 5 5 8 8
50 53 57 77 82 81 62 68 49 19 4 9 5 10 24 28 16 11 17 18 18 24 24 18 11 24 32 50 40 22 20 20 30 44 42 55 58 46 34 41 23 34 32 29 21 15 6 5 7
40 42 62 85 82 84 66 77 37 13 2 4 4 3 10 31 16 12 15 17 18 22 21 17 11 32 59 55 51 35 37 28 34 38 47 54 46 42 38 44 55 31 22 24 24 23 17 8 4
39 24 33 69 85 89 90 58 20 7 8 4 3 3 13 22 16 15 13 13 16 20 16 17 6 24 53 51 54 39 32 21 35 42 53 49 47 36 44 43 38 39 13 16 23 25 23 16 6
43 23 26 58 86 86 97 73 44 28 18 14 7 4 5 18 20 17 13 13 15 21 19 20 4 6 33 20 28 32 21 25 34 42 44 45 49 58 46 44 36 28 20 16 18 24 26 21 15
25 40 24 31 60 81 90 84 64 40 27 25 12 7 4 12 23 24 22 13 14 17 22 20 5 5 19 11 13 26 23 28 30 34 37 41 46 53 45 38 21 33 26 18 24 27 27 22 17
5 24 36 37 52 71 99 84 67 58 40 36 20 20 11 4 6 19 28 26 14 11 20 20 7 6 7 13 12 26 20 24 23 30 30 43 35 38 42 32 19 21 25 26 26 23 20 20 18
4 6 24 54 33 45 73 73 92 70 59 48 26 30 26 14 8 5 20 27 25 13 14 20 8 12 22 15 13 24 19 21 21 26 28 34 28 24 25 39 28 16 17 20 19 19 18 17 15
8 3 12 58 52 39 54 78 73 86 74 42 38 29 26 31 15 7 5 21 25 16 11 19 11 14 25 19 14 20 22 25 22 19 33 27 25 23 28 25 24 10 33 27 21 15 14 15 14
17 8 4 37 62 60 52 48 67 80 83 44 44 46 45 43 27 12 6 6 23 18 11 14 12 16 26 21 14 20 26 26 18 14 41 27 21 16 15 20 32 18 14 22 15 19 24 27 29
33 16 7 9 51 63 42 29 51 77 78 66 52 51 60 59 42 22 5 4 13 19 10 8 13 15 28 17 13 22 26 21 14 8 45 37 23 17 13 13 20 32 27 14 11 13 12 16 31
48 34 17 8 8 46 35 30 15 38 72 88 73 54 70 65 55 38 11 4 4 15 10 7 13 15 23 26 17 23 22 19 14 7 19 46 27 24 14 10 12 13 12 11 8 20 12 10 12
31 46 35 18 7 2 11 24 4 28 40 59 60 67 73 69 55 38 17 5 4 7 10 7 14 24 24 27 21 20 17 17 13 9 6 18 29 17 17 19 12 12 13 14 15 16 17 7 9
24 52 46 25 11 5 5 4 3 17 22 28 42 75 92 79 61 49 30 5 5 4 12 9 9 19 26 28 25 15 11 15 12 8 7 11 20 10 10 12 13 11 10 12 12 14 17 15 8
25 24 47 50 21 10 5 4 5 12 38 30 47 80 94 84 67 58 44 15 4 4 8 12 10 13 22 32 32 17 10 13 8 6 6 9 11 12 10 12 12 11 9 10 10 10 13 17 16
38 30 59 63 38 13 9 5 3 5 16 28 58 75 94 95 81 62 44 35 6 4 6 11 11 11 21 37 36 21 10 9 6 5 5 9 12 12 12 12 12 11 8 7 9 10 10 17 18
24 61 53 60 45 26 16 8 4 3 8 34 53 75 89 84 93 73 54 46 8 6 6 10 10 10 11 20 30 16 9 7 6 4 5 6 11 12 12 11 11 11 6 4 6 9 10 24 24
11 31 45 70 45 35 28 13 7 4 4 18 48 90 89 90 86 84 63 50 23 10 7 8 10 8 8 6 14 18 11 9 6 4 5 8 9 12 12 11 10 6 4 5 8 14 13 28 31

GFSSGP_500_rhum_048.txt.gz
RH
35 43 50 60 69 79 76 80 89 93 80 86 86 85 83 77 76 68 59 37 66 49 43 30 30 17 18 15 15 13 20 32 43 40 55 48 43 37 32 36 47 53 63 70 70 67 59 64 69
65 81 97 94 96 95 74 87 95 90 85 86 77 80 69 72 74 66 54 33 38 40 34 30 23 16 20 15 20 18 25 42 49 51 48 36 35 52 46 48 53 22 18 15 17 17 23 51 68
78 86 98 97 97 93 95 76 96 94 95 82 76 79 70 74 73 72 47 27 23 31 29 31 17 24 14 15 16 14 30 37 51 45 55 47 44 50 56 28 13 25 72 80 82 70 58 43 84
53 78 97 90 89 92 89 88 78 96 93 74 70 73 72 72 72 73 40 21 23 28 28 22 14 19 16 26 18 26 28 30 41 43 37 44 40 41 18 10 14 56 69 64 80 81 67 89 68
60 84 98 99 89 93 95 98 93 97 96 78 75 62 67 65 68 61 33 19 18 26 31 18 19 17 26 27 21 21 20 25 36 37 39 45 40 19 9 6 13 44 70 60 64 49 70 82 62
55 75 88 78 88 86 92 95 95 95 94 96 75 76 66 54 60 47 28 17 18 23 27 21 26 20 30 27 29 25 31 36 38 26 36 31 16 8 6 7 15 29 61 81 81 87 62 48 40
46 64 57 69 83 84 92 90 94 94 97 96 92 70 55 49 56 34 25 16 17 23 25 14 22 25 32 31 39 34 19 27 30 40 31 15 6 5 7 7 18 32 41 62 74 81 80 46 39
33 44 58 78 98 94 88 87 98 97 92 91 78 62 45 41 45 34 25 18 20 23 25 10 27 28 29 31 35 28 22 28 31 31 13 6 8 8 8 9 17 21 27 33 56 68 63 70 69
36 35 61 81 87 89 86 89 92 96 96 79 72 51 39 40 34 34 22 18 21 24 22 12 31 25 34 36 28 32 26 26 25 8 16 21 18 23 12 8 15 30 30 19 32 48 52 55 57
37 32 55 89 95 93 92 98 98 92 92 78 64 40 27 43 28 29 19 15 17 20 22 14 23 30 34 41 31 24 34 17 7 9 10 19 42 45 24 13 30 30 22 17 15 16 27 35 37
40 34 51 78 90 90 86 93 84 97 96 77 52 30 22 38 34 23 19 15 14 22 22 18 15 27 38 38 38 23 8 8 10 13 16 21 40 44 47 20 7 7 8 8 8 7 9 13 31
46 45 62 84 86 71 85 91 84 100 96 81 48 23 26 30 36 20 17 16 19 26 21 19 22 26 23 24 14 7 15 10 13 27 48 56 42 42 39 31 26 20 9 5 7 8 7 8 23
49 57 69 71 86 58 78 81 99 100 93 89 46 16 25 31 33 16 13 13 20 28 20 16 24 26 24 13 8 18 17 20 27 44 50 53 34 37 48 46 37 32 17 10 4 6 8 6 8
42 47 59 55 89 86 86 96 100 95 83 52 21 15 25 36 27 13 13 15 16 27 19 14 23 22 13 15 13 14 21 25 43 45 58 62 39 43 43 28 26 30 21 15 9 4 5 7 5
34 40 46 54 87 82 75 75 91 68 19 12 13 13 21 28 17 12 11 14 15 26 19 12 21 23 27 36 19 20 20 34 39 40 41 37 45 76 67 55 47 28 26 23 18 12 4 6 7
42 31 40 54 81 85 73 92 63 37 5 6 10 10 18 26 15 12 12 11 14 25 18 10 24 34 46 51 26 32 24 33 36 40 32 30 36 62 59 47 37 20 23 25 22 17 10 4 6
26 34 35 42 84 84 87 87 55 14 8 4 4 4 9 22 14 13 13 11 16 19 18 8 28 55 51 53 49 37 19 32 38 36 33 42 43 46 42 38 42 21 18 19 23 23 17 9 4
3 29 40 33 71 89 92 93 62 24 18 12 6 3 8 18 18 14 13 12 15 16 18 5 22 54 44 47 39 32 21 33 37 36 37 45 40 32 29 60 45 36 33 25 26 23 18 14 10
5 4 37 47 73 100 100 98 72 65 43 24 11 5 8 14 19 18 16 14 13 18 18 7 6 22 38 13 23 26 25 31 33 36 34 36 38 30 30 42 39 32 34 26 25 19 16 15 12
11 4 8 43 48 73 100 93 90 82 74 54 32 17 11 4 12 20 18 16 14 16 21 16 4 7 26 12 14 22 22 24 30 32 35 28 33 35 47 16 16 35 38 31 28 18 17 17 12
19 9 4 39 45 53 87 86 95 80 80 71 56 27 20 5 4 8 18 24 14 12 18 19 6 5 7 10 12 19 20 20 25 29 32 22 21 26 31 20 50 36 31 17 16 13 12 11 11
21 19 5 7 26 47 70 81 78 75 83 80 68 46 24 16 13 4 3 18 27 13 11 20 10 8 17 12 12 18 21 20 20 28 28 20 23 23 26 47 24 26 33 25 23 22 22 21 20
8 29 14 4 11 54 56 60 98 84 84 80 72 65 46 30 37 16 5 4 20 20 10 19 14 9 22 14 14 18 21 19 14 32 25 19 13 11 16 60 32 40 16 15 25 18 19 28 23
7 21 34 12 5 23 24 45 47 94 74 76 85 76 62 50 52 35 10 3 6 14 10 15 16 11 26 21 15 18 21 21 16 15 40 21 16 12 10 27 26 17 13 15 36 18 8 8 10
10 8 38 35 11 4 10 17 20 64 89 74 90 66 68 74 64 55 44 13 3 8 9 10 14 10 24 23 13 18 20 20 15 7 33 39 24 17 10 12 14 19 14 17 35 29 25 7 6
9 12 16 43 30 10 6 6 6 23 25 59 96 70 77 87 76 62 54 32 5 3 10 7 11 13 20 28 16 15 20 19 16 8 7 24 36 20 16 14 12 12 14 14 15 23 19 18 6
9 16 9 38 77 36 40 6 6 11 21 42 82 83 69 59 86 71 60 37 5 3 5 10 8 12 17 19 23 19 19 17 15 9 7 5 22 13 13 13 12 11 10 10 10 12 16 17 10
12 14 37 35 60 31 53 24 27 4 10 28 79 93 82 61 96 78 66 46 26 6 3 8 8 10 23 26 24 18 17 13 14 9 7 5 10 12 10 11 13 11 9 8 8 9 12 17 18
10 14 60 85 39 31 40 37 30 10 3 23 42 58 58 61 93 82 75 67 56 18 4 4 8 8 19 25 23 18 15 9 13 8 5 4 7 12 13 13 13 12 11 5 5 8 10 19 20
9 9 17 88 50 17 70 87 80 19 6 5 41 36 42 66 95 93 87 82 65 45 7 3 7 7 11 15 26 24 16 8 10 7 5 4 6 11 12 12 13 11 11 5 5 10 11 19 26

GFSSGP_500_rhum_051.txt.gz
RH
24 44 57 59 69 74 73 77 97 90 86 82 87 83 88 81 75 73 49 52 94 52 36 27 22 14 13 14 14 21 32 37 41 47 48 44 37 32 31 42 49 57 68 66 70 64 56 58 61
45 68 84 89 96 87 75 90 98 99 87 86 87 78 86 86 78 64 41 37 49 42 32 26 15 20 16 14 15 23 40 40 44 46 35 38 49 43 53 38 17 26 20 24 22 24 54 63 74
73 92 99 92 89 97 94 90 99 97 93 90 85 75 77 78 78 66 45 23 40 33 28 22 19 24 13 19 17 31 39 45 52 45 37 41 50 53 20 12 30 73 82 86 85 49 30 45 60
64 86 94 99 97 95 96 84 98 94 95 80 68 72 76 73 73 66 38 18 26 27 27 14 21 16 15 17 14 22 29 45 40 38 51 43 39 20 6 18 60 67 66 78 78 60 68 73 94
68 86 88 93 93 98 96 95 92 97 92 69 61 72 77 76 62 64 36 17 20 25 25 11 19 18 25 17 19 23 31 36 37 36 33 41 22 8 7 25 54 72 67 61 67 78 80 44 26
62 86 88 80 91 85 99 93 86 97 94 78 66 67 67 61 60 50 32 16 17 25 26 20 25 23 31 21 20 19 27 33 38 39 44 26 17 8 8 24 38 74 78 84 70 74 51 30 36
54 78 63 92 96 84 90 97 99 98 97 93 83 84 67 51 58 38 25 15 17 24 25 18 25 33 25 30 30 28 35 45 28 42 23 23 5 6 8 24 36 52 63 65 70 50 38 28 25
32 57 59 87 100 98 93 93 94 100 96 93 94 70 55 49 51 32 22 16 18 24 19 16 26 31 28 34 36 21 28 34 40 33 16 4 6 7 11 22 26 29 42 57 60 60 68 56 29
30 42 60 98 100 95 90 83 84 90 96 91 69 62 51 44 42 32 21 18 20 24 18 19 26 26 28 29 38 21 26 40 29 12 12 12 14 15 15 19 30 24 19 41 47 46 46 53 54
31 39 90 97 81 89 84 86 92 83 84 76 64 49 37 42 39 32 19 17 20 21 17 24 23 38 29 25 35 28 34 28 8 16 17 46 52 22 12 28 28 19 16 13 27 29 62 76 37
29 38 40 52 75 79 83 82 98 94 84 83 58 46 36 35 42 32 18 14 16 16 17 26 19 38 33 29 36 30 23 7 9 10 17 23 38 48 26 18 9 9 8 8 6 68 22 90 31
33 39 43 40 69 78 77 79 72 74 93 89 70 47 32 25 38 32 18 15 14 18 17 19 25 39 38 40 32 12 8 9 15 26 54 49 43 48 31 28 16 12 6 7 11 6 20 23 23
34 41 43 61 74 73 62 84 94 91 77 94 73 47 23 25 30 31 18 14 18 20 17 17 26 27 29 23 8 10 9 16 33 50 39 34 34 38 43 38 38 20 10 5 7 7 6 16 19
27 34 41 64 66 64 68 76 89 93 96 84 86 53 21 28 36 25 16 13 21 22 15 20 26 22 15 8 12 16 20 29 45 52 52 37 39 44 43 30 34 27 28 9 5 7 6 6 13
38 32 37 54 63 76 75 93 99 95 90 84 58 43 18 27 38 22 14 13 17 22 13 21 26 17 7 11 14 20 25 41 44 48 47 41 65 58 39 38 36 25 24 17 8 4 7 6 6
29 41 38 43 54 85 74 82 60 83 58 21 10 15 18 31 34 21 13 11 13 21 12 18 20 13 26 16 17 20 32 38 43 39 33 37 68 56 49 36 26 23 23 22 17 7 4 7 6
6 28 44 48 43 71 66 97 82 55 32 6 6 10 13 22 27 16 12 12 12 20 13 15 20 22 41 38 24 26 32 39 34 32 30 40 48 47 46 35 20 19 22 23 20 14 5 5 7
3 6 39 48 41 69 63 93 97 57 19 34 7 6 9 13 24 13 14 13 10 17 14 15 26 38 46 42 36 31 31 38 35 39 44 42 31 30 55 30 20 17 21 40 27 18 12 5 4
16 19 22 76 74 47 75 96 97 65 18 42 10 4 5 18 18 14 13 14 11 15 15 12 30 48 45 44 33 21 32 38 41 42 46 38 26 44 55 33 34 32 25 26 21 16 13 11 9
19 10 20 64 84 42 75 88 90 95 50 48 26 11 6 8 15 13 14 14 12 15 16 5 27 50 25 29 25 19 30 32 38 38 38 38 21 34 26 27 34 28 23 20 17 17 15 10 8
13 21 7 16 55 45 48 89 63 98 63 55 47 33 27 14 12 15 16 15 14 12 17 10 6 33 31 10 19 19 27 27 31 33 31 34 40 23 17 41 33 26 28 21 11 10 9 9 8
6 26 21 6 16 31 60 71 88 48 90 60 56 57 49 21 8 6 12 16 15 12 14 18 4 6 19 10 13 18 23 23 26 32 22 22 24 21 41 41 31 22 16 17 19 15 15 16 16
6 14 28 20 6 5 63 80 98 62 74 73 58 59 54 38 21 6 6 12 18 13 10 18 8 4 5 6 10 16 20 20 26 31 24 25 23 27 50 18 44 29 18 20 21 16 21 24 17
9 10 12 23 18 6 7 73 87 97 89 94 64 61 56 52 38 25 14 5 5 13 9 10 16 7 8 15 11 13 16 18 20 31 24 17 13 15 48 27 26 15 14 39 19 6 5 9 12
7 9 11 26 27 16 6 12 46 95 82 98 90 60 58 58 59 42 45 31 3 4 11 7 15 10 9 22 12 13 14 18 16 26 26 17 11 11 14 26 25 14 16 35 30 23 6 5 5
6 8 23 28 41 9 13 12 6 58 96 93 97 63 64 50 60 50 52 49 35 6 8 10 8 15 9 21 17 15 15 18 18 10 40 25 19 12 11 12 12 17 15 17 21 17 13 5 5
28 36 8 60 70 52 44 22 13 22 52 69 97 78 96 51 48 50 52 52 54 40 5 11 10 13 12 18 25 17 15 17 18 11 9 36 29 19 13 12 11 11 12 11 12 16 15 17 7
6 13 57 50 80 76 67 53 42 30 11 41 44 41 47 97 60 52 54 57 62 54 16 4 10 8 13 13 24 16 12 18 18 12 7 6 25 23 16 14 12 10 9 9 9 9 12 15 12
6 5 21 96 86 75 78 62 60 55 46 12 18 49 46 64 68 61 55 47 62 68 32 5 5 8 10 12 23 19 11 18 17 13 7 6 5 19 11 9 12 12 10 9 5 7 10 13 17
9 66 33 50 59 86 70 68 74 72 70 43 18 12 41 64 100 70 57 52 63 72 52 36 6 7 7 10 15 20 16 16 15 13 8 6 5 10 8 7 11 13 11 10 5 4 8 12 17

GFSSGP_500_rhum_057.txt.gz
RH
16 12 15 26 47 75 70 70 83 100 83 87 80 71 74 77 74 79 44 77 92 35 30 26 28 34 29 30 35 30 32 30 29 33 36 34 30 38 36 23 34 34 37 47 58 55 52 56 56
31 44 48 53 64 79 74 96 97 89 91 82 79 76 69 77 76 67 46 37 45 30 23 28 28 28 15 20 29 33 37 36 36 38 42 32 20 16 39 63 66 71 78 72 38 41 54 62 60
69 79 89 79 95 97 83 93 90 96 86 82 74 66 62 59 73 68 52 28 27 26 18 25 14 13 12 26 32 38 40 32 33 38 32 23 10 50 70 66 64 67 76 83 59 18 26 45 54
80 84 83 87 98 98 91 92 88 91 89 80 71 60 70 61 62 62 44 20 20 24 17 22 12 17 20 32 32 41 38 41 40 32 23 10 28 48 67 69 70 65 60 58 68 81 74 42 50
71 94 93 80 85 87 93 99 87 95 86 95 70 77 59 60 51 57 35 18 17 23 14 17 16 18 16 21 26 33 31 36 32 33 15 8 26 45 53 58 58 59 73 67 39 42 67 50 23
77 85 79 89 86 86 89 96 87 88 90 97 86 78 59 59 46 49 31 15 18 21 16 18 23 16 16 20 24 28 31 38 33 18 5 7 26 40 45 46 56 52 41 26 22 34 39 53 56
62 87 87 83 86 86 99 92 100 92 94 97 91 58 53 58 42 45 27 15 17 21 24 20 25 17 19 18 23 27 32 34 17 14 5 6 21 28 35 42 43 52 45 26 22 38 36 27 30
44 74 68 99 78 97 93 94 91 96 99 98 88 72 61 56 34 40 28 15 17 21 20 23 22 24 25 26 27 33 30 28 18 5 6 8 22 26 32 37 41 38 46 50 42 21 22 27 28
30 41 64 92 65 87 97 95 88 90 95 73 68 78 64 38 24 33 29 16 17 18 17 23 23 28 32 25 20 29 33 17 8 19 26 15 14 25 22 18 17 31 33 41 44 48 37 32 27
28 26 36 64 98 97 79 73 79 82 80 80 74 62 45 29 18 20 31 18 16 17 16 18 22 24 30 19 19 30 21 20 25 25 41 20 22 25 23 16 45 10 39 56 62 53 51 49 51
32 28 25 96 95 74 98 97 90 88 84 78 77 70 42 30 18 18 33 21 14 14 14 13 20 17 26 21 22 27 11 11 19 39 33 37 26 27 13 12 88 14 49 47 43 79 47 42 50
34 32 28 32 78 51 81 97 96 83 94 84 81 59 35 28 18 24 30 23 14 12 14 14 28 21 23 27 20 12 6 12 8 52 40 46 46 22 24 22 36 22 11 26 37 50 69 47 44
22 34 32 53 46 86 88 69 73 98 83 86 83 65 40 24 14 26 32 22 14 9 15 10 24 31 25 30 42 22 12 20 14 39 82 39 39 26 29 32 17 26 20 9 20 22 24 30 33
20 23 36 33 36 56 59 82 78 91 79 81 84 77 45 20 17 24 33 22 15 12 15 14 29 62 24 16 46 16 28 28 40 38 61 46 36 39 46 41 26 9 5 12 8 19 15 22 28
27 16 16 30 37 54 65 64 72 69 70 65 74 86 62 12 20 22 26 21 14 16 16 15 24 40 22 14 18 17 21 35 43 43 33 35 56 48 26 32 93 22 11 4 5 7 11 12 10
20 29 28 31 36 56 65 63 62 88 95 95 79 77 56 15 21 26 26 18 12 17 16 17 16 18 12 24 24 23 33 33 38 32 37 54 37 32 37 29 26 15 9 4 5 6 6 9 7
6 19 31 43 39 44 65 83 78 86 96 94 62 11 16 16 16 17 22 15 12 16 16 19 14 9 12 20 21 29 31 35 27 29 52 49 37 45 56 34 24 20 15 6 4 5 6 6 6
3 7 21 40 38 37 52 78 87 91 81 80 40 8 7 10 14 21 24 13 11 14 16 14 11 8 13 21 24 29 32 31 26 30 35 44 59 72 78 43 22 41 43 13 8 4 5 6 6
7 3 12 21 83 63 45 71 66 94 92 83 59 33 7 8 15 13 16 12 10 14 18 13 13 24 19 26 25 29 28 26 35 36 25 30 52 51 43 22 26 37 22 15 13 10 6 4 5
12 7 4 12 51 81 89 91 100 71 87 87 81 32 6 6 14 18 15 12 11 12 20 10 14 34 37 30 22 25 30 35 40 32 24 44 56 75 58 27 30 26 12 13 12 8 7 7 5
10 11 9 8 52 68 78 84 84 72 85 85 97 49 36 13 6 15 14 13 12 12 18 10 16 32 36 29 20 24 29 30 34 39 27 38 43 33 32 20 19 17 10 10 12 10 7 8 8
6 10 19 11 20 59 82 96 100 76 94 90 96 85 48 26 23 14 12 12 13 13 14 11 13 39 30 23 18 24 24 25 31 26 28 22 24 30 39 34 29 20 20 18 16 18 16 17 14
6 9 13 22 15 13 48 84 96 94 93 83 66 94 49 35 35 20 14 12 14 14 12 16 10 28 26 20 17 22 24 24 21 25 33 16 34 28 22 21 21 23 23 18 10 13 20 16 10
7 10 6 9 20 12 12 45 55 88 74 63 76 71 74 48 35 23 18 9 7 13 13 14 10 11 38 16 14 18 20 23 15 17 22 32 28 22 31 30 20 26 42 23 6 4 10 15 11
8 8 9 7 8 3 13 23 11 22 46 50 72 82 90 63 52 28 27 24 22 8 14 13 14 8 18 29 13 14 20 23 23 18 21 18 34 42 29 23 14 29 34 27 22 15 7 5 9
9 10 9 6 4 4 11 11 7 14 46 70 77 88 92 82 87 64 34 38 41 20 9 10 13 12 7 14 13 10 16 20 25 25 17 14 8 16 27 20 16 22 25 19 16 10 6 4 4
22 13 11 10 7 14 13 8 9 17 37 64 48 59 66 72 75 67 42 73 48 50 30 11 8 12 12 5 5 7 12 17 18 26 25 16 11 10 16 14 13 16 14 16 14 21 18 14 6
28 29 44 22 12 10 7 5 14 58 56 50 34 26 39 82 82 85 82 57 72 64 57 45 22 7 9 11 6 13 12 11 16 17 22 23 16 12 11 12 11 11 11 13 8 8 14 17 10
30 20 30 34 17 14 18 5 10 70 78 71 61 56 51 59 70 21 89 83 65 66 61 64 56 34 7 7 11 10 19 10 12 15 15 19 23 20 19 14 12 10 10 8 6 5 11 12 14
41 38 35 40 34 20 18 5 34 75 83 69 65 57 55 55 69 34 18 88 69 41 35 57 64 59 16 7 8 11 13 12 11 13 15 12 13 29 26 26 19 11 10 9 8 5 7 10 11

GFSSGP_500_rhum_060.txt.gz
RH
18 17 12 12 20 39 68 97 93 91 67 86 83 88 80 84 79 61 41 54 35 26 26 25 33 33 35 35 38 29 29 29 34 39 37 35 45 42 26 30 40 42 41 60 59 55 50 56 49
18 26 42 51 60 62 79 91 98 96 82 94 91 83 81 83 80 64 42 29 24 22 26 27 33 24 29 34 36 37 34 37 42 45 42 26 30 63 72 70 69 74 78 50 35 52 44 60 42
64 79 81 66 86 93 97 92 95 91 98 86 81 88 77 71 79 59 34 24 23 20 23 19 22 17 23 35 39 41 32 35 41 37 22 37 69 76 69 69 68 75 83 84 44 18 44 59 51
68 76 85 92 91 99 99 98 96 96 95 94 94 87 79 68 65 54 29 22 23 18 20 14 14 17 35 42 43 43 40 40 32 18 28 39 58 52 65 64 58 60 62 66 64 28 30 47 25
72 75 98 88 93 89 89 98 97 98 98 95 95 87 76 72 55 50 26 18 22 15 18 13 16 23 29 35 38 32 37 33 23 10 19 41 39 38 56 56 56 60 37 32 74 57 43 27 58
68 81 98 90 98 94 94 95 96 83 89 96 93 97 80 69 53 42 23 16 22 15 18 18 18 17 24 30 31 35 38 30 10 5 17 36 39 34 38 48 42 24 20 37 39 41 59 51 45
60 90 91 88 96 89 98 91 92 95 93 92 99 96 84 67 55 40 19 15 20 20 19 24 16 18 22 24 29 34 34 18 7 5 10 25 31 39 36 33 47 30 20 37 39 37 32 33 43
52 70 82 92 90 84 95 92 91 98 98 99 100 87 72 68 50 34 21 15 19 20 22 26 18 20 19 26 32 32 24 13 4 7 12 22 28 24 32 36 38 46 45 24 20 20 36 45 53
40 52 80 64 73 83 88 95 87 84 90 85 92 80 66 65 40 33 24 16 18 18 23 23 24 28 27 27 31 32 20 7 18 24 17 15 22 18 18 22 33 39 39 42 44 36 36 41 60
33 34 44 63 82 98 92 81 81 77 84 77 80 74 70 47 36 34 28 16 17 15 21 22 28 34 23 23 28 32 14 21 30 34 19 22 29 21 48 41 37 57 62 62 47 45 40 40 53
38 32 32 30 89 85 90 93 90 86 82 76 77 48 46 40 32 37 30 20 14 16 15 19 23 32 21 21 30 17 16 20 30 30 30 24 23 13 14 30 21 42 33 61 54 45 51 39 45
37 37 36 32 79 81 97 89 75 77 79 90 86 81 41 27 20 26 29 21 16 15 18 18 18 28 22 25 30 9 10 29 36 42 35 36 27 24 25 29 15 20 26 36 43 47 39 38 32
18 38 36 32 30 41 91 94 87 79 87 91 94 91 49 18 15 22 30 19 14 12 18 22 22 24 28 27 17 6 15 10 15 59 39 31 27 29 36 18 18 22 7 20 20 30 31 24 23
31 19 33 32 26 34 70 63 73 80 89 96 92 86 51 14 11 20 28 19 15 13 15 23 27 25 33 51 73 21 40 27 39 42 61 30 35 41 36 45 16 7 6 12 16 18 22 24 31
34 25 16 28 29 33 76 93 72 69 74 85 91 85 59 13 11 19 24 19 15 16 15 29 50 29 23 40 19 16 26 32 41 41 34 54 42 31 36 49 22 7 5 5 9 11 10 11 24
12 29 35 32 34 39 52 79 80 86 98 94 100 88 64 17 10 18 25 19 13 20 15 26 55 32 14 13 17 21 34 36 42 34 37 45 40 29 30 21 13 11 4 6 6 8 9 7 12
3 18 39 52 50 44 61 66 92 93 98 98 95 83 28 14 11 20 24 18 12 20 15 20 30 26 17 31 24 32 35 37 28 50 50 44 36 47 36 19 17 12 6 4 6 6 6 6 8
3 5 26 54 79 70 60 60 98 91 93 89 98 46 8 11 11 18 19 14 10 19 16 17 23 15 15 20 28 35 36 26 26 41 48 51 62 71 52 21 39 46 12 6 4 6 6 6 7
6 3 7 32 52 85 73 54 86 79 99 86 89 47 21 10 7 9 17 14 9 16 20 19 12 10 15 23 30 35 26 26 36 36 34 48 55 50 25 23 45 21 16 10 8 6 5 5 6
11 5 4 12 49 39 47 50 75 71 93 84 87 77 28 8 8 12 16 15 10 14 22 18 13 11 17 22 28 31 30 33 42 26 30 48 63 60 18 30 25 10 11 9 7 7 6 5 5
12 11 7 18 35 41 40 36 68 76 87 80 76 76 24 9 12 15 20 14 12 11 21 13 19 31 38 26 28 30 38 36 42 30 36 42 56 33 15 15 14 10 10 11 9 7 7 7 7
7 16 15 20 33 43 46 59 47 80 90 68 84 81 45 38 9 11 15 13 14 13 16 13 18 28 44 33 31 29 30 35 39 29 36 41 33 34 24 31 20 16 14 14 17 15 15 12 11
6 9 20 18 25 40 53 44 61 53 82 82 85 87 71 54 25 13 13 14 14 14 13 19 15 26 48 42 28 27 32 35 35 31 25 22 33 38 26 22 25 21 17 9 14 19 14 10 9
8 7 11 25 19 20 44 53 51 60 42 59 57 98 60 69 34 18 12 11 13 14 13 17 11 33 45 39 25 24 31 30 28 32 27 32 33 26 28 21 21 40 30 9 4 8 15 10 10
8 8 7 10 19 18 41 50 39 57 32 40 62 88 98 70 80 47 17 9 6 13 15 15 14 19 48 21 20 21 27 27 22 23 30 36 30 32 24 18 22 38 28 23 12 8 5 7 10
10 9 8 5 5 14 34 58 49 61 75 82 71 84 76 80 80 61 33 22 10 11 15 15 17 14 28 47 19 16 22 24 26 24 24 28 43 42 27 17 22 28 20 15 10 5 4 3 7
16 12 12 10 6 8 13 25 55 81 82 57 40 75 68 94 75 82 71 28 26 11 10 15 14 16 16 16 38 16 16 21 22 26 27 20 14 20 25 14 19 16 16 15 21 16 19 7 4
22 33 38 21 15 12 8 14 32 50 43 47 32 44 36 38 24 87 90 38 35 31 9 8 16 14 14 18 10 17 12 16 20 21 26 26 16 10 14 13 12 16 12 14 6 9 17 15 5
26 26 34 28 26 19 15 22 37 60 59 56 40 57 60 51 47 36 94 81 55 56 51 22 6 13 12 13 11 5 7 11 15 18 19 22 24 14 11 13 11 10 10 8 6 5 11 12 13
32 30 21 20 37 22 22 24 25 62 74 57 48 35 42 61 62 50 26 38 43 58 62 54 42 14 9 12 12 11 5 12 12 14 18 18 19 25 17 15 14 12 10 9 8 6 7 9 10

GFSSGP_500_rhum_063.txt.gz
RH
20 20 19 13 19 18 48 71 89 92 96 88 81 82 84 80 74 60 63 38 28 25 26 31 30 33 38 35 27 25 25 30 32 32 31 32 32 44 51 55 52 48 44 59 58 51 55 56 46
19 18 26 35 57 70 74 94 96 98 91 97 83 89 87 79 78 55 48 31 25 25 29 35 28 31 35 36 32 30 34 39 38 29 26 54 70 72 71 72 74 76 75 38 56 58 61 50 70
54 83 86 63 86 98 98 97 97 97 82 86 92 90 93 86 72 52 27 27 23 22 25 32 23 26 35 40 35 33 36 36 29 23 50 57 65 69 70 63 70 79 88 74 32 44 59 51 42
87 82 81 88 96 97 97 97 96 97 97 97 96 97 92 87 65 39 23 26 21 21 18 20 21 31 37 44 42 38 36 26 22 36 48 52 59 62 65 67 49 44 61 54 19 34 49 38 84
78 87 82 88 98 98 96 96 98 98 97 97 96 87 79 79 58 37 20 24 17 20 15 15 20 37 43 41 36 41 32 17 18 38 48 37 39 54 51 50 28 42 68 64 38 42 63 75 91
85 88 89 99 95 86 94 97 94 92 93 97 97 95 84 76 53 34 18 23 17 18 16 16 24 29 41 37 37 35 30 10 11 40 41 38 32 43 50 28 30 46 32 32 41 63 48 54 64
73 77 77 92 87 87 88 92 97 94 96 97 98 97 80 89 56 32 17 22 18 19 20 20 20 25 34 38 38 37 19 6 8 26 28 33 38 32 41 41 23 38 40 39 38 35 42 59 53
64 74 87 82 81 80 79 94 95 98 99 95 100 92 74 85 52 32 16 21 22 22 23 19 18 23 25 34 36 28 16 6 11 23 25 27 19 29 30 40 49 24 20 30 46 43 59 61 58
53 64 64 67 72 71 84 87 95 97 97 91 98 93 77 68 47 32 17 20 22 23 24 24 20 20 30 37 33 22 10 26 23 19 24 23 19 36 20 39 42 46 42 37 41 37 54 59 51
41 52 49 62 72 60 79 72 91 95 91 75 91 99 83 55 40 30 18 19 22 19 25 26 26 32 29 36 33 16 13 36 34 18 33 31 21 49 30 52 62 60 57 45 39 33 41 53 35
41 38 48 44 63 84 74 66 76 87 85 76 89 88 69 38 42 33 26 17 17 15 25 26 30 37 23 32 33 21 27 33 36 33 25 22 15 31 19 16 34 61 72 51 37 36 41 43 22
46 48 33 34 54 81 62 71 79 82 81 73 76 71 64 34 34 33 32 19 20 16 23 26 28 32 22 33 20 14 34 42 55 42 43 32 24 33 35 18 21 26 32 46 36 28 28 28 21
23 36 39 33 46 69 65 68 92 87 81 92 91 79 59 39 27 33 31 18 17 18 21 23 22 29 22 34 11 14 10 16 55 58 43 30 34 35 29 21 13 16 18 35 32 29 20 26 16
32 14 17 35 34 33 38 68 88 92 99 97 97 84 54 36 24 32 32 19 15 17 18 28 23 30 26 18 9 34 27 40 41 68 42 42 62 47 51 10 9 7 19 17 22 23 31 34 16
32 24 19 17 34 35 36 51 81 98 84 96 96 90 57 37 22 29 24 18 12 14 15 30 25 34 29 70 24 28 37 43 36 45 42 55 42 54 60 19 5 6 7 11 11 12 22 37 26
21 22 28 32 21 34 43 88 85 99 91 88 92 96 76 46 14 28 22 18 12 17 16 30 35 28 46 21 19 32 42 42 45 42 49 54 32 31 25 15 8 5 6 6 10 9 9 30 28
7 19 30 45 26 35 45 80 83 86 85 99 91 93 86 71 14 27 22 16 11 17 16 33 71 24 16 26 24 39 37 30 33 59 57 58 41 33 20 19 10 5 6 6 6 6 7 10 20
4 7 30 50 37 30 44 61 79 82 94 97 93 86 32 50 18 28 20 15 11 17 14 21 41 26 34 40 32 37 38 31 38 60 54 54 71 53 23 34 21 10 4 6 6 6 7 8 10
8 6 20 42 44 31 27 53 78 70 88 86 100 92 26 18 13 26 18 13 12 19 15 20 23 18 23 25 37 35 39 29 35 45 52 67 63 40 24 45 39 17 10 5 5 6 6 7 8
14 7 7 28 39 40 34 37 46 71 74 83 90 89 70 16 9 18 17 13 12 17 14 18 15 12 20 39 33 30 34 51 43 44 52 70 80 32 28 33 14 11 10 10 7 5 5 6 8
16 14 7 33 38 27 34 36 33 44 60 69 81 80 69 14 8 18 20 13 11 14 13 16 9 13 19 28 31 36 50 48 41 48 55 73 71 29 30 16 13 14 15 8 7 7 6 6 8
9 23 17 27 23 34 22 30 39 48 72 78 68 70 65 11 8 23 23 14 14 13 11 16 8 17 24 28 30 39 43 46 38 35 47 56 35 27 26 18 13 12 12 12 12 13 10 8 9
11 20 36 73 39 31 31 17 27 42 64 68 57 77 75 20 10 20 24 12 12 11 15 15 21 40 46 32 27 33 36 42 28 39 37 33 42 38 38 30 21 20 20 17 21 14 11 11 10
15 10 20 32 43 28 30 21 24 23 36 55 49 58 59 60 40 28 26 14 13 13 12 11 19 38 40 34 26 30 35 42 35 32 22 40 37 33 27 28 34 33 13 6 12 16 9 10 9
9 12 12 16 24 24 34 37 30 36 25 42 42 32 52 58 47 16 16 13 12 14 12 14 15 28 44 45 26 27 32 34 34 33 24 40 36 39 36 24 44 44 31 12 10 15 9 10 11
11 10 9 9 10 24 34 47 46 39 40 35 54 48 71 74 45 39 20 14 13 13 14 16 12 26 39 42 29 24 28 29 29 28 36 35 36 35 33 22 39 38 24 15 6 7 12 11 13
16 13 12 10 12 14 32 44 54 55 42 39 53 18 78 95 57 64 51 24 10 12 16 15 17 13 40 32 24 22 25 27 27 29 30 32 39 45 28 23 35 31 25 26 22 20 5 7 13
21 21 19 14 14 12 13 32 42 54 48 38 32 16 47 94 93 76 60 55 28 12 13 15 15 15 14 44 37 18 21 23 23 25 28 29 24 26 32 16 24 19 17 16 11 18 19 7 6
28 27 23 24 18 18 22 19 17 25 42 48 27 19 12 35 74 67 63 70 63 26 19 16 14 14 17 13 38 43 19 19 21 22 24 28 24 13 13 18 16 18 11 11 10 8 12 15 10
31 34 30 30 32 27 32 20 20 22 26 29 26 23 16 28 52 50 38 97 79 62 60 38 17 13 14 15 14 18 26 16 16 20 20 22 27 20 24 15 15 15 11 10 9 6 5 8 12

GFSSGP_500_rhum_069.txt.gz
RH
20 20 21 18 28 32 24 56 96 98 96 84 76 72 56 49 49 32 26 23 29 34 35 40 33 26 24 23 28 32 35 33 30 43 55 74 76 78 75 65 51 61 47 45 45 55 69 65 77
21 18 22 35 71 84 90 93 97 96 94 92 83 76 54 39 30 25 25 28 32 32 33 36 36 26 25 28 34 39 36 34 50 60 76 77 80 76 78 79 80 64 62 57 62 69 63 63 77
46 58 63 69 86 94 97 97 98 98 96 91 84 69 62 36 27 24 20 28 32 26 28 42 46 30 31 34 36 30 31 38 52 63 63 62 68 46 58 83 84 75 71 48 56 65 52 74 94
57 55 69 87 93 97 99 98 94 97 97 89 88 80 54 36 23 21 19 22 26 21 23 32 39 32 31 32 28 26 38 40 43 50 51 38 32 54 81 59 80 67 57 51 55 50 95 96 97
55 60 68 74 83 92 83 96 98 96 97 96 90 93 81 38 21 18 18 18 16 18 23 28 40 37 34 29 17 22 43 39 37 40 54 46 47 58 64 66 55 28 39 50 67 96 72 89 90
54 70 63 74 73 80 74 82 93 98 97 88 95 76 59 34 21 18 18 17 14 15 28 32 41 33 35 28 16 19 39 38 40 38 53 55 42 50 45 41 35 46 65 73 83 80 70 71 69
59 69 67 67 72 86 87 92 92 86 92 98 80 62 46 34 22 18 18 18 15 15 22 25 38 32 32 37 26 19 30 29 30 31 52 54 44 37 43 54 61 50 39 49 56 67 57 57 54
57 61 58 62 71 83 78 92 84 90 85 87 70 62 40 27 21 18 20 19 19 18 18 22 32 34 37 38 23 8 23 28 20 23 33 44 48 49 28 25 39 40 52 58 65 66 64 66 60
56 58 51 52 64 83 89 89 91 89 98 100 77 77 37 19 19 18 26 21 22 22 17 18 23 28 39 32 18 20 22 26 21 47 42 32 51 57 54 37 38 42 41 59 67 57 50 50 45
55 54 52 43 57 69 79 98 98 79 99 91 75 66 39 17 19 16 19 20 21 22 17 19 21 27 31 25 16 30 18 25 32 24 31 33 56 60 65 67 56 46 37 45 49 43 25 31 32
49 49 49 46 48 73 77 81 88 86 88 94 67 69 30 13 22 16 17 18 22 24 21 22 23 31 30 21 18 34 39 30 26 18 27 21 22 42 47 74 56 43 38 42 38 22 16 17 18
45 42 43 54 41 54 75 82 82 86 90 97 83 66 33 16 20 18 15 17 19 23 22 26 27 26 29 17 27 36 48 41 43 26 34 33 20 25 28 48 56 41 35 38 30 28 17 17 20
43 40 43 41 35 66 78 77 78 81 84 83 81 54 42 18 20 21 15 16 15 21 21 26 28 22 29 22 25 31 49 42 39 28 38 28 22 15 21 37 47 36 27 27 29 14 17 19 22
34 35 39 45 36 74 96 85 83 82 80 93 82 61 65 42 19 25 16 14 16 17 19 20 28 18 27 16 18 17 53 62 35 36 60 66 39 10 20 20 16 25 27 28 25 13 14 20 24
19 21 24 32 42 54 95 71 41 72 93 96 88 73 60 44 20 19 20 12 15 16 17 18 24 19 26 10 15 28 41 44 41 46 44 67 67 21 8 16 14 13 28 34 25 14 16 25 26
19 25 25 20 22 38 40 44 48 63 85 96 98 90 68 46 16 14 24 15 12 16 18 22 22 24 21 11 35 33 32 36 49 38 52 40 31 28 8 21 22 10 15 31 30 19 17 27 24
22 25 32 28 19 23 39 41 50 48 60 84 98 95 79 56 21 14 26 17 9 14 18 26 23 26 30 28 28 34 34 33 40 43 52 34 39 38 8 11 6 11 9 16 22 20 20 28 29
13 21 27 34 35 27 31 41 53 54 53 74 95 94 85 70 42 11 24 18 11 12 16 25 26 31 53 21 32 34 24 26 40 42 40 42 38 41 8 5 6 6 8 8 18 22 23 26 25
5 10 18 23 39 44 32 31 81 78 75 76 78 94 88 84 48 12 19 19 13 12 16 29 30 29 23 21 30 26 27 45 40 45 63 43 46 49 19 16 5 6 6 6 8 10 12 16 18
5 4 5 9 28 43 49 54 82 74 77 74 72 85 77 41 31 14 17 22 14 15 15 35 45 18 19 24 26 28 39 49 43 56 76 59 39 45 48 22 10 5 6 6 7 8 10 11 12
14 8 5 4 9 32 46 61 66 75 80 80 92 94 81 64 14 15 15 22 15 17 14 26 52 19 27 28 31 27 32 44 44 63 68 52 46 35 29 14 12 10 8 5 5 6 8 9 11
23 18 9 5 4 9 28 51 55 66 90 80 98 100 93 69 32 13 10 19 14 16 15 19 31 20 23 30 29 24 31 42 44 66 86 57 49 39 14 13 14 10 8 7 6 5 6 8 10
18 23 17 13 6 5 17 40 49 56 94 86 95 94 90 81 71 12 16 16 13 11 14 18 22 15 23 28 23 25 41 45 40 62 73 57 42 41 15 13 14 11 10 11 10 7 7 8 11
10 15 20 18 13 7 6 24 42 50 70 89 80 78 67 68 59 18 12 12 14 10 13 15 19 14 23 26 24 35 35 41 39 59 59 36 29 39 17 17 16 14 15 19 14 11 9 9 11
12 9 16 20 17 12 8 12 33 50 52 73 66 75 74 59 48 23 31 28 17 12 11 14 16 13 19 27 24 33 39 37 40 48 48 36 41 42 39 45 32 7 7 24 10 9 10 10 12
12 12 10 10 10 11 14 12 17 35 45 55 77 87 73 57 53 38 26 27 24 14 12 17 17 12 13 28 29 29 36 37 36 43 37 45 38 36 30 47 48 14 8 12 10 9 9 10 12
14 12 13 14 14 13 18 17 25 22 25 37 87 81 51 61 82 60 34 27 26 14 13 15 18 19 21 40 33 27 34 38 35 34 34 41 34 26 25 43 44 21 8 19 10 8 9 11 11
15 14 14 14 15 17 15 22 16 25 27 26 38 36 33 65 99 85 40 19 27 17 14 14 17 19 25 44 34 28 32 31 34 36 30 41 36 37 29 42 27 19 29 13 14 9 11 10 11
20 16 14 17 14 16 14 14 13 12 17 27 26 28 33 52 87 98 99 37 23 17 14 15 15 18 19 34 42 30 25 28 28 33 30 40 38 36 34 36 38 20 24 17 20 12 7 9 10
31 23 18 16 18 14 15 11 12 9 9 16 28 25 36 50 76 97 97 87 63 57 17 14 14 17 15 19 31 40 22 24 25 28 27 33 32 42 35 25 28 30 24 9 12 21 11 6 6

GFSSGP_500_rhum_072.txt.gz
RH
20 22 22 21 43 46 85 82 97 98 90 84 78 62 37 36 28 31 25 30 36 36 39 31 31 25 25 31 36 36 34 44 52 62 74 77 76 76 63 45 50 48 41 42 51 65 72 66 73
20 22 26 56 76 91 92 93 97 96 86 92 84 50 32 25 23 24 27 32 32 35 37 25 26 26 29 33 34 33 39 45 62 78 79 76 78 77 90 81 74 55 54 59 69 67 80 86 82
44 62 57 78 88 91 91 92 97 97 86 86 79 52 28 21 22 21 30 34 28 36 41 28 28 30 29 28 29 31 34 45 57 59 62 62 50 67 82 85 74 63 56 57 70 62 68 96 95
57 66 73 72 86 92 81 95 96 91 85 80 73 48 28 21 19 20 27 27 22 32 35 32 27 29 28 25 32 34 42 44 58 47 41 56 76 68 71 78 73 68 41 60 69 98 97 95 66
60 64 67 67 72 82 77 94 98 98 95 83 76 52 29 19 18 19 21 20 18 23 34 36 34 30 24 19 31 44 44 42 58 51 58 55 52 64 62 59 49 50 60 77 74 84 98 80 66
56 57 60 63 70 84 82 78 98 96 93 83 85 78 31 18 18 18 17 17 20 24 31 40 37 32 28 19 30 40 41 45 53 56 43 50 42 36 34 32 43 61 79 80 71 80 81 82 66
89 61 59 70 81 83 83 78 95 92 90 84 76 48 27 19 19 17 16 14 18 31 33 38 34 29 25 19 21 31 30 28 45 47 43 35 46 55 57 57 50 53 72 74 70 75 69 66 51
59 54 60 64 79 87 84 90 87 90 99 90 63 41 25 19 19 18 18 14 18 23 26 32 30 30 38 23 11 26 26 22 31 42 49 55 27 29 37 36 49 61 70 74 63 62 64 60 59
60 60 58 61 66 97 97 89 93 89 82 73 59 45 22 17 18 20 19 17 17 17 21 26 32 42 42 39 23 25 32 32 50 42 57 55 49 38 35 42 39 54 61 59 53 51 48 50 56
54 70 54 57 59 84 89 95 88 99 82 68 62 50 30 16 16 24 20 22 17 14 18 22 26 31 25 34 26 17 29 24 25 33 43 58 56 56 54 50 41 46 49 48 32 31 40 45 41
51 65 50 55 60 79 90 94 95 84 93 79 59 42 33 19 15 18 20 21 18 15 18 20 27 29 27 23 33 30 27 22 21 26 21 36 46 58 47 46 41 36 43 32 19 19 22 22 20
51 49 48 55 53 71 82 92 91 96 97 91 66 47 26 18 15 16 18 22 22 19 20 23 28 29 24 19 35 37 31 34 21 32 24 21 27 39 58 43 38 38 38 27 19 16 18 19 19
46 44 44 46 42 38 83 100 99 96 89 88 73 59 30 17 19 15 17 19 21 20 23 26 22 26 24 19 33 49 43 34 24 23 22 16 18 34 47 36 33 28 29 23 22 18 20 21 21
47 43 45 43 38 38 87 100 95 86 83 91 80 62 44 21 18 18 15 16 19 21 26 28 20 25 24 19 24 48 41 32 30 30 25 11 14 17 25 27 24 23 24 13 14 18 22 20 18
48 40 38 44 42 50 92 81 68 70 90 96 95 68 61 36 15 19 14 14 14 18 22 29 19 22 18 14 13 34 67 30 38 56 63 55 9 14 11 16 26 30 28 15 13 21 24 14 16
43 35 28 33 45 48 87 88 70 46 82 90 99 82 60 44 22 18 21 13 15 16 18 20 22 21 15 10 20 36 39 42 43 40 52 64 38 34 21 12 14 29 32 17 14 23 24 10 12
30 30 30 23 27 42 45 68 68 49 44 70 97 98 78 52 20 16 24 16 13 16 18 18 22 21 18 16 32 35 32 42 39 46 29 34 38 40 38 18 8 15 27 24 15 23 26 10 10
24 30 29 33 26 20 32 40 41 44 60 72 86 97 88 63 38 12 21 19 11 16 18 21 24 23 15 28 28 32 37 35 39 45 28 32 51 48 36 17 11 7 15 17 15 19 26 14 8
11 19 29 31 41 36 23 29 38 43 60 75 86 90 94 75 67 18 18 21 14 12 16 26 26 26 54 23 27 30 30 30 43 38 27 36 40 17 25 21 12 6 7 10 11 15 21 17 9
5 5 15 27 34 45 40 24 32 40 68 90 92 97 95 82 68 31 19 19 17 11 15 26 29 34 40 19 32 24 29 45 44 44 38 42 47 48 36 11 5 6 6 7 9 10 12 12 12
9 4 6 17 26 36 46 41 44 100 78 94 82 97 99 80 43 23 20 22 17 13 14 28 37 27 35 22 33 27 37 52 48 56 38 43 35 40 34 16 8 5 6 6 7 8 10 11 12
15 9 4 5 9 27 39 100 58 71 83 100 97 97 95 83 73 20 15 22 20 14 13 24 53 20 20 25 33 27 30 42 46 60 43 37 48 35 20 12 10 8 7 5 6 7 8 10 12
21 17 10 4 4 9 24 61 68 68 93 93 99 94 83 90 74 54 17 21 19 14 14 15 31 28 25 30 32 26 27 38 45 65 61 35 46 34 12 12 13 8 8 7 6 5 7 9 11
7 16 16 12 9 5 20 43 74 48 74 100 96 95 93 90 80 79 28 15 19 15 16 15 18 35 25 25 28 23 30 40 45 59 72 44 45 43 14 13 13 12 15 20 10 7 9 9 11
7 8 16 20 16 26 39 20 65 46 64 97 98 93 88 76 65 69 36 12 19 15 14 18 17 24 21 26 29 25 38 43 47 53 71 48 27 37 23 40 40 18 28 29 11 13 11 18 12
10 9 47 37 34 58 18 20 23 33 63 70 96 92 93 89 75 59 41 18 25 19 14 19 18 20 16 24 28 29 40 33 35 46 64 32 28 46 37 56 39 12 18 22 19 10 9 10 11
13 12 63 61 70 66 24 12 6 16 48 65 62 74 96 92 72 56 44 22 22 26 15 15 20 18 16 20 26 27 35 38 34 38 48 40 36 40 35 49 52 15 17 12 21 7 9 10 11
13 18 24 16 64 51 70 18 11 11 26 54 52 90 99 97 97 69 54 42 25 26 16 14 19 19 16 12 19 30 28 35 36 31 41 34 39 28 26 44 50 25 16 26 15 7 10 9 10
15 16 16 55 64 65 78 50 9 13 18 38 37 60 94 71 57 67 71 87 42 27 18 14 14 18 18 12 19 36 28 29 34 33 34 30 35 28 25 45 42 35 30 18 15 9 9 7 9
20 17 18 30 37 36 71 52 8 12 27 26 30 33 48 48 53 51 97 85 64 36 28 14 14 14 17 18 23 42 34 23 29 33 30 26 34 31 27 50 42 37 28 17 26 19 7 8 9

GFSSGP_500_rhum_075.txt.gz
RH
19 22 22 32 57 64 96 88 95 95 87 85 72 48 30 20 60 31 29 37 35 28 27 27 22 28 34 36 35 38 46 60 79 71 77 76 73 65 42 52 46 36 44 40 53 62 66 58 74
20 25 43 68 79 99 99 94 97 97 84 86 75 43 27 20 22 26 32 32 35 24 22 22 24 30 40 34 32 41 47 66 74 69 73 68 72 79 84 53 53 50 46 57 69 70 93 85 85
48 53 75 76 87 95 94 96 96 96 81 80 61 39 21 18 23 27 29 32 34 24 22 24 30 32 33 30 27 34 47 54 46 56 56 66 71 71 84 79 72 52 59 58 73 87 74 94 94
65 72 72 81 83 90 93 97 98 88 83 72 59 32 20 17 20 26 24 28 39 34 25 28 30 28 32 27 35 35 48 52 51 59 68 76 67 77 83 75 64 59 50 80 95 81 97 86 64
69 69 76 74 75 87 95 98 97 91 77 66 62 30 18 17 16 23 20 24 32 33 27 28 25 24 32 41 49 38 45 54 52 56 50 60 63 62 67 68 46 56 75 82 90 60 60 59 70
71 69 71 65 79 81 80 91 93 89 86 70 62 29 17 18 16 18 18 18 27 33 32 32 30 23 18 37 41 37 40 56 45 46 44 36 34 32 36 46 57 79 70 75 76 81 78 58 60
76 80 64 74 78 79 78 78 95 94 80 79 80 29 17 17 16 16 18 22 24 32 31 30 26 22 18 33 38 32 31 50 46 36 44 55 55 53 49 54 70 72 68 77 74 79 64 54 63
77 81 62 74 80 80 78 89 89 83 92 86 84 68 18 18 17 15 15 23 28 33 35 27 28 35 25 20 33 22 35 35 43 51 28 27 33 32 52 63 76 75 64 59 64 62 60 57 62
63 74 64 66 79 91 88 88 86 97 85 80 66 31 16 17 18 17 14 20 23 26 30 31 32 49 51 30 29 41 42 41 56 58 56 48 31 46 50 59 70 68 52 49 51 48 49 57 60
60 84 64 58 66 99 95 92 85 92 82 70 53 33 20 14 16 18 15 17 22 26 25 29 39 41 33 23 22 25 23 29 33 50 57 65 50 43 41 42 56 43 36 28 35 42 43 46 51
64 78 60 55 58 80 92 93 88 83 79 66 56 28 24 15 19 19 19 17 15 19 21 25 29 25 29 30 19 29 21 23 23 22 53 56 58 46 42 37 37 45 22 24 25 22 24 22 27
64 71 63 56 53 71 88 85 97 98 90 70 61 23 20 18 17 20 20 20 15 19 20 25 28 27 28 31 36 29 28 22 30 21 26 34 54 58 40 38 38 36 21 20 19 20 20 20 21
51 62 49 56 50 41 75 97 98 99 98 76 68 42 18 21 14 16 20 21 17 20 22 24 28 27 17 30 44 37 42 27 23 22 17 24 44 46 36 34 34 28 24 18 18 20 19 19 20
51 55 46 43 44 38 80 86 78 92 95 94 70 46 29 22 17 14 18 21 20 23 27 21 24 25 17 25 32 49 37 30 27 23 15 17 31 37 31 30 28 24 13 18 20 18 16 16 18
53 47 46 43 41 44 74 84 78 92 89 94 86 57 44 27 22 15 13 16 20 22 29 25 21 22 20 20 22 58 45 31 40 46 23 10 19 20 22 27 28 27 13 17 20 16 16 20 14
56 52 78 45 43 42 71 93 86 63 68 97 97 73 60 44 22 22 15 14 15 21 26 30 20 23 14 14 15 54 50 41 50 46 56 23 27 10 14 23 32 31 18 16 24 13 12 13 13
40 52 77 82 39 46 59 91 89 66 49 80 98 90 68 52 28 17 23 13 14 15 19 23 21 24 12 12 23 43 39 54 40 40 46 40 33 28 17 11 22 34 25 14 26 14 10 9 12
23 45 91 100 30 32 44 94 90 51 48 84 87 97 82 54 37 14 22 19 12 16 16 19 25 22 18 14 30 35 36 50 54 45 34 32 42 34 14 8 10 19 25 15 23 23 9 8 9
80 38 98 100 61 76 95 88 76 37 37 49 65 87 93 84 56 15 16 19 15 13 18 22 24 23 17 25 24 31 39 37 55 54 32 40 39 30 27 13 9 9 15 17 19 23 15 8 7
22 81 90 93 69 92 91 61 20 30 34 52 80 97 96 95 77 43 17 25 18 10 15 24 22 25 30 38 27 32 26 30 51 51 42 41 30 21 17 8 6 6 8 9 13 16 17 11 7
8 81 94 94 33 44 85 95 24 22 26 47 78 84 97 95 83 57 22 26 19 14 13 20 24 26 44 21 28 27 21 37 52 54 56 45 54 42 33 8 7 6 6 7 9 10 13 13 8
15 9 96 95 41 45 35 94 72 22 33 83 69 85 84 95 84 50 21 23 27 17 12 15 28 26 39 24 25 26 34 53 60 56 62 44 37 35 18 14 9 6 6 6 7 9 13 11 10
69 22 60 100 26 84 94 75 94 92 33 67 70 92 84 97 88 80 31 18 21 19 13 15 29 32 23 25 31 27 27 39 47 57 63 40 47 32 12 11 9 8 7 6 5 7 9 10 11
32 77 12 14 41 72 85 49 78 98 38 56 58 76 98 78 90 100 67 26 17 29 13 14 19 48 22 21 29 31 29 30 39 50 64 62 44 37 14 12 20 11 17 8 6 6 7 11 11
54 68 41 68 74 71 78 67 93 90 48 64 68 95 94 95 94 90 81 61 18 19 14 13 14 20 42 24 25 28 26 28 35 45 62 79 47 45 17 15 18 32 25 22 10 8 11 11 12
64 90 72 77 65 65 75 75 69 57 76 43 59 95 92 72 82 74 72 67 19 24 16 13 16 17 32 28 24 28 25 32 45 43 53 67 56 33 27 37 50 13 26 21 10 13 10 15 11
88 53 82 70 57 52 72 74 59 47 26 42 55 96 91 86 55 59 70 56 21 24 23 14 16 17 20 28 21 26 26 36 33 33 48 65 39 36 43 39 52 19 17 21 18 8 8 9 11
84 80 88 87 72 56 72 68 84 27 7 25 45 65 70 56 61 79 58 58 42 29 27 15 12 17 18 24 18 25 25 33 35 33 35 50 44 31 39 37 50 42 13 13 25 9 10 8 10
25 31 87 88 73 62 79 96 50 23 16 23 32 53 48 51 61 87 79 94 64 49 30 24 14 15 17 19 18 19 26 25 28 34 29 38 42 40 32 27 42 50 18 22 20 10 13 8 9
32 85 58 87 81 76 59 95 66 48 25 18 19 42 48 47 84 93 94 92 98 81 74 87 18 14 16 16 16 14 14 28 25 27 32 30 35 36 31 22 34 46 22 21 14 10 8 8 9

GFSSGP_500_rhum_078.txt.gz
RH
21 24 26 46 61 70 97 95 98 90 98 83 56 40 20 54 65 30 31 32 20 21 20 21 31 33 34 34 41 49 64 78 80 75 76 72 63 47 40 46 42 39 43 44 43 54 66 55 68
20 28 60 71 84 94 97 99 99 91 77 81 48 32 26 31 24 29 35 26 19 18 20 24 33 35 30 34 45 49 59 59 58 68 68 64 75 87 61 40 45 47 46 57 65 73 82 74 83
42 71 76 83 87 93 96 87 98 93 72 66 54 45 20 21 25 26 32 27 21 19 23 28 30 34 26 32 35 52 54 51 58 66 72 72 67 73 78 60 58 50 54 78 90 96 89 96 66
69 72 81 88 98 97 100 98 96 87 75 70 33 26 19 20 26 23 30 34 26 23 26 27 30 32 29 40 44 50 48 53 51 55 63 67 78 77 74 66 56 63 89 70 66 74 84 63 65
74 83 90 82 94 94 89 98 98 81 70 54 38 24 18 18 23 19 29 34 32 27 24 26 26 36 46 46 36 49 50 47 44 40 43 51 60 58 53 56 66 80 91 58 56 53 51 65 60
77 86 68 82 78 86 86 92 87 71 75 76 43 20 17 16 20 18 24 31 29 28 31 26 19 20 38 36 29 40 45 37 48 39 36 37 38 49 59 70 76 78 81 83 74 56 60 63 59
85 90 69 89 75 83 84 79 81 91 79 70 33 19 16 16 16 18 18 28 31 29 26 23 20 18 35 36 28 37 44 40 36 48 50 45 46 57 66 65 66 73 71 71 66 55 54 64 62
76 79 82 79 74 77 81 83 94 83 89 73 56 20 16 16 14 16 19 40 32 34 31 25 31 19 23 33 26 37 37 56 52 27 40 36 48 61 71 66 60 58 55 61 53 56 59 62 60
62 75 60 67 75 85 96 93 87 95 88 78 77 34 15 16 14 14 21 28 71 33 26 26 37 51 33 32 37 40 37 57 58 65 55 53 46 60 64 58 58 52 50 53 49 45 57 56 54
85 74 55 57 66 88 85 88 88 86 80 74 62 27 17 16 15 13 17 22 72 36 27 34 42 34 24 22 24 25 23 35 49 58 98 43 36 37 48 46 40 27 34 35 35 48 47 47 36
92 98 62 51 54 80 91 90 79 90 78 60 65 27 18 15 15 15 14 19 30 22 22 30 31 26 30 19 25 21 23 20 29 47 45 40 32 34 35 37 25 20 29 26 21 18 48 29 28
70 78 67 52 58 67 89 90 90 85 73 61 50 23 17 16 19 17 17 16 16 21 21 27 24 59 30 32 29 25 21 27 17 25 38 43 41 36 85 39 34 17 75 84 20 17 19 20 24
92 94 71 58 48 51 70 82 98 93 74 68 57 25 19 14 18 16 18 16 14 19 22 27 25 26 24 35 39 33 30 21 18 15 28 46 33 31 36 43 25 34 38 29 84 18 19 18 22
66 72 59 52 56 40 57 85 83 92 86 68 58 34 24 19 16 15 16 18 15 18 21 26 27 21 19 24 42 35 33 28 19 14 16 30 29 25 26 32 20 16 27 24 36 16 17 17 18
65 78 59 44 44 42 47 74 76 92 76 84 70 48 29 20 19 14 13 17 18 20 24 21 25 21 16 20 41 94 29 33 36 15 40 59 18 27 28 25 18 13 18 16 21 17 14 15 17
55 51 83 48 42 40 41 76 86 71 67 96 88 73 48 34 19 19 13 14 18 19 24 22 22 22 17 15 22 57 30 41 48 45 24 32 13 17 26 32 23 14 19 21 80 18 14 14 13
56 54 53 97 74 40 39 62 99 92 51 87 91 97 61 53 26 22 19 12 14 17 22 26 19 22 14 12 24 40 42 44 39 41 38 36 20 14 10 20 30 14 17 26 12 10 11 11 10
28 47 96 78 94 83 33 55 96 90 65 73 67 76 85 60 36 24 21 18 11 14 17 19 23 20 13 10 29 29 36 78 52 30 35 41 34 17 16 10 17 20 15 24 17 14 8 20 14
33 45 94 72 78 88 56 33 45 94 64 45 54 51 72 73 54 31 26 22 15 12 15 17 18 19 22 10 26 25 30 41 42 53 35 34 39 27 17 8 8 26 16 18 22 14 8 7 9
30 91 94 95 97 98 63 79 62 83 48 38 36 43 61 94 81 55 18 16 18 11 14 18 19 24 20 20 22 26 26 35 46 46 28 32 24 21 22 11 7 10 17 12 18 20 10 7 9
19 51 79 86 95 97 98 93 78 30 14 27 32 40 68 97 84 57 42 12 22 23 10 15 22 21 22 42 21 25 28 39 72 83 44 36 42 29 25 10 8 6 12 9 10 13 14 8 9
10 39 88 87 97 73 83 94 82 54 21 11 30 41 67 73 96 83 57 14 36 49 14 12 20 23 25 30 21 26 27 40 50 52 48 38 37 26 15 8 8 10 7 8 9 10 13 10 8
18 59 95 80 96 79 38 81 83 79 91 45 39 42 77 74 88 80 60 23 21 21 19 10 15 26 26 24 26 27 31 41 69 46 60 54 48 37 12 9 8 16 22 9 8 9 10 13 9
53 77 89 99 96 78 83 93 91 58 85 90 89 64 84 74 92 86 75 57 21 13 21 12 11 24 29 20 24 34 33 59 83 66 93 54 35 44 14 10 13 20 22 14 9 6 8 11 10
31 68 82 87 99 91 89 96 83 70 72 97 70 56 68 76 96 86 100 72 53 16 27 14 11 16 36 26 21 27 35 47 53 52 83 67 57 42 24 12 26 31 32 22 9 6 11 11 11
46 79 85 75 79 76 78 70 69 59 34 47 84 46 60 79 100 97 80 81 79 22 22 17 12 13 18 28 19 20 24 32 39 61 51 62 97 41 45 42 22 34 31 24 11 20 13 11 12
87 81 90 83 68 62 63 82 77 58 62 48 67 37 29 75 74 74 64 68 88 46 16 20 12 12 13 18 22 21 27 25 21 41 40 51 62 61 51 53 45 26 16 24 19 15 13 13 10
90 76 85 97 89 72 72 60 64 56 52 44 26 24 23 50 74 95 98 57 85 44 42 18 13 11 12 13 21 19 19 19 23 36 31 44 58 48 78 70 47 40 13 25 33 14 14 14 12
46 94 79 95 90 84 95 86 83 75 44 40 29 12 20 27 77 90 89 98 72 69 68 91 23 11 10 12 17 18 19 22 18 28 29 28 36 46 42 64 49 51 34 19 25 26 24 18 13
83 94 83 65 74 79 83 94 58 44 48 56 26 9 6 22 33 44 75 86 84 84 61 60 63 46 10 12 16 18 17 22 25 22 26 30 29 38 36 34 41 50 44 24 34 26 16 27 15

GFSSGP_500_rhum_084.txt.gz
RH
33 30 35 48 62 95 97 95 90 84 80 31 33 54 51 36 25 17 20 19 21 27 25 26 32 34 46 50 50 52 55 60 67 71 70 58 51 41 40 50 52 54 63 65 60 66 71 73 78
26 34 57 74 75 95 97 97 98 90 58 98 35 35 51 24 18 14 20 20 21 24 21 25 36 42 51 50 50 53 56 61 64 62 72 72 70 62 45 44 60 65 76 88 94 77 83 83 78
28 68 84 94 95 96 98 98 98 92 53 31 21 20 32 24 24 16 19 23 22 25 21 28 38 37 46 42 43 48 53 59 64 67 54 54 78 70 54 57 72 56 64 91 95 93 84 69 61
65 82 95 92 96 92 98 91 98 100 59 43 14 18 22 22 22 19 20 24 23 25 29 35 38 32 40 40 34 36 35 48 62 69 63 61 71 65 61 68 55 55 63 78 76 68 54 54 54
70 78 85 96 89 98 97 96 96 70 51 22 15 19 21 21 27 21 21 21 21 23 26 30 32 29 34 32 29 41 43 44 43 49 52 53 50 62 67 64 62 46 48 56 61 53 69 77 70
62 81 81 87 85 97 98 95 88 85 44 23 15 16 22 18 25 26 20 22 20 17 16 26 33 31 32 33 29 37 40 46 48 52 53 55 55 58 64 69 65 55 47 52 54 53 66 74 61
78 84 78 76 80 77 97 96 95 73 99 25 13 18 21 14 23 25 25 24 22 22 21 25 32 29 35 38 44 30 29 32 45 48 53 50 52 54 57 54 47 51 53 54 56 60 64 49 37
82 83 79 69 81 81 73 92 75 65 65 16 12 14 18 15 18 28 26 21 22 24 22 21 31 30 31 32 58 51 53 54 48 51 60 51 39 41 42 41 38 50 55 56 54 56 34 30 62
72 73 73 70 87 93 90 87 82 64 53 29 11 14 14 24 20 20 33 26 25 26 44 32 25 22 23 22 30 52 64 63 46 43 44 50 34 29 38 38 36 45 53 54 46 34 29 53 48
74 73 60 72 85 95 86 97 93 75 69 53 14 12 15 14 18 20 38 36 33 22 39 28 21 24 20 22 15 35 46 42 33 31 37 34 23 17 22 34 40 55 38 40 32 32 33 41 39
75 67 62 47 76 82 87 93 97 95 92 51 25 12 15 15 14 20 27 88 37 34 36 30 27 22 26 21 20 17 30 34 31 34 35 40 28 31 52 64 42 57 63 47 29 29 27 32 30
62 91 78 47 72 90 84 90 96 93 93 61 35 15 13 14 15 14 22 24 25 22 26 29 30 34 36 28 24 18 14 31 43 41 33 50 29 35 48 61 45 22 21 22 24 25 26 25 29
84 80 85 59 59 79 88 95 98 92 99 60 32 17 14 15 15 15 16 19 21 21 29 26 26 30 37 32 32 19 14 24 36 40 32 48 45 30 45 31 48 46 18 23 21 20 23 17 16
60 77 95 88 64 70 85 85 91 96 87 70 37 17 14 12 16 16 19 15 16 21 25 23 22 21 31 31 32 23 16 32 46 21 27 31 55 31 40 56 43 16 17 21 19 18 22 13 11
57 93 82 91 95 73 87 97 82 93 82 72 54 31 14 10 12 17 20 18 16 20 24 23 24 17 22 55 32 33 26 19 54 39 29 34 28 21 28 22 43 30 17 19 24 20 17 13 9
60 72 90 99 72 55 67 89 92 89 81 69 66 60 38 24 8 14 18 19 16 20 22 17 22 19 17 33 46 39 38 51 38 23 20 40 39 17 15 24 62 60 39 22 18 16 16 13 11
57 81 85 74 64 51 73 78 93 93 82 74 78 76 65 48 10 12 15 18 18 18 24 21 21 21 15 23 39 40 46 79 59 47 22 23 26 32 34 19 30 15 13 13 14 14 15 14 12
53 78 77 67 92 92 74 53 58 81 95 93 84 79 78 60 47 13 18 15 18 21 22 28 21 19 16 21 32 50 56 56 71 57 43 35 18 20 30 22 23 22 12 15 25 11 10 12 13
56 60 82 100 86 97 94 80 72 56 79 75 64 51 65 78 60 45 15 15 16 16 19 22 25 19 15 15 30 39 72 56 52 66 91 58 26 28 26 37 18 20 21 8 13 13 11 10 9
46 65 87 98 69 95 98 100 92 69 58 67 65 48 52 53 71 73 60 30 16 15 17 17 18 21 22 12 29 29 38 51 54 51 55 51 33 21 26 34 15 15 18 8 7 8 10 12 11
32 52 67 69 92 90 99 69 82 56 52 73 71 40 35 43 52 91 66 48 21 18 16 16 18 22 22 17 25 29 34 48 62 66 46 42 25 28 21 11 11 11 12 26 12 7 9 12 12
22 41 60 72 97 94 97 73 95 76 82 78 77 38 45 78 82 94 99 63 32 19 16 15 18 22 25 20 28 34 41 68 84 93 51 48 36 40 24 18 10 10 10 11 18 15 8 11 12
17 66 88 83 85 85 93 82 93 83 94 84 76 62 44 47 89 99 100 81 67 18 25 17 15 22 25 25 40 31 81 61 96 60 62 45 46 30 16 23 13 8 9 11 11 12 8 13 14
17 96 98 89 85 68 83 94 71 60 55 85 97 88 66 70 62 86 93 93 59 24 26 31 13 17 25 27 34 34 31 44 59 56 96 75 59 42 22 12 15 22 19 10 10 13 10 8 13
30 94 89 74 80 57 100 87 74 68 37 52 76 63 80 76 70 75 91 92 65 33 30 34 23 13 23 27 35 31 32 44 68 73 92 68 49 52 15 16 24 29 19 12 7 9 11 11 8
27 88 88 84 96 81 96 83 78 54 72 58 68 64 93 87 75 78 83 90 83 80 33 26 25 14 15 29 30 34 41 44 82 81 74 78 74 65 43 27 43 36 36 17 8 8 9 11 8
15 60 81 99 94 96 82 94 87 62 62 62 71 58 57 88 75 81 92 90 84 70 49 21 30 19 15 18 31 29 34 48 59 68 71 86 81 89 50 55 50 34 30 29 15 9 12 10 10
14 63 94 92 82 70 82 73 61 53 47 45 42 49 51 51 57 59 76 97 95 96 89 77 28 28 16 13 27 36 24 34 47 46 54 81 65 70 55 67 56 47 28 22 23 22 15 16 11
17 33 51 96 88 77 67 73 64 61 49 43 47 55 59 58 57 68 65 80 97 96 98 97 86 46 35 24 21 28 30 27 34 41 45 56 54 60 70 92 66 64 38 18 29 18 20 13 13
25 69 92 99 97 83 86 50 63 68 72 74 82 74 67 55 65 66 59 67 95 95 98 98 96 80 81 55 58 45 42 48 42 40 47 55 52 72 92 87 87 72 66 33 24 28 29 20 20

GFSSGP_500_rhum_087.txt.gz
RH
35 31 39 52 60 86 94 92 76 26 24 37 56 57 46 23 22 21 22 26 24 23 28 33 44 46 47 53 56 72 71 72 71 70 66 60 51 38 41 53 59 68 68 70 65 68 74 68 75
26 35 56 73 88 97 90 98 84 46 39 26 59 49 23 15 21 21 24 30 23 26 36 40 45 46 47 53 51 56 64 74 73 74 75 72 67 49 48 54 69 78 86 95 85 78 84 88 89
24 58 74 89 88 97 94 98 83 75 85 46 48 39 23 18 19 22 26 30 24 30 41 36 48 42 40 40 44 43 64 69 72 59 57 89 72 58 58 65 56 65 87 97 90 94 71 64 85
53 79 97 98 95 97 100 100 97 58 28 20 27 27 23 18 19 23 27 30 29 36 41 34 41 37 33 38 37 42 59 66 70 64 58 80 68 69 65 49 48 65 73 71 59 51 52 65 62
66 83 80 91 94 90 98 100 98 74 20 16 21 21 28 23 20 23 26 25 25 36 38 31 36 36 32 48 47 46 45 54 57 65 65 63 64 72 64 48 42 52 56 49 66 69 74 80 74
75 63 86 78 88 93 99 89 80 55 16 15 20 18 23 30 20 23 23 21 16 22 35 31 34 36 34 35 36 43 48 54 55 55 56 63 68 68 61 53 48 54 60 58 71 75 72 67 78
70 73 82 79 82 99 98 99 87 36 18 17 16 18 20 28 22 26 27 22 21 23 34 28 35 36 55 38 30 33 46 52 55 57 53 57 62 53 46 58 61 57 60 70 69 64 54 62 67
93 93 91 73 78 84 96 84 69 60 24 17 14 16 21 23 27 26 30 23 26 24 29 32 31 26 47 59 61 58 54 58 60 59 48 38 38 39 49 70 60 49 58 59 50 41 66 74 80
96 82 73 73 79 87 75 92 74 64 25 17 14 14 16 19 26 29 29 27 28 48 29 24 20 28 25 46 64 76 53 45 47 48 53 31 43 56 35 46 52 52 53 45 30 49 56 62 77
94 81 69 78 85 87 84 98 86 67 63 44 17 14 16 22 21 35 33 28 22 41 27 23 22 21 22 26 57 53 40 36 39 27 28 19 26 36 40 47 49 45 36 33 33 40 43 46 42
72 77 59 63 84 81 94 98 84 84 90 44 16 15 15 17 22 36 49 64 34 38 32 24 23 23 23 22 28 39 39 36 42 35 34 32 43 62 48 66 72 50 30 27 27 30 30 30 27
66 81 58 47 77 81 80 88 100 97 81 58 24 15 17 16 21 23 42 28 30 34 28 33 36 32 26 23 20 26 42 44 38 37 44 28 37 59 34 33 30 24 29 25 23 31 43 20 15
75 80 77 60 90 87 89 85 97 88 79 66 29 15 16 17 16 17 20 25 22 32 26 34 36 38 31 22 20 19 46 45 46 37 47 38 56 52 55 38 24 24 23 21 26 16 13 10 9
86 70 79 64 82 75 99 94 96 88 80 69 33 14 15 18 17 15 16 17 22 25 24 24 30 40 32 27 24 22 49 39 31 33 48 39 28 50 32 24 21 24 24 22 17 14 15 10 8
86 69 74 78 50 74 85 98 97 90 87 76 50 21 15 19 20 19 17 15 20 23 29 25 20 30 64 29 25 19 42 51 38 39 32 26 32 32 39 29 22 24 31 17 14 11 13 15 10
61 78 67 74 86 84 93 96 98 97 81 88 63 46 22 15 13 20 19 15 19 21 26 25 19 19 43 35 37 53 42 34 28 40 38 27 20 27 64 50 22 18 19 18 14 12 14 15 14
67 82 73 79 97 92 89 94 97 96 88 76 72 71 51 23 20 16 20 21 20 22 26 24 22 18 22 39 38 52 71 58 24 20 30 30 16 17 32 36 22 21 21 18 18 17 13 15 17
68 87 80 90 89 81 94 65 55 95 90 84 85 77 85 56 18 14 15 19 23 21 27 26 23 18 18 34 48 50 76 63 51 27 21 22 28 36 24 27 17 12 14 13 13 14 14 13 14
69 72 73 73 96 87 99 92 56 83 94 84 81 55 73 68 49 18 16 14 16 20 22 27 22 18 13 30 34 74 43 62 70 69 49 21 46 33 27 24 14 13 15 22 13 10 11 13 14
69 74 65 80 87 90 99 94 81 70 78 81 60 53 53 72 71 53 24 18 13 15 17 22 26 22 13 26 32 48 60 54 64 65 59 32 36 34 45 22 22 23 10 18 8 10 10 9 12
63 72 60 68 68 82 92 96 96 92 77 80 84 81 51 52 78 74 65 43 26 16 13 17 20 24 24 16 27 31 40 57 58 42 48 36 32 32 19 18 17 20 15 9 7 9 11 11 9
47 83 92 69 63 79 89 89 91 82 66 72 95 79 50 50 55 89 98 70 44 28 15 13 18 24 26 18 26 34 35 59 67 55 47 41 33 34 13 10 15 12 22 17 8 9 11 11 13
33 74 98 72 73 62 64 65 88 61 65 74 92 86 38 70 59 55 99 93 74 54 23 13 14 22 28 24 30 33 40 55 76 81 50 54 40 32 18 25 10 10 11 16 21 10 12 11 12
33 48 99 77 58 55 52 60 61 90 99 76 87 95 79 53 61 76 97 98 99 90 27 23 16 16 26 26 35 32 33 67 79 54 62 56 55 28 19 26 13 9 9 11 14 12 9 12 13
16 40 92 95 66 48 50 73 70 87 83 78 89 92 90 88 85 65 90 83 97 93 38 28 28 14 19 26 30 35 31 40 64 58 90 70 58 31 24 13 22 25 22 12 11 12 12 9 13
11 25 58 93 79 34 53 54 76 72 58 37 68 70 84 84 86 72 68 83 96 96 71 26 29 33 13 26 28 31 33 36 56 74 81 61 56 44 16 24 28 32 24 16 10 9 11 13 9
14 19 67 93 84 52 44 36 69 78 66 45 57 67 58 98 89 72 92 87 96 94 90 79 25 26 14 16 28 33 32 40 68 82 69 73 74 63 53 28 42 36 35 21 9 8 8 11 11
19 31 67 88 86 60 48 36 71 75 63 64 75 78 67 65 92 82 82 93 91 95 97 88 59 23 22 12 22 31 26 37 51 56 68 74 73 91 72 54 50 42 34 27 18 13 9 10 11
17 37 71 81 66 70 66 44 56 82 66 73 74 76 69 48 51 65 68 83 83 97 97 97 81 86 64 27 12 26 37 27 46 52 62 74 87 73 78 65 62 64 45 25 26 18 20 14 14
27 29 78 90 85 76 67 53 64 74 63 59 50 56 77 54 62 66 81 91 96 97 98 97 95 89 96 46 36 14 20 40 30 46 47 40 60 52 66 79 80 72 59 24 29 31 17 13 14

GFSSGP_500_rhum_093.txt.gz
RH
35 27 42 61 89 63 50 27 22 44 42 28 23 18 18 20 22 25 29 36 42 50 53 57 57 52 51 61 70 75 73 74 56 51 45 47 53 63 72 76 74 69 60 59 62 56 56 70 62
32 26 55 86 96 61 55 27 38 44 36 22 18 15 17 22 22 22 32 36 41 45 46 43 40 41 52 65 72 71 67 78 75 68 65 56 56 63 76 79 82 85 84 69 76 71 70 59 52
24 49 64 89 95 67 40 27 39 35 19 17 22 17 23 20 22 23 36 33 39 42 38 39 42 44 47 60 74 70 62 54 77 73 73 65 70 72 74 85 93 98 92 84 87 94 85 48 43
38 62 74 96 94 92 48 41 86 35 44 24 18 26 18 18 20 26 34 31 33 36 33 42 42 45 50 56 58 62 60 58 80 70 69 68 56 55 78 91 95 96 99 96 96 96 71 52 39
52 57 96 92 92 93 71 47 27 22 31 22 17 16 19 19 19 24 33 32 33 35 36 45 42 46 53 55 60 64 64 69 74 74 73 67 66 73 71 74 67 59 56 68 77 82 79 54 40
50 80 90 84 89 95 62 48 24 20 24 33 18 18 20 21 19 19 30 32 32 34 49 48 33 45 56 53 58 62 58 62 69 74 68 57 58 68 64 60 64 65 70 78 86 91 68 59 52
61 71 88 86 92 93 86 64 20 15 33 30 22 20 21 24 21 21 27 33 30 29 42 59 52 50 63 53 54 60 47 46 56 62 54 85 81 69 67 66 73 73 68 62 68 79 69 65 65
64 69 73 86 100 100 87 54 23 15 19 22 21 20 22 27 26 24 26 29 28 28 23 42 60 66 70 51 50 50 52 51 46 49 61 75 82 59 57 61 66 56 55 72 78 78 66 68 60
66 71 77 81 92 90 80 45 18 16 18 21 24 17 17 26 27 25 40 29 21 21 21 21 44 58 62 37 34 37 49 34 31 62 68 61 64 66 59 55 51 64 73 77 80 83 62 54 48
65 64 77 89 81 91 81 58 15 17 16 18 20 22 20 24 27 23 36 26 23 21 19 20 29 51 42 33 36 34 21 21 23 30 37 45 54 50 50 45 40 54 46 60 93 76 64 46 48
60 73 72 93 87 70 76 60 29 17 15 15 16 20 23 32 32 25 27 34 24 24 25 22 19 30 50 38 36 37 36 34 39 58 45 48 48 42 43 34 34 32 38 43 47 40 39 34 39
73 70 70 90 97 72 92 54 52 17 13 16 15 18 21 27 38 49 30 30 29 32 34 27 23 17 23 39 41 38 38 38 32 52 40 45 59 51 32 27 40 52 33 29 24 21 16 15 32
70 70 64 60 75 80 97 80 67 55 12 14 16 17 20 28 51 55 31 25 30 34 35 28 28 18 17 33 39 38 40 53 45 51 56 40 26 25 24 21 30 40 22 19 15 11 6 6 11
76 65 73 68 88 86 94 88 94 72 33 13 15 16 16 21 25 27 21 24 24 27 31 29 27 22 19 39 26 30 33 38 32 35 42 51 39 25 23 22 19 19 16 10 10 9 5 6 17
69 69 79 71 88 87 93 98 98 99 77 28 14 15 15 17 19 20 20 22 20 21 24 39 28 25 20 51 45 28 34 40 41 37 49 28 27 25 24 21 15 17 20 9 7 7 5 7 34
85 96 88 76 83 96 98 93 96 86 99 48 15 14 16 15 14 17 18 22 22 19 19 31 38 32 33 23 35 32 38 35 28 28 26 34 28 20 24 26 19 17 11 10 9 5 4 5 26
97 100 95 87 92 94 96 98 92 97 98 57 31 12 14 18 16 17 16 20 22 19 16 18 31 36 35 47 46 26 22 36 30 18 25 50 57 29 22 21 21 17 12 11 12 12 5 5 12
96 98 96 96 93 89 96 93 97 97 98 73 55 33 18 13 16 19 15 18 20 19 18 16 22 38 39 42 64 54 20 21 24 25 17 23 33 22 21 19 17 19 11 12 11 14 16 6 10
76 83 84 82 78 84 88 90 96 98 96 89 74 71 41 29 13 18 16 15 20 22 19 17 15 27 40 53 46 70 53 27 18 20 29 32 26 24 14 11 14 14 14 13 11 13 16 11 9
73 77 78 91 87 94 94 97 96 97 99 96 88 88 78 30 12 14 16 16 16 20 24 19 17 17 30 34 66 43 62 58 58 29 39 31 26 23 23 12 16 21 13 12 12 14 14 17 8
73 76 79 86 95 98 94 97 97 96 96 99 96 65 86 55 32 18 13 14 17 18 20 24 20 15 17 30 37 64 53 61 72 38 28 37 36 25 18 20 13 15 15 11 10 9 12 15 13
76 75 75 72 76 97 94 96 96 96 96 97 88 76 75 89 66 52 19 14 13 15 16 19 20 20 17 22 26 46 54 58 59 50 34 31 28 21 14 15 18 9 9 10 11 11 9 9 11
72 74 78 74 68 78 89 94 96 88 96 94 89 87 78 60 83 70 55 48 18 13 13 15 17 19 21 16 25 29 44 55 58 48 38 26 31 22 12 14 14 17 21 8 8 11 11 10 9
63 68 79 82 70 76 89 88 93 92 92 85 90 87 94 62 55 72 88 89 62 18 17 14 15 17 20 24 20 26 33 56 63 54 47 34 31 32 12 10 10 10 16 16 12 9 10 11 12
46 68 71 82 76 87 70 77 84 83 82 72 72 74 84 71 53 57 73 94 79 85 72 27 16 12 16 20 24 24 28 38 69 74 73 46 41 29 20 22 11 9 10 11 15 20 17 11 13
19 42 58 62 63 52 93 58 73 72 62 52 50 54 53 70 43 58 61 76 87 98 96 94 47 20 13 15 22 22 30 32 57 78 61 60 59 52 31 27 32 15 12 11 10 14 13 9 13
13 17 39 58 49 48 76 62 52 58 50 48 54 64 84 83 88 55 68 84 96 97 95 91 90 30 25 24 14 21 23 29 26 48 67 57 78 49 25 30 40 33 23 18 11 10 11 11 9
18 15 20 38 53 29 21 25 23 33 62 55 87 83 93 97 96 94 83 78 87 83 98 95 87 88 45 34 38 40 38 34 30 29 44 62 71 54 48 22 23 44 29 22 16 10 8 9 11
16 18 15 38 36 34 20 14 14 26 31 70 90 85 88 88 94 93 98 96 95 83 93 98 96 95 93 95 86 44 56 41 38 30 38 61 71 78 75 66 47 36 54 43 31 25 14 8 9
13 15 18 17 23 20 22 14 10 29 27 48 87 76 76 83 87 96 95 98 96 97 99 99 91 92 94 93 96 96 86 47 36 32 30 41 63 69 78 82 87 73 60 68 52 34 16 18 18

GFSSGP_500_rhum_096.txt.gz
RH
32 28 49 72 82 63 29 20 45 39 26 16 17 17 20 21 28 32 39 47 47 48 47 49 48 55 68 81 63 60 49 36 39 34 38 48 53 64 70 79 60 51 58 62 58 53 56 48 41
26 38 64 82 93 72 30 26 43 31 18 18 17 18 24 22 27 32 37 40 44 43 38 44 46 62 79 74 73 66 70 65 55 55 52 52 57 69 82 84 87 78 70 63 64 63 68 62 47
26 70 80 100 87 68 27 37 40 19 13 15 17 21 19 20 27 29 31 28 33 44 44 49 54 62 68 77 73 67 77 72 70 71 66 69 83 91 87 90 91 88 76 77 81 70 55 53 58
52 75 88 78 76 41 25 46 38 21 17 17 19 23 18 23 26 28 31 30 28 37 39 45 58 60 61 64 64 57 71 84 73 72 66 61 72 85 91 97 99 96 92 83 95 70 46 44 48
50 89 80 92 67 36 37 67 35 34 18 32 33 22 20 22 27 26 30 32 34 41 38 41 51 55 60 57 62 68 75 70 72 66 66 73 70 75 81 73 78 87 90 94 87 62 44 40 41
58 82 83 88 90 78 54 21 29 22 15 25 23 21 20 19 25 27 28 28 45 49 37 41 54 51 55 55 47 56 68 71 68 61 76 85 79 67 69 75 76 79 90 94 86 74 48 38 37
59 68 81 86 96 55 54 20 22 20 26 18 20 22 20 20 22 28 27 26 32 55 50 50 62 53 53 54 38 51 58 58 57 92 83 73 69 68 68 80 77 72 66 73 77 66 55 42 37
56 70 82 100 96 72 66 17 18 33 26 20 20 20 21 22 23 26 23 27 22 26 48 68 71 49 46 44 45 46 47 43 61 75 74 53 59 67 70 64 55 59 61 74 72 71 60 55 40
71 78 83 94 92 98 64 27 15 22 22 23 20 20 17 21 31 29 22 20 21 17 32 53 64 53 42 38 37 35 33 47 61 60 59 62 56 69 65 58 68 65 65 75 74 66 55 45 36
69 73 82 77 89 78 29 14 16 17 18 24 24 22 16 19 26 34 22 22 20 20 18 45 42 35 34 32 24 26 30 29 35 42 50 53 59 56 42 45 53 52 84 84 77 52 48 42 36
68 71 84 87 91 72 55 14 14 15 29 16 22 31 22 20 23 30 26 23 24 23 20 17 41 40 34 35 36 32 44 54 42 45 49 39 40 39 34 43 42 42 73 72 56 44 39 43 41
74 66 75 92 93 81 56 22 14 14 14 17 16 24 28 26 28 25 28 26 29 29 25 18 15 38 40 38 35 33 33 49 39 43 54 52 33 30 37 37 33 32 32 34 27 26 38 51 49
74 62 66 86 88 76 62 45 25 16 14 14 20 18 25 35 55 30 26 27 30 31 28 20 14 24 36 40 37 48 48 51 51 41 31 24 23 27 39 49 35 24 19 15 11 9 27 48 46
67 69 67 76 76 94 92 76 66 24 14 13 17 21 20 35 35 22 25 25 25 27 29 22 15 30 29 28 31 36 30 38 42 41 31 23 22 24 24 27 18 12 12 10 6 6 13 22 23
80 67 67 67 76 92 98 90 83 49 12 13 14 16 18 19 19 18 21 22 21 23 34 22 16 26 51 28 29 37 46 32 39 31 27 22 20 20 18 17 16 10 8 8 5 9 20 35 44
78 73 73 79 89 97 93 95 92 68 39 13 13 15 14 18 19 19 19 22 19 19 30 26 24 17 22 29 33 34 26 30 28 34 28 23 21 19 14 16 15 8 6 6 4 6 30 41 40
96 79 92 94 97 98 98 97 97 98 92 21 12 13 16 15 17 17 19 22 19 15 19 29 29 34 41 34 20 33 31 22 22 37 40 32 20 21 18 17 15 9 10 9 4 4 14 38 38
97 97 98 91 96 86 96 98 95 95 91 35 16 13 17 16 15 16 16 19 20 17 16 22 30 34 48 58 35 19 23 23 16 25 38 45 31 22 15 18 16 11 10 13 13 5 7 21 37
86 87 96 98 100 96 96 96 96 98 96 54 37 15 13 15 16 16 14 18 18 17 15 17 27 37 49 53 60 29 18 16 19 15 19 24 15 13 17 16 14 13 14 12 14 14 7 12 24
94 96 96 97 94 91 97 97 94 97 96 70 60 47 33 16 14 17 17 16 20 19 16 14 19 27 37 57 47 54 37 29 29 36 30 22 22 17 10 14 15 12 12 12 12 13 12 10 17
91 99 96 96 97 98 97 93 94 98 97 83 65 74 62 36 14 15 18 18 18 21 21 16 13 15 25 29 63 72 62 64 30 32 34 32 22 21 12 13 14 15 10 9 10 12 14 10 14
86 84 86 85 84 97 95 95 95 96 97 94 80 72 87 43 16 11 12 16 19 19 20 23 18 16 13 22 28 63 66 60 44 32 29 27 22 14 15 17 11 11 8 9 10 9 11 12 9
96 82 83 77 92 73 95 95 95 97 97 98 92 59 79 84 54 34 22 12 12 16 17 19 20 20 18 15 26 44 58 62 47 35 36 30 22 12 12 13 16 8 6 6 9 10 9 9 8
91 89 80 77 78 68 87 86 90 89 96 96 78 73 57 63 78 68 64 44 18 14 14 14 15 16 18 19 25 33 42 60 75 61 44 26 26 23 11 13 12 14 17 9 7 8 10 11 10
64 86 84 84 99 100 96 86 70 96 96 90 94 92 91 87 58 54 67 73 71 30 17 13 12 14 16 19 21 23 35 52 68 75 70 40 40 41 17 15 19 10 11 14 14 17 17 11 11
34 67 91 89 100 100 66 68 72 74 79 81 87 83 73 75 77 61 66 90 90 52 26 38 28 16 12 18 21 22 25 42 55 71 76 72 51 53 37 26 30 15 9 10 10 16 23 19 14
20 43 71 95 95 100 88 62 66 70 69 70 57 59 89 95 86 58 67 82 83 82 87 95 99 83 26 18 14 21 28 34 32 67 80 79 87 68 46 33 32 34 25 16 11 10 11 9 16
19 23 75 63 100 97 98 94 71 65 72 59 49 83 97 97 81 69 57 75 78 96 99 96 95 89 73 30 26 37 33 38 34 37 54 69 69 78 76 47 32 37 41 38 26 14 9 10 11
18 17 22 83 89 86 90 98 61 60 60 53 41 86 95 100 94 96 93 60 66 89 98 97 97 96 82 69 48 52 59 35 39 38 39 43 55 62 85 78 81 56 57 59 52 41 19 8 8
13 19 17 28 80 90 95 97 74 24 29 33 44 85 92 97 96 93 96 97 91 73 87 93 97 96 98 92 84 94 86 81 59 44 39 44 60 71 77 81 76 76 78 59 69 66 50 37 14

GFSSGP_500_rhum_102.txt.gz
RH
26 55 65 94 89 54 39 45 36 17 19 18 20 25 32 34 30 40 42 39 38 43 55 64 66 64 51 31 41 60 64 58 54 38 45 49 51 58 67 69 58 55 59 63 62 48 38 47 52
52 95 96 97 97 65 37 36 28 16 17 18 30 25 27 26 23 34 42 39 58 51 58 61 71 64 60 50 48 42 38 36 40 42 49 61 69 80 76 74 64 65 62 58 57 43 37 30 47
78 85 88 98 93 23 31 33 26 17 17 24 55 23 26 28 25 30 35 39 43 55 57 54 51 58 57 52 60 54 46 47 56 52 61 64 81 86 82 91 89 78 72 62 61 58 43 34 44
85 70 83 98 78 27 32 32 17 16 15 24 24 21 24 28 33 36 40 36 51 53 53 51 53 50 52 57 59 58 64 64 65 68 72 79 80 85 91 87 90 86 90 73 66 60 43 33 37
82 78 85 98 63 33 36 29 13 14 18 27 19 23 19 21 27 36 37 35 43 50 47 47 47 48 56 65 69 67 68 63 64 73 79 82 87 96 93 94 94 92 90 87 69 48 48 38 38
98 83 88 97 42 29 39 24 15 15 30 33 18 22 23 28 18 21 39 58 40 52 47 45 41 37 53 60 61 62 62 66 78 73 74 77 67 72 82 76 79 90 87 73 43 41 47 41 36
84 89 96 68 40 28 51 26 24 27 31 17 17 19 27 23 24 13 32 31 50 57 45 42 41 34 44 52 55 51 63 71 61 62 60 66 64 66 68 76 80 78 64 46 36 33 41 39 33
85 96 96 91 62 39 41 30 18 25 50 18 19 21 26 20 16 14 12 32 45 54 48 41 36 43 40 40 43 60 70 50 49 60 60 60 63 65 63 59 60 65 63 48 34 32 36 32 32
73 64 98 96 85 53 35 21 16 16 17 20 21 22 26 19 17 16 14 20 31 39 38 31 30 32 32 38 54 60 64 70 77 81 76 55 58 61 70 55 58 59 61 53 44 35 39 36 38
72 95 98 98 98 45 17 19 26 36 34 32 19 18 29 20 18 17 17 14 21 32 29 26 17 25 36 36 41 41 58 73 76 54 67 46 44 49 59 54 62 66 62 55 51 42 48 33 37
72 98 91 92 98 92 30 19 23 63 19 17 20 21 24 21 19 20 21 18 14 19 32 25 21 20 37 44 36 43 46 46 56 42 36 43 44 48 78 70 80 65 55 56 47 52 43 58 31
77 93 89 86 79 82 29 15 25 24 21 17 18 19 20 21 20 22 23 23 19 12 29 29 26 26 27 36 39 38 43 40 61 48 31 34 31 32 50 61 94 64 72 64 40 40 32 31 32
67 75 85 93 96 75 33 20 15 30 60 19 21 20 20 21 18 23 26 23 22 14 22 28 31 30 36 36 37 32 27 20 21 32 41 48 18 15 24 45 44 87 55 38 42 40 30 31 29
66 63 82 86 78 75 67 14 25 76 91 16 20 25 24 28 17 19 23 23 22 18 21 26 24 26 34 28 33 30 22 19 16 20 27 18 9 23 29 67 46 31 36 44 43 58 28 26 27
64 62 66 77 93 87 88 46 16 14 15 14 16 19 26 38 24 15 21 21 24 19 17 42 23 24 28 26 28 30 22 17 17 19 27 26 51 50 25 10 5 14 31 39 34 28 29 26 16
64 63 62 67 78 78 80 89 42 16 12 12 14 16 21 37 24 16 16 18 27 22 16 29 24 24 29 27 27 27 20 15 13 14 14 14 12 84 12 6 5 8 19 30 31 29 23 15 34
61 62 65 64 82 77 90 97 84 68 17 11 12 17 18 30 23 15 14 16 22 25 22 17 21 18 23 23 21 20 22 21 13 11 11 11 14 13 7 5 3 4 12 19 22 20 24 33 35
85 76 67 57 70 52 69 93 99 86 39 13 13 16 17 21 22 16 14 14 16 24 26 29 35 31 17 16 17 15 29 25 19 11 11 12 12 9 11 10 6 5 6 10 24 32 32 30 28
95 97 93 62 85 75 86 94 98 96 91 53 13 14 14 17 18 16 15 14 14 17 26 30 39 53 38 16 15 16 13 25 32 24 14 11 11 12 10 9 11 95 7 8 7 15 24 29 29
68 96 98 94 97 88 87 90 97 98 96 64 18 75 16 13 16 15 16 15 14 15 19 27 44 49 54 41 28 24 14 16 16 24 14 11 10 10 12 13 17 16 12 11 9 11 13 19 31
88 78 90 97 82 95 97 95 96 96 97 96 37 20 16 21 14 14 14 16 16 14 15 18 40 51 50 60 45 48 23 45 39 28 20 16 13 10 11 16 28 24 30 14 12 9 13 16 17
98 94 80 85 96 95 97 96 96 98 97 97 82 20 100 49 17 15 14 14 16 15 14 16 24 50 43 60 73 68 65 68 54 39 38 25 18 17 10 13 16 43 54 21 13 9 8 12 13
95 75 93 93 96 96 96 100 97 95 96 90 92 36 16 58 15 16 15 15 14 17 16 16 16 24 30 32 62 59 70 76 48 40 71 43 28 12 15 14 12 18 47 42 15 8 6 7 13
96 95 82 86 94 94 94 93 88 91 94 95 97 73 93 68 40 98 16 14 15 16 16 17 19 22 22 21 34 68 68 69 58 78 74 60 35 14 9 10 16 13 18 25 11 11 8 11 11
97 95 94 84 93 91 93 95 98 77 86 88 95 90 63 49 37 52 97 26 12 14 17 16 17 20 19 19 16 29 61 68 82 82 75 42 44 33 20 22 27 15 20 28 14 18 10 12 11
98 87 93 82 86 82 87 97 97 67 52 68 90 95 97 96 94 79 60 90 44 14 48 19 40 14 18 16 17 19 22 46 61 80 89 87 82 80 50 38 29 20 19 10 11 12 13 16 11
98 68 90 84 97 98 96 95 71 68 57 56 77 96 96 93 85 69 92 93 80 76 45 32 29 18 18 13 14 17 23 22 41 60 66 75 75 68 83 57 38 30 19 10 10 9 13 14 33
79 97 61 78 92 96 96 90 97 78 74 79 79 67 81 95 96 94 96 92 94 66 97 71 80 38 49 30 24 18 25 34 29 34 45 64 81 92 89 57 41 28 31 31 24 17 18 16 22
19 57 80 90 90 92 96 93 95 94 89 85 69 63 61 60 84 96 77 89 69 79 85 92 96 88 96 90 87 60 36 33 29 33 34 30 47 72 94 69 73 41 32 35 43 39 40 40 30
61 71 79 80 86 96 96 83 86 98 96 90 62 57 49 48 46 71 70 93 42 86 60 58 67 74 74 95 77 78 72 81 42 42 47 38 38 40 43 61 60 72 71 66 53 55 51 51 44

GFSSGP_500_rhum_105.txt.gz
RH
35 67 79 96 95 47 40 38 19 15 17 21 27 25 26 26 36 43 54 47 53 54 61 61 60 54 34 63 83 79 76 60 51 81 63 45 48 55 53 58 51 50 59 56 48 41 52 36 39
74 85 94 95 88 31 33 18 15 15 17 29 24 25 29 25 33 37 43 53 61 55 57 60 55 60 46 42 46 44 37 37 36 45 46 51 65 61 67 71 60 55 56 55 40 33 35 39 37
89 89 100 97 98 30 43 23 14 14 18 59 20 26 28 30 35 31 40 48 54 53 54 52 58 55 53 58 46 45 49 52 57 52 62 68 71 74 77 82 77 70 61 53 50 36 29 43 38
83 85 90 97 61 28 43 31 9 15 19 26 20 27 22 31 37 43 33 44 48 45 49 51 50 55 55 58 56 55 51 56 59 64 69 74 78 79 79 78 79 77 65 58 55 40 31 42 42
72 87 91 99 28 31 37 26 10 14 19 18 21 20 21 22 38 39 46 44 46 42 37 32 44 58 69 69 63 62 57 56 64 64 67 70 74 78 82 85 83 84 75 60 56 36 34 33 44
92 87 95 92 36 28 41 21 12 14 32 16 22 22 25 19 25 56 68 56 51 39 38 29 34 48 52 51 54 56 66 71 67 65 61 62 72 74 72 73 85 86 88 82 48 44 35 35 47
75 87 97 66 25 50 42 23 15 21 27 16 20 25 20 21 18 26 41 52 55 38 31 35 35 35 41 42 61 60 64 52 54 55 60 62 66 71 75 75 78 65 63 48 42 45 35 35 46
78 97 87 75 46 53 57 30 20 30 21 18 20 23 18 17 16 17 36 35 46 41 37 36 36 35 35 50 57 56 44 51 61 61 65 77 77 73 73 73 67 60 43 35 35 42 34 39 42
59 77 88 92 50 43 56 97 17 18 20 19 22 23 18 16 16 13 20 25 31 25 26 26 31 34 43 50 54 57 66 72 73 71 69 80 66 70 70 72 66 58 49 35 34 36 30 42 39
70 97 95 98 82 77 37 35 22 16 15 19 19 26 22 17 16 16 14 24 32 36 23 19 30 37 35 37 49 59 78 80 76 71 58 54 62 62 60 66 71 76 55 49 36 33 32 43 37
58 97 95 90 74 49 46 26 24 86 32 23 17 19 22 19 18 18 13 12 30 25 21 17 23 34 35 35 41 52 72 48 68 59 59 69 86 62 58 77 86 81 51 60 52 42 53 41 39
60 78 92 98 92 97 39 23 25 29 15 17 16 16 18 20 21 15 18 12 20 26 22 23 24 30 29 29 35 27 49 58 35 35 51 33 78 80 76 91 92 74 51 50 62 48 33 36 32
72 69 84 96 99 99 68 26 20 26 18 16 16 18 18 18 21 16 14 15 16 27 18 25 27 32 32 28 23 19 22 33 34 45 38 33 73 86 78 87 83 58 44 48 37 34 31 28 29
77 84 74 96 91 97 49 54 31 22 22 19 18 20 21 22 17 17 15 19 14 26 20 22 25 23 28 26 22 16 16 14 75 23 18 42 66 73 59 51 54 58 56 36 31 28 26 24 23
97 76 56 87 100 93 74 51 14 65 29 18 15 18 24 31 19 19 18 20 17 26 30 19 23 23 26 26 18 16 15 15 36 32 60 56 36 26 39 22 38 47 48 39 45 29 25 25 21
54 62 75 73 98 88 98 78 40 58 64 27 14 14 19 26 28 15 18 24 19 15 31 18 24 23 24 21 18 14 15 12 11 14 27 80 35 30 7 9 30 37 36 39 30 26 26 16 30
65 67 78 90 89 94 98 98 92 39 13 11 13 15 16 20 25 14 15 21 20 17 18 24 19 19 20 19 20 26 14 12 11 11 12 20 19 7 4 6 16 27 37 35 28 23 20 24 36
61 78 93 98 94 97 93 100 97 83 71 18 12 13 15 16 17 14 13 18 19 21 24 26 24 15 21 22 28 34 21 12 11 11 12 10 10 17 5 25 14 14 28 24 22 28 32 34 31
59 81 100 92 98 97 99 100 85 87 76 39 11 10 12 17 16 14 15 14 17 21 29 36 43 23 16 16 16 22 27 22 14 12 14 12 12 13 15 32 25 16 9 26 32 31 30 31 29
61 86 99 87 83 99 97 98 89 97 98 96 81 29 19 12 13 12 17 14 15 19 25 36 48 58 28 22 18 18 19 23 27 21 14 12 12 10 14 26 32 23 9 10 9 23 31 31 31
76 76 82 93 93 100 97 98 94 94 97 100 93 62 9 10 13 12 16 18 14 16 20 32 52 52 50 44 40 22 25 18 38 27 15 12 11 12 21 42 42 31 14 10 11 24 19 27 24
97 99 88 84 80 95 96 97 95 98 98 91 100 85 44 12 12 12 13 18 18 16 15 18 39 52 61 56 82 68 72 54 67 43 34 21 17 11 14 40 38 47 34 15 18 12 15 16 18
93 96 90 77 81 87 97 97 97 98 97 90 100 91 69 11 13 12 12 15 17 19 16 14 19 50 34 50 75 73 73 78 49 48 54 42 22 18 12 11 19 49 55 15 19 17 12 14 16
82 98 98 97 74 88 95 97 97 99 96 93 92 92 77 30 41 13 12 14 14 18 20 19 17 21 35 33 52 69 78 72 64 69 76 42 36 14 14 13 17 26 26 32 23 13 12 10 16
75 96 95 98 89 78 96 90 97 92 92 89 92 83 61 50 60 81 11 13 16 16 17 20 21 24 26 27 21 57 66 76 92 69 75 55 43 50 29 25 19 23 34 49 26 14 11 10 8
58 78 94 96 90 85 90 85 97 86 68 53 71 79 90 31 26 46 60 19 16 15 15 17 17 17 22 20 20 18 28 60 72 89 93 85 54 86 61 46 38 35 27 20 18 18 19 15 14
64 64 71 79 78 92 96 97 96 76 63 51 83 87 89 82 92 90 69 72 41 24 24 13 16 21 15 21 18 20 20 23 46 61 84 96 93 87 67 85 45 35 27 17 10 14 13 20 20
88 78 69 81 54 83 94 97 94 80 78 72 63 71 96 95 62 41 96 89 68 97 69 90 72 46 18 23 16 18 19 24 26 32 68 74 79 93 88 88 60 39 36 31 22 18 14 20 18
81 37 88 86 57 92 88 94 97 94 76 95 77 72 65 93 96 85 65 73 97 96 96 74 86 90 54 58 52 85 42 31 31 34 34 43 80 90 84 87 84 64 36 30 38 40 37 36 24
58 42 71 77 60 81 94 92 95 90 90 68 79 84 71 81 96 88 93 89 88 98 100 92 92 95 94 94 96 98 91 89 67 38 34 41 39 41 61 86 84 91 83 63 57 52 58 53 52

GFSSGP_500_rhum_108.txt.gz
RH
44 82 82 97 85 47 15 11 13 18 22 24 24 24 34 34 37 65 58 50 46 57 62 68 52 44 89 94 94 78 74 91 94 81 63 53 51 47 53 53 50 59 50 47 44 44 38 66 73
72 76 93 97 87 33 12 10 12 19 27 21 26 26 35 37 32 49 59 51 44 46 50 58 50 36 50 62 63 61 61 49 50 52 56 60 58 65 68 63 57 60 56 41 38 44 32 69 70
55 74 100 98 56 25 20 11 13 17 56 24 29 29 33 39 40 55 54 44 40 44 46 48 46 49 51 41 42 43 46 49 51 58 69 78 82 77 74 74 63 57 50 42 31 36 33 53 65
57 73 86 81 82 25 18 18 13 17 24 28 26 24 32 45 45 55 56 41 35 37 42 47 56 55 66 67 60 60 62 65 64 68 82 93 86 76 83 87 75 63 53 50 34 36 38 50 50
48 75 91 67 38 29 12 16 14 20 23 24 23 26 30 38 42 48 47 42 35 36 35 47 57 68 74 76 77 71 68 72 69 72 73 78 79 80 80 83 81 67 59 52 34 35 40 48 52
43 90 95 68 27 27 16 14 14 25 28 22 25 24 18 31 53 74 56 49 36 33 30 36 51 59 64 65 64 76 76 72 70 71 75 83 82 78 81 82 82 70 60 53 32 34 36 43 49
38 78 97 70 29 27 18 14 14 37 25 19 24 17 17 18 38 61 38 53 31 29 34 34 43 48 61 59 66 55 62 64 71 67 73 71 70 66 71 81 80 83 74 48 36 36 44 47 38
61 96 86 95 38 42 32 23 13 36 17 20 23 17 17 14 26 35 44 45 30 32 32 35 37 48 62 74 49 47 57 60 54 56 65 63 56 58 68 68 58 59 46 44 37 36 45 42 26
66 95 87 96 67 47 54 28 15 32 17 20 25 20 16 15 18 28 32 43 30 23 32 35 40 50 57 59 60 71 72 73 65 68 70 72 62 65 67 61 59 38 37 42 36 35 43 42 31
72 83 95 97 66 36 44 96 15 21 21 19 24 26 18 17 17 22 34 42 33 16 31 35 36 40 48 62 71 80 82 80 61 62 63 72 72 73 70 62 50 46 34 38 33 38 41 42 33
68 73 90 94 96 44 28 36 16 16 21 22 18 25 21 18 19 13 26 26 23 19 22 33 34 37 44 45 68 51 53 50 61 58 78 79 61 71 76 73 61 53 43 36 31 42 38 35 30
97 72 93 96 95 79 47 16 21 81 44 22 18 19 20 19 24 19 14 25 25 25 25 31 33 36 35 38 42 58 47 36 63 52 83 79 62 64 78 77 64 57 65 41 34 51 38 32 29
60 84 98 96 93 80 39 15 19 29 40 29 21 20 19 21 25 23 12 24 30 24 26 31 34 33 36 36 39 35 40 44 39 46 86 78 89 90 100 82 55 56 71 56 43 41 35 31 22
60 55 86 89 97 98 94 34 23 25 34 22 21 20 18 18 22 25 16 20 25 26 27 31 35 32 29 23 20 28 32 33 22 53 63 77 52 67 85 58 48 50 51 41 33 31 30 27 23
51 98 83 87 91 97 83 80 48 68 35 26 22 20 20 26 23 24 20 15 28 21 22 24 28 33 27 23 35 15 34 32 52 47 19 29 32 43 50 56 50 46 32 33 30 28 27 22 29
40 67 92 98 84 94 92 81 25 24 37 23 16 18 21 30 18 22 20 17 19 24 22 26 26 28 25 22 18 14 13 12 18 35 47 19 8 18 41 55 64 66 62 39 43 36 25 19 27
41 88 75 97 96 96 92 83 45 46 90 57 24 17 16 22 26 18 20 20 18 24 20 26 26 27 22 22 17 14 21 13 10 10 15 9 7 20 39 49 65 64 41 46 29 40 21 21 33
68 83 74 98 97 97 92 97 99 84 48 24 26 13 15 19 22 22 18 21 22 18 23 18 22 21 19 39 37 20 12 10 9 8 8 16 15 34 18 28 37 41 26 25 25 22 26 36 28
60 79 85 98 98 97 96 97 95 91 95 55 19 10 14 16 24 20 17 20 25 28 30 31 19 26 24 25 40 27 17 13 14 12 10 9 13 29 16 33 29 30 26 30 35 33 32 29 26
57 67 87 93 97 97 96 97 94 94 97 83 68 18 10 13 15 19 17 16 21 30 33 45 42 21 18 18 18 27 32 28 21 34 16 14 11 32 27 24 14 11 25 30 30 30 28 29 29
71 94 96 96 91 87 96 97 92 98 100 93 98 90 74 17 15 19 14 15 18 22 28 43 54 48 34 27 20 16 18 20 34 15 12 12 15 25 46 32 22 10 9 11 20 25 28 31 38
86 93 96 96 82 81 86 96 97 99 100 95 95 97 90 37 15 18 17 14 15 18 23 40 50 57 61 44 38 32 38 35 47 41 28 17 16 21 39 34 48 24 12 13 25 27 24 21 24
91 89 95 95 91 78 62 89 96 97 84 78 97 93 91 80 17 16 20 15 14 16 16 24 49 44 66 62 93 88 74 63 50 45 36 27 20 16 17 32 44 53 18 10 14 32 20 18 20
84 88 92 100 87 77 66 78 91 88 97 99 98 81 83 96 82 16 16 18 13 14 13 15 24 51 36 58 81 82 81 72 69 49 73 36 23 15 16 12 22 37 38 26 18 19 20 23 18
77 78 84 97 93 84 87 81 96 96 87 98 98 96 95 96 97 36 15 17 14 15 14 16 17 23 34 38 44 84 77 81 77 74 73 54 46 20 20 13 15 22 26 44 21 13 11 15 25
72 92 89 93 92 97 97 88 95 97 97 96 88 90 90 75 96 46 24 17 16 14 16 16 19 20 25 25 24 34 67 69 83 80 68 63 46 57 33 35 22 20 24 44 40 26 20 15 20
66 75 92 80 80 79 98 87 81 96 92 68 58 70 73 89 99 82 51 30 17 15 15 15 16 18 20 19 22 19 20 34 59 70 82 88 80 89 80 57 56 37 36 24 12 14 12 15 18
51 51 54 64 62 52 83 95 90 94 83 65 70 74 72 95 100 64 40 84 73 29 17 18 19 16 18 18 16 18 20 19 20 29 53 75 95 91 91 88 72 41 33 26 26 15 17 15 18
46 33 33 53 47 41 76 86 95 94 71 74 78 71 80 97 98 51 54 50 68 79 29 46 40 36 36 19 18 15 16 16 18 28 30 45 68 72 94 95 90 59 41 32 33 37 31 26 24
66 58 99 75 88 90 88 70 95 91 75 82 89 80 83 96 97 98 72 88 88 98 79 98 84 77 59 36 40 76 92 73 56 31 33 32 33 46 83 81 82 85 85 62 42 40 42 49 50

GFSSGP_500_rhum_111.txt.gz
RH
43 84 91 90 89 45 15 14 22 24 31 28 28 32 33 42 53 60 63 62 54 49 62 50 64 93 96 94 94 97 97 91 96 94 83 72 56 52 55 51 47 39 45 48 44 52 60 54 61
50 91 98 96 89 44 14 12 25 45 27 28 32 35 37 51 62 61 60 58 55 48 53 49 46 76 76 70 71 73 65 72 86 89 78 75 81 82 54 52 59 54 48 50 42 61 72 74 70
51 88 89 87 61 30 14 14 23 56 27 25 24 36 44 50 63 61 57 50 50 52 56 55 41 46 50 49 42 51 56 61 59 69 70 75 78 76 69 57 54 52 39 47 36 57 73 76 74
68 68 84 85 70 26 11 14 20 20 20 22 27 36 40 55 57 54 49 39 34 48 57 56 58 60 52 53 62 68 66 65 68 77 76 85 82 79 78 78 60 51 41 33 36 48 66 58 43
53 64 91 77 43 21 10 14 21 24 22 28 34 37 35 45 48 54 45 38 26 43 58 66 69 70 69 72 75 72 75 75 75 74 80 83 78 78 79 77 88 59 48 33 40 47 54 41 26
47 72 81 55 27 25 11 13 24 31 21 29 33 27 27 57 69 62 43 36 33 32 48 58 62 70 69 68 76 77 77 78 74 78 78 77 76 78 80 81 68 63 46 36 43 45 56 60 29
50 62 83 74 29 29 14 14 22 31 22 27 29 22 25 69 64 59 43 34 36 36 43 49 57 62 74 71 67 75 75 79 70 77 76 74 73 88 90 88 65 62 47 36 37 48 50 43 21
38 60 84 95 62 36 20 16 23 28 20 23 30 18 17 68 54 39 41 37 46 41 40 47 62 72 59 54 60 63 60 62 66 76 72 73 74 90 91 90 84 62 49 38 38 48 46 25 17
38 77 99 94 87 44 29 26 21 30 20 24 28 19 16 29 38 36 46 31 40 38 40 48 51 59 53 56 70 70 67 71 79 82 95 81 74 71 62 64 63 48 49 38 41 48 34 25 16
39 78 97 96 90 83 32 28 20 30 21 24 26 21 18 15 35 44 41 35 32 37 38 39 42 52 60 76 79 82 65 60 66 75 76 72 77 70 63 51 40 41 44 35 47 50 41 27 18
61 100 79 94 89 69 37 57 17 16 20 24 27 23 21 20 18 53 28 41 23 36 39 36 38 42 57 50 46 42 62 60 63 84 64 66 70 75 59 52 39 37 40 34 44 47 40 26 24
68 79 94 96 89 66 44 69 21 17 21 24 22 24 24 24 21 19 28 26 26 32 36 34 34 35 36 54 60 42 56 54 88 83 68 54 70 77 73 53 41 34 34 36 46 42 34 26 25
44 72 93 92 96 91 80 78 45 31 33 24 19 22 24 26 26 18 26 23 25 30 38 32 34 36 38 37 35 38 38 57 72 69 83 59 75 80 72 54 51 35 32 40 46 38 32 25 25
46 43 80 77 96 99 88 52 24 36 27 32 19 22 23 28 28 26 31 20 24 30 37 37 31 23 20 55 35 44 28 60 46 49 57 73 87 83 57 54 69 55 38 51 40 36 29 22 26
25 38 56 98 95 98 96 73 62 24 94 38 19 23 25 30 26 28 18 25 22 26 34 35 31 24 29 15 27 44 54 39 29 34 27 56 65 55 56 56 69 58 45 39 35 31 26 21 25
22 40 96 97 98 98 96 96 69 72 77 29 19 25 28 24 24 24 18 29 25 25 28 30 27 23 21 15 13 13 23 39 50 15 12 25 39 53 63 55 36 37 32 27 29 28 22 22 25
32 35 67 81 91 91 98 97 96 70 62 70 21 19 29 37 21 19 23 20 32 24 28 28 30 24 19 15 15 16 12 17 22 15 8 21 33 60 68 50 55 34 32 37 32 28 21 26 26
44 44 94 98 95 97 97 96 84 76 75 53 40 17 25 32 18 15 22 18 24 26 25 31 28 25 21 23 18 12 14 13 13 27 14 33 20 30 56 58 40 46 43 32 33 21 28 33 26
32 46 77 99 84 96 97 97 96 87 94 86 23 26 17 29 24 14 18 23 22 24 21 24 26 24 43 39 28 13 11 13 19 28 27 46 15 21 29 28 41 37 24 20 22 30 38 29 26
30 69 73 93 94 97 97 97 97 97 95 86 58 21 13 20 20 13 16 19 25 31 33 24 24 27 31 38 25 16 11 26 30 22 14 41 48 43 17 10 17 20 25 28 32 36 31 27 22
23 50 64 82 95 93 92 97 97 98 98 99 86 51 16 18 21 18 15 16 19 29 37 48 23 20 19 19 30 32 28 23 20 22 20 12 19 41 36 20 9 10 15 24 27 30 30 30 32
32 74 72 95 93 95 82 86 97 97 95 92 100 100 88 88 30 20 15 17 16 21 32 48 55 36 32 28 18 19 18 39 28 42 18 20 23 42 51 47 20 10 9 16 22 22 23 29 32
46 90 98 86 87 92 78 78 94 97 99 88 100 98 93 100 24 24 18 17 16 18 23 39 50 53 50 46 28 42 35 60 40 36 28 18 15 19 39 41 40 28 15 19 27 20 14 16 19
69 79 96 80 82 80 66 59 67 89 82 98 98 96 100 87 72 22 17 15 16 16 18 24 44 45 62 59 86 79 98 62 52 46 38 31 23 15 14 16 37 56 23 15 14 30 29 21 18
58 80 79 69 90 84 76 54 63 58 81 90 96 90 100 94 100 40 16 19 16 18 17 16 16 41 37 42 75 77 84 82 67 65 70 37 30 15 15 15 17 25 30 30 28 18 15 20 16
80 60 58 68 93 88 96 81 84 74 77 92 91 100 97 90 98 85 27 19 15 16 18 16 14 15 29 35 32 65 79 86 87 78 74 70 60 45 24 22 14 17 20 26 44 24 15 12 12
85 69 83 70 80 76 77 99 84 74 91 96 97 98 91 80 100 99 94 17 14 15 17 19 17 16 17 25 26 23 50 62 70 79 83 76 85 56 73 45 44 30 28 25 23 31 17 15 17
74 97 89 82 73 72 66 93 99 88 84 98 96 98 95 99 99 95 85 45 20 17 16 17 19 18 17 18 21 22 18 21 30 41 61 88 92 86 95 82 59 68 38 31 29 17 11 14 15
46 59 67 66 51 54 49 71 90 94 88 96 95 91 74 83 86 83 98 90 66 28 16 17 19 17 16 18 16 17 17 16 18 21 22 36 58 81 81 90 82 78 54 41 36 33 30 28 20
60 68 73 53 37 34 40 48 73 89 87 81 83 92 78 74 79 99 100 94 99 91 35 22 26 27 23 15 17 15 19 15 15 16 20 29 33 47 64 80 90 83 60 61 41 34 33 39 41

GFSSGP_500_rhum_114.txt.gz
RH
38 69 88 95 99 45 16 27 25 29 27 31 35 39 51 61 49 47 49 64 58 58 71 97 97 96 96 92 98 96 95 85 67 58 60 63 60 49 48 50 42 49 46 49 54 55 52 65 60
40 52 72 87 85 34 18 36 45 23 28 31 39 42 56 56 49 42 51 56 62 57 55 68 72 85 70 77 78 69 94 96 89 80 72 70 77 74 56 48 47 47 49 58 65 66 77 61 57
36 39 76 87 67 28 17 23 41 24 25 27 35 45 52 60 54 42 47 45 50 54 45 38 44 49 46 45 55 53 49 63 73 78 81 88 89 70 57 58 49 48 51 50 77 82 97 90 80
32 49 92 87 58 29 22 19 17 21 24 22 37 39 47 50 50 43 42 44 47 49 48 51 52 42 46 53 63 64 65 58 67 74 82 79 77 74 80 61 51 41 47 44 80 92 85 88 55
39 54 81 73 27 29 19 19 21 19 22 20 18 37 53 54 53 42 38 41 55 56 59 63 66 61 67 70 72 76 78 81 78 83 86 89 88 91 92 79 57 37 41 39 72 75 46 53 35
43 66 75 36 24 26 15 20 27 20 24 24 22 24 51 74 76 40 37 42 53 59 62 67 78 70 70 68 73 79 83 77 78 78 85 90 91 93 91 93 89 52 40 40 61 51 43 28 23
40 58 93 74 26 26 15 16 29 20 22 24 26 21 61 71 84 38 35 40 46 46 49 59 65 71 68 82 82 81 84 80 86 86 88 93 98 94 87 78 65 53 39 44 52 55 42 30 22
40 59 86 95 86 30 15 12 28 20 22 24 23 23 47 66 59 34 37 50 43 44 57 64 58 47 54 61 65 68 76 75 77 80 75 75 85 90 90 70 65 45 38 43 51 50 22 23 27
44 76 92 93 95 60 41 17 30 38 23 26 20 20 18 32 45 36 35 35 40 48 52 53 52 54 78 84 78 78 79 77 78 70 68 79 89 89 86 67 59 50 37 40 48 37 23 17 22
47 62 86 98 96 96 80 27 31 24 22 26 21 19 18 31 45 52 29 33 35 39 44 52 61 72 85 88 83 70 72 91 89 90 71 70 69 66 81 82 53 46 37 43 48 26 22 24 18
67 60 97 92 98 97 78 41 26 22 22 24 26 20 19 18 50 39 28 34 33 33 38 46 61 52 63 51 66 62 61 75 78 72 72 72 61 58 51 50 53 43 38 53 49 33 20 29 17
38 58 99 97 97 98 77 56 21 20 22 18 29 21 21 20 18 30 24 29 34 30 32 37 46 57 75 47 55 58 83 90 83 68 72 75 69 55 49 39 41 40 36 53 52 31 20 27 17
35 74 84 94 96 70 68 58 30 21 20 17 22 23 23 19 24 26 26 26 33 32 32 36 38 46 54 41 41 53 69 76 84 71 60 74 74 77 54 40 38 36 40 45 44 32 25 27 18
13 46 68 74 83 96 67 81 58 38 44 19 21 22 23 21 20 24 32 27 29 33 27 28 24 42 44 40 33 49 44 48 64 75 63 81 80 76 56 47 36 33 42 43 37 30 24 24 18
41 46 66 60 99 98 97 88 74 48 55 24 21 22 22 22 21 18 27 26 28 28 29 20 29 45 36 47 48 40 32 29 31 61 67 80 72 55 56 50 35 34 50 39 33 27 23 24 18
7 14 44 56 94 98 97 98 75 70 29 40 22 24 25 20 23 19 23 23 24 22 29 20 28 17 22 24 23 38 47 19 17 32 55 55 49 51 67 63 45 40 41 33 30 24 19 23 20
4 7 30 56 94 97 94 98 90 67 47 34 23 28 26 27 25 24 19 26 23 22 24 26 15 17 15 13 14 16 25 17 12 30 48 54 59 62 43 48 36 28 29 28 26 22 20 24 21
4 4 11 40 94 99 97 99 98 82 78 73 36 30 31 38 25 25 20 28 21 25 23 24 22 18 16 18 11 15 21 25 15 38 50 46 64 59 40 43 28 24 28 29 32 19 25 29 21
6 4 8 16 78 98 74 97 96 90 86 63 53 22 32 36 38 21 24 20 26 21 23 20 21 26 29 12 14 20 16 28 21 46 27 26 36 48 34 37 37 35 31 27 20 27 36 28 24
10 5 6 16 54 79 86 97 98 95 77 58 47 28 27 31 36 21 23 21 23 23 18 21 20 36 38 23 13 13 14 20 30 42 43 52 33 19 20 24 23 19 18 15 18 32 34 25 21
11 8 8 15 38 77 80 93 97 95 76 75 75 39 16 22 27 26 19 23 29 30 24 19 21 24 34 29 25 16 30 38 25 17 30 44 50 23 10 15 19 18 20 26 26 27 27 26 24
13 11 25 18 32 61 74 78 95 98 93 95 100 71 22 20 21 17 16 17 26 36 44 34 23 16 17 23 33 32 31 19 23 22 15 22 51 46 24 10 10 12 15 22 23 25 26 28 31
15 13 20 50 39 64 73 65 72 93 96 92 95 87 25 24 20 23 19 16 18 27 42 50 44 34 31 21 17 19 25 35 34 25 17 20 30 44 38 42 15 10 11 21 22 16 19 17 18
18 16 27 87 67 62 72 72 69 66 97 98 94 90 94 90 64 22 17 14 15 19 26 42 49 51 54 46 27 43 38 64 39 39 28 16 16 20 34 41 40 18 12 17 24 31 25 17 16
18 17 33 58 60 71 66 71 74 57 87 95 96 96 96 97 72 18 18 18 16 18 20 25 48 49 59 56 71 74 81 59 54 46 42 44 25 17 16 14 31 49 26 21 18 16 22 24 22
69 46 55 67 61 61 82 82 88 88 55 91 65 68 92 97 95 48 46 17 18 18 19 18 19 35 50 37 53 71 73 63 66 74 72 47 42 26 16 15 14 17 23 30 33 28 15 11 10
81 47 71 70 39 74 79 78 92 95 84 67 50 59 70 92 94 98 78 28 16 19 19 18 19 18 29 37 33 41 66 64 70 78 73 75 59 52 46 43 29 21 17 18 23 39 43 31 17
70 85 83 83 63 62 68 75 83 83 84 76 50 66 87 93 96 93 95 86 15 18 20 16 20 19 17 18 29 26 23 44 63 63 73 77 85 97 72 76 66 60 50 37 31 25 13 10 14
78 59 91 90 73 70 64 72 61 90 85 86 100 97 100 96 94 89 98 96 90 25 18 17 17 20 22 22 21 25 23 19 19 32 40 59 80 89 92 90 81 64 74 53 40 34 30 27 24
88 71 72 71 70 56 57 72 74 55 86 79 85 96 97 96 100 90 98 96 96 74 19 17 17 17 18 21 21 19 21 21 19 16 21 45 50 41 76 77 78 88 92 85 48 40 44 32 36

GFSSGP_500_rhum_117.txt.gz
RH
50 72 95 82 72 23 34 29 20 21 32 37 39 48 50 40 43 47 46 56 62 82 97 95 96 95 93 92 95 94 80 76 74 69 69 74 72 62 61 40 43 45 42 56 56 54 65 68 72
38 60 89 91 58 23 30 48 23 22 22 34 45 48 53 37 34 39 42 48 60 73 97 93 94 95 92 90 94 86 67 63 62 62 64 56 56 68 57 42 48 49 61 63 51 59 56 55 59
34 64 95 87 45 25 21 37 22 20 21 31 38 48 49 39 32 28 36 49 50 42 58 55 60 72 78 64 76 87 89 75 76 68 77 76 70 56 44 43 49 59 76 84 85 84 80 70 55
29 82 89 74 40 24 18 21 20 20 21 26 37 48 50 46 34 26 32 50 53 46 43 45 45 46 48 54 53 57 69 78 83 83 88 91 67 62 59 50 48 56 70 88 91 95 80 56 64
25 76 83 37 31 19 16 22 19 20 20 16 22 46 59 62 37 26 26 41 60 57 60 58 48 52 59 63 67 64 69 76 82 87 86 84 82 68 63 52 44 45 58 80 71 63 59 37 35
23 68 61 38 32 15 14 25 20 19 16 16 24 46 43 56 46 33 32 35 51 64 72 82 68 68 65 69 78 76 80 84 92 96 92 92 87 90 69 56 37 40 50 73 52 49 41 27 29
30 60 68 54 34 18 12 22 23 21 17 17 16 37 41 34 40 35 36 38 48 57 66 67 74 72 79 76 79 79 80 86 91 89 91 91 92 87 93 66 39 41 41 64 53 48 27 24 20
38 59 91 96 37 34 20 18 26 21 20 15 18 34 41 30 37 42 41 39 47 61 60 55 52 58 68 77 70 70 74 79 76 77 81 84 89 81 83 80 57 41 41 58 59 37 21 21 18
39 66 91 93 83 63 46 23 31 27 20 18 17 15 26 41 32 38 36 39 47 52 62 50 60 68 70 69 78 70 82 70 69 75 81 88 87 84 70 62 47 41 45 56 49 21 25 18 13
51 53 82 94 97 98 79 46 32 20 20 21 18 18 22 33 35 31 36 34 41 48 56 67 84 95 80 76 79 81 85 77 70 64 75 86 84 80 64 58 41 38 45 52 30 19 24 16 13
91 75 58 96 98 95 93 59 30 20 21 20 19 20 18 40 36 29 34 31 34 43 58 60 63 64 68 62 72 73 77 76 78 66 64 64 72 79 79 61 47 37 47 43 26 19 24 15 12
71 68 49 89 92 96 93 49 26 23 22 18 17 21 21 18 27 24 30 28 28 32 43 51 68 50 52 62 75 83 72 74 64 63 63 58 59 59 58 66 41 36 47 40 25 21 23 15 12
22 46 64 84 90 91 66 53 24 19 24 18 16 18 22 32 24 25 26 30 27 31 38 52 50 49 47 52 69 80 86 72 61 65 71 53 49 41 47 43 38 39 51 43 25 21 23 16 13
5 23 40 62 74 93 76 63 68 27 26 20 16 16 21 23 18 25 26 30 26 29 30 39 33 32 38 55 49 52 77 81 57 62 70 67 52 44 35 39 35 39 47 43 29 20 24 17 15
4 12 30 52 60 98 92 84 80 55 51 31 18 16 17 23 21 25 23 28 28 20 20 46 35 39 33 36 35 32 60 76 82 69 69 66 52 46 34 36 34 39 41 37 29 21 22 18 16
16 38 43 49 57 88 96 96 84 65 61 55 24 18 16 21 20 22 22 25 27 18 20 32 35 39 36 43 36 18 24 58 65 69 69 54 52 51 36 32 36 43 36 31 26 21 24 19 17
6 6 9 8 22 74 91 97 96 69 58 55 33 19 20 17 21 22 26 24 24 22 16 21 19 16 20 28 29 18 27 31 49 56 52 51 58 60 44 36 42 37 33 28 23 22 25 22 18
8 6 4 16 13 45 75 88 98 92 85 37 52 19 20 22 19 21 25 22 23 20 16 12 20 13 12 18 27 22 22 41 52 56 63 67 49 54 37 33 32 33 27 25 22 25 27 24 19
12 9 6 4 6 22 87 94 97 92 94 78 53 19 18 25 18 22 22 29 20 18 18 14 13 15 17 13 16 22 29 38 38 34 65 60 42 38 37 25 24 25 26 28 21 25 30 25 22
18 16 12 7 5 8 50 83 94 90 96 75 81 96 55 18 22 19 27 24 19 19 16 18 22 18 11 18 14 22 27 47 29 30 33 46 42 39 36 36 31 28 26 18 20 31 31 27 24
20 18 16 12 9 8 13 40 70 92 90 89 75 67 29 20 23 20 25 27 25 17 16 17 33 34 16 12 11 19 25 41 51 46 50 16 19 32 34 27 21 18 15 15 21 28 29 24 22
25 21 19 15 13 10 23 34 65 85 94 90 74 45 22 21 19 14 19 28 23 26 18 20 21 26 27 17 10 33 36 26 29 41 52 46 19 10 17 19 19 20 23 23 24 25 26 26 27
27 25 21 18 18 22 19 31 49 58 83 95 72 56 29 21 17 18 17 22 30 34 33 21 17 15 15 20 24 32 30 26 21 24 29 46 44 34 11 9 10 12 16 19 20 22 24 23 20
31 26 32 49 49 39 48 37 43 46 62 98 88 86 82 64 13 16 19 16 25 34 45 52 31 26 26 20 17 19 35 36 33 31 19 21 44 41 38 24 11 11 15 19 18 15 16 15 14
32 23 28 42 44 57 68 60 55 42 38 79 96 97 90 29 11 13 14 14 18 23 36 52 54 49 43 43 24 40 31 46 41 43 40 27 26 29 43 49 37 28 13 14 17 23 32 27 24
27 22 23 33 38 50 41 69 73 61 42 32 75 96 98 45 42 24 22 18 15 17 21 37 54 54 61 53 60 70 64 59 46 49 45 52 23 20 15 17 35 48 46 26 24 22 15 14 13
42 35 48 41 39 51 51 84 83 87 73 60 64 98 95 91 86 80 17 16 14 15 18 20 27 47 54 51 56 80 74 70 62 62 64 54 36 34 17 14 15 25 15 19 27 28 34 28 30
41 57 67 60 65 52 58 99 90 90 92 97 76 94 95 90 86 81 60 45 30 16 16 16 16 17 19 43 40 49 70 69 73 78 78 75 62 50 52 47 50 32 34 24 23 26 23 25 21
90 68 69 74 66 76 71 99 96 81 99 95 90 53 88 85 99 90 82 89 81 39 17 14 16 14 16 19 25 34 35 34 56 69 66 77 78 85 90 83 82 78 64 52 44 34 32 25 22
91 90 77 72 95 78 80 97 95 91 86 94 97 100 78 79 98 98 98 96 98 96 32 17 15 16 14 16 17 19 22 27 26 21 31 34 48 64 83 88 86 84 74 81 76 54 38 48 51

GFSSGP_500_rhum_123.txt.gz
RH
46 82 58 32 57 96 92 39 20 35 41 48 48 37 35 38 41 47 77 92 91 81 84 80 81 75 82 93 97 96 96 96 93 95 97 94 75 74 76 73 59 45 54 66 73 68 77 87 80
49 91 99 29 97 97 72 27 23 30 44 45 54 38 31 27 32 44 51 89 90 90 82 76 87 96 95 93 96 95 96 95 95 95 85 80 67 60 57 54 50 49 62 61 68 73 77 68 59
70 92 80 38 98 97 66 25 25 29 38 51 47 36 32 24 26 39 45 65 88 72 62 76 82 93 97 96 96 94 86 83 74 70 68 63 50 49 55 60 56 55 55 61 58 62 58 56 48
75 79 56 76 99 30 25 26 26 18 26 44 52 45 30 26 26 37 42 39 46 52 60 67 69 75 84 94 89 82 68 77 76 58 67 73 49 51 55 71 68 53 63 77 78 69 55 41 32
78 81 42 39 42 25 23 24 27 18 30 40 42 43 26 30 30 33 44 44 42 46 43 50 53 55 82 81 78 78 68 70 66 69 71 59 53 53 61 81 90 94 91 72 56 60 43 29 22
64 68 63 34 29 20 29 23 25 21 20 43 35 36 25 30 34 33 42 51 54 56 45 48 52 54 57 71 73 86 91 94 90 90 70 64 54 53 57 75 87 74 71 35 30 26 27 22 18
74 64 97 58 45 17 30 26 23 19 18 43 35 28 27 33 35 34 38 49 65 69 64 65 67 64 73 67 69 82 81 93 93 85 74 72 61 54 50 50 82 59 50 32 23 21 20 18 12
81 81 85 92 47 24 24 26 21 19 15 22 32 32 26 26 33 36 48 52 64 64 66 67 68 66 73 80 79 75 75 92 86 82 90 89 70 48 45 50 72 54 42 26 20 18 17 9 9
61 90 90 86 51 52 30 26 23 21 15 15 29 32 25 25 27 32 40 46 48 48 54 60 67 66 75 81 90 88 85 86 83 84 88 91 94 69 37 41 64 51 35 22 18 16 9 9 11
52 94 85 98 95 94 93 27 42 22 16 15 23 28 26 24 23 23 38 43 48 61 80 79 70 73 72 70 80 77 72 69 74 80 88 85 86 80 37 38 55 52 23 22 15 10 9 11 13
71 96 79 70 98 100 98 34 31 24 18 18 19 30 24 22 22 18 30 46 51 66 80 73 70 75 73 75 94 67 72 74 86 88 89 82 81 76 40 38 47 46 18 19 15 12 12 12 12
55 81 70 70 88 88 97 54 28 23 59 18 17 18 18 19 22 17 24 35 43 46 60 67 63 67 76 85 87 76 64 61 73 79 81 80 67 56 43 38 44 40 18 18 14 12 11 12 12
11 14 30 56 67 83 76 47 38 24 21 17 17 20 23 16 20 19 24 30 36 49 45 50 60 73 75 66 69 74 65 59 65 74 77 70 60 49 37 37 44 38 18 18 13 11 11 13 13
48 5 10 19 46 72 69 36 78 22 23 16 18 19 24 19 18 21 23 31 37 41 42 43 53 66 77 76 69 65 59 58 59 61 71 68 62 53 34 35 42 31 18 20 14 13 13 14 15
4 4 5 10 28 63 90 83 56 34 22 18 18 20 19 21 17 20 20 26 30 29 32 44 44 52 67 71 61 55 52 60 52 53 59 64 65 61 32 34 41 29 17 20 16 15 15 16 16
6 14 20 65 34 56 78 96 93 76 24 22 23 20 20 21 19 18 21 17 31 32 30 31 35 34 54 60 56 50 55 62 52 48 46 54 54 38 31 37 42 32 20 20 20 16 14 16 17
9 72 97 24 36 34 43 97 95 94 44 52 50 19 19 19 21 17 18 20 22 34 30 32 26 27 32 50 61 57 52 60 61 54 46 40 40 36 31 41 42 32 26 19 22 18 16 14 16
100 49 40 6 26 22 16 43 67 91 94 87 77 58 19 16 16 18 15 19 16 28 30 20 33 25 30 28 48 62 58 64 64 52 46 35 35 31 30 36 38 33 27 18 21 19 18 14 14
37 63 23 18 7 6 27 25 62 82 95 95 68 38 18 19 17 17 15 14 18 18 14 11 20 20 14 32 39 44 48 48 49 49 43 33 32 29 31 31 31 28 30 77 16 20 20 20 22
9 10 23 7 7 11 11 8 6 69 92 97 97 55 36 23 19 15 20 13 14 16 13 14 10 28 20 28 41 49 46 49 51 53 42 34 31 35 33 32 30 28 23 18 14 31 20 25 24
9 14 95 59 7 28 12 28 16 6 45 88 94 88 53 21 23 17 17 18 13 15 14 12 15 21 28 28 36 39 57 58 53 48 38 35 35 34 32 30 25 24 23 19 13 19 21 67 22
15 25 10 7 8 55 94 64 99 20 6 25 45 57 91 37 26 22 14 19 14 13 16 15 14 20 19 28 39 39 32 47 44 34 34 35 32 28 21 21 22 22 21 16 13 21 25 28 22
14 23 9 8 10 51 78 35 36 54 20 10 16 28 92 93 61 39 20 15 22 14 12 16 22 26 27 11 60 57 41 28 26 31 31 28 27 26 26 23 23 22 16 14 17 24 27 24 23
7 7 10 15 66 80 64 75 94 79 67 13 14 45 61 92 89 83 31 16 18 23 15 14 22 37 33 22 55 42 33 46 43 26 24 23 21 20 20 18 16 16 16 19 22 24 22 21 17
8 10 63 95 93 83 83 96 96 82 96 27 11 21 43 86 93 74 59 15 15 23 25 17 18 25 39 31 36 44 33 33 41 43 48 28 18 10 11 12 12 12 14 16 17 16 15 17 13
11 20 85 92 80 92 96 88 81 45 43 36 19 14 18 43 62 91 45 15 16 18 28 30 19 16 27 19 36 39 36 33 29 43 25 47 47 37 32 20 13 10 12 16 16 18 19 24 26
84 46 76 87 78 70 69 82 67 24 90 47 32 26 14 76 89 99 26 18 15 16 19 34 39 25 19 19 24 41 46 43 45 50 43 39 38 37 37 43 45 42 37 34 20 18 17 17 21
22 81 61 90 88 89 84 88 99 49 73 63 80 39 38 88 95 85 47 46 18 15 15 21 39 46 37 37 43 38 47 60 62 60 60 58 60 54 46 44 41 38 37 36 36 36 26 24 25
76 55 98 98 89 83 80 96 88 94 42 78 80 86 87 58 88 85 94 91 43 17 14 14 22 39 43 40 49 50 59 66 65 61 62 82 62 58 53 44 45 36 31 32 44 54 45 29 33
98 87 90 95 96 88 89 96 72 54 63 82 82 98 83 68 51 63 92 100 18 17 15 13 16 20 31 42 40 38 37 62 65 68 69 80 82 79 82 63 62 71 76 74 66 68 54 49 48

GFSSGP_500_rhum_129.txt.gz
RH
84 91 58 57 85 40 37 34 100 90 52 50 38 23 22 31 38 54 87 70 74 78 78 74 78 73 73 78 81 85 97 95 97 96 94 82 73 73 74 70 59 65 74 74 76 82 86 89 79
92 76 72 96 66 97 85 24 30 34 47 87 35 25 19 20 27 46 70 75 76 74 67 64 67 75 71 74 83 90 100 97 97 95 84 75 74 71 70 65 72 77 75 82 88 70 63 60 64
79 61 90 90 95 86 37 22 15 27 36 46 31 21 23 20 24 34 67 86 76 64 65 68 74 77 85 90 87 94 98 98 98 96 94 84 73 72 54 56 66 65 70 69 59 54 45 42 56
73 64 90 94 63 83 30 24 17 32 38 30 28 23 23 21 25 40 57 71 65 72 64 74 74 78 95 100 98 98 99 96 96 93 84 75 66 53 47 52 53 56 59 54 50 42 37 25 17
90 79 82 92 97 49 24 22 88 19 41 25 22 28 28 26 28 43 39 50 72 56 55 73 81 99 97 96 96 96 97 96 93 79 63 69 65 65 65 50 57 57 62 52 43 32 24 15 16
86 93 98 96 97 24 28 32 21 18 35 30 22 26 28 28 32 55 45 65 70 42 48 48 62 74 86 98 96 95 93 84 65 53 49 56 63 58 50 47 65 66 51 41 22 24 16 11 8
73 95 98 91 55 22 24 71 75 13 17 45 24 23 22 31 50 61 62 66 57 46 46 44 50 69 71 72 72 77 75 73 66 46 46 49 69 77 72 75 44 41 42 29 18 14 8 8 9
97 90 98 96 97 97 29 76 57 24 43 33 88 24 21 28 47 56 95 73 75 64 53 54 53 55 63 72 81 73 66 65 63 47 43 50 65 71 54 31 24 21 20 19 14 10 8 9 11
96 84 96 98 90 85 47 33 24 21 12 30 49 21 22 26 49 42 57 49 69 69 56 47 54 66 66 68 72 80 82 74 59 50 43 46 58 67 41 34 23 14 17 15 10 8 9 11 12
81 72 56 86 82 99 91 50 25 76 12 24 25 19 24 21 33 42 40 57 56 72 96 82 63 65 69 69 64 68 83 82 66 56 50 45 44 59 49 34 18 15 13 9 8 9 10 12 11
67 79 84 57 74 84 95 48 35 47 15 20 25 22 20 19 26 35 48 52 76 87 82 88 73 90 74 72 81 75 82 77 75 69 58 49 40 59 45 29 15 14 10 9 10 11 12 14 9
63 37 31 37 44 71 96 73 63 54 87 17 18 23 22 20 21 33 58 46 81 66 60 72 68 94 71 78 73 80 89 74 66 72 72 53 37 51 47 25 16 12 10 11 11 11 11 11 8
42 16 10 18 22 64 84 69 69 65 75 16 18 20 21 21 19 28 40 36 46 48 52 65 69 88 81 94 76 54 52 59 56 68 70 73 40 42 44 20 15 15 11 10 11 12 13 11 9
27 77 27 6 13 31 73 66 78 96 26 16 17 28 27 18 14 26 33 36 38 46 44 53 67 73 84 94 86 51 66 62 60 65 68 60 35 39 46 17 16 14 11 11 12 12 14 11 8
18 100 36 12 65 44 59 89 85 82 31 16 17 23 21 22 16 20 29 33 29 39 44 42 52 60 58 83 69 62 50 56 61 59 63 61 43 38 44 18 17 14 12 12 12 12 13 12 10
6 8 65 90 86 50 50 47 73 90 76 25 17 22 16 17 16 15 27 28 28 26 30 30 45 53 45 43 46 62 51 59 64 65 62 59 46 37 41 18 16 14 14 13 13 13 12 12 11
5 13 51 57 96 71 27 26 82 54 83 89 26 18 18 20 17 14 16 31 31 22 18 23 26 44 44 38 40 40 41 49 66 62 59 49 37 35 41 26 16 15 15 15 14 14 15 13 13
10 48 100 62 98 97 32 36 52 49 70 89 95 65 19 17 19 16 12 20 31 26 28 26 37 30 42 53 46 81 45 53 61 65 60 61 48 33 39 32 18 18 17 17 16 22 15 22 20
28 79 76 88 85 25 34 7 11 22 25 78 88 96 38 16 14 19 15 12 25 24 27 26 16 26 35 45 48 42 46 61 52 58 54 60 47 31 33 44 27 18 45 29 18 17 16 15 17
55 89 39 38 20 17 14 7 13 9 8 19 76 85 90 42 13 13 19 17 12 16 17 16 26 18 32 46 58 46 47 54 51 48 51 50 33 29 40 37 36 41 52 39 43 30 56 40 39
72 41 61 46 24 18 18 7 9 19 26 17 11 81 93 66 31 17 12 19 15 12 9 10 28 24 28 44 42 46 50 52 47 47 42 39 33 33 49 54 43 42 47 55 63 53 38 60 58
26 25 42 56 34 20 8 11 52 54 55 49 16 18 96 92 74 46 13 16 20 16 10 10 16 34 36 38 43 48 50 57 55 46 36 32 28 28 40 50 43 50 64 61 46 60 83 63 64
22 73 74 62 25 8 13 15 16 24 68 76 47 9 23 68 58 63 22 18 18 20 15 9 9 26 33 38 39 46 47 51 51 37 31 27 27 30 29 30 32 47 46 60 45 45 58 55 54
9 30 24 17 11 11 36 50 49 34 37 47 63 85 39 10 68 47 79 33 18 20 20 14 11 15 19 43 35 35 34 36 39 35 34 34 34 33 31 28 25 22 26 26 23 21 29 32 35
5 8 15 15 42 68 83 97 69 85 87 82 39 45 53 78 11 48 93 69 25 14 22 18 13 16 27 32 57 44 25 25 28 36 36 37 30 25 24 22 24 24 21 15 18 17 25 25 28
6 5 7 53 100 93 96 95 86 80 81 65 47 44 50 51 23 46 88 80 73 22 16 23 14 14 32 34 40 49 35 42 37 30 38 26 25 23 25 21 21 23 19 16 19 22 17 16 16
10 10 28 55 92 91 93 83 73 60 64 62 48 46 55 42 50 40 25 50 76 69 23 17 24 15 16 34 32 41 36 39 45 46 37 24 22 21 14 14 16 19 17 12 19 18 23 18 23
7 28 41 36 54 82 89 82 90 99 88 88 90 53 80 37 27 38 11 41 76 89 74 19 22 25 17 15 25 41 39 36 37 33 35 32 34 36 32 27 31 25 18 24 23 28 32 37 41
20 10 12 46 48 34 79 98 98 98 83 82 90 44 50 67 72 93 43 25 45 72 72 82 14 28 28 20 17 20 34 45 39 32 36 37 30 32 33 34 41 42 42 50 49 49 45 41 40
68 51 39 62 25 70 71 78 90 98 80 71 78 83 66 63 72 83 85 57 48 81 74 54 15 16 30 35 29 22 23 29 42 46 40 44 43 44 51 49 55 64 53 55 46 45 47 60 73

GFSSGP_500_rhum_132.txt.gz
RH
94 70 60 56 70 21 12 15 55 38 58 69 31 25 28 26 33 59 76 79 76 70 73 75 78 78 83 76 78 81 88 88 95 97 89 79 75 72 70 62 53 55 64 71 75 83 83 68 44
97 78 77 70 72 66 20 15 13 27 54 63 33 26 25 30 42 60 73 79 73 66 66 73 85 81 69 68 74 78 91 87 94 97 95 80 75 72 64 58 58 68 72 86 64 59 58 62 44
90 63 94 88 77 54 22 22 15 36 45 42 29 26 29 28 40 46 68 73 70 71 69 66 76 78 69 72 78 88 93 94 96 96 82 72 70 68 62 67 69 71 72 56 48 39 50 54 37
93 72 96 77 62 40 74 24 39 33 44 35 26 28 32 30 34 46 61 57 67 45 44 68 63 63 76 78 83 90 98 98 100 96 90 83 87 60 54 56 60 64 56 49 42 34 34 35 40
93 82 89 91 88 47 35 29 18 27 39 25 26 33 34 31 42 43 42 60 48 42 54 43 54 79 75 72 92 98 98 99 99 98 94 89 56 49 50 51 56 56 48 45 32 19 14 23 26
92 94 94 97 90 31 38 97 65 17 40 21 22 26 31 35 53 49 76 51 38 48 50 71 85 91 93 100 97 98 97 97 97 94 78 79 64 55 50 55 60 57 42 32 24 15 13 8 10
89 92 93 97 82 33 77 87 20 17 49 54 24 25 27 39 56 72 78 58 52 46 44 48 75 89 96 97 97 95 90 90 85 69 73 65 61 51 48 62 67 46 27 23 17 11 8 10 11
87 92 93 97 96 96 92 93 54 15 17 34 66 26 22 49 50 96 97 74 63 60 55 50 49 68 77 75 79 90 86 61 54 53 65 64 70 71 62 42 40 38 20 17 10 8 9 11 12
66 74 97 94 90 97 94 38 23 16 16 33 28 22 24 44 48 76 54 74 81 66 60 67 55 61 76 87 76 74 70 52 49 50 67 82 66 47 64 23 18 22 16 11 8 9 11 12 12
90 79 90 96 80 87 94 91 77 24 14 28 26 19 20 30 42 44 48 64 76 93 83 74 61 62 72 75 86 81 73 62 51 46 58 75 66 47 27 20 15 18 12 9 9 10 12 12 8
80 95 96 86 65 82 97 95 40 22 35 28 27 18 17 26 40 47 60 85 77 82 95 76 73 60 69 70 66 82 89 75 58 53 48 58 72 47 26 16 15 12 9 9 10 11 13 8 8
97 69 67 42 34 85 99 73 65 63 78 34 19 20 15 20 36 50 47 78 66 54 72 72 83 64 56 75 77 76 84 84 70 60 48 44 62 49 30 16 14 9 9 10 10 11 10 8 10
99 49 50 15 20 78 92 88 76 37 68 51 26 18 18 18 28 40 43 65 68 52 63 68 79 93 85 90 90 95 89 74 73 69 54 41 59 43 21 13 10 9 11 11 12 13 9 8 10
49 53 34 40 60 37 69 70 62 83 49 15 14 24 22 21 26 43 38 60 72 46 53 75 68 78 92 89 72 76 82 72 69 71 67 40 48 43 19 13 12 12 11 10 12 13 9 8 10
12 89 54 61 73 48 46 68 98 95 75 28 14 17 17 22 23 35 36 35 39 38 41 65 69 79 80 71 57 65 66 62 71 74 76 48 38 43 18 16 14 11 11 12 11 10 10 8 9
8 17 79 70 97 75 35 34 77 74 77 30 18 12 16 15 16 26 32 35 34 25 27 42 58 64 65 55 70 70 61 74 66 78 64 46 36 46 18 15 14 12 12 12 13 12 10 10 8
6 15 19 43 96 84 30 32 52 76 79 86 90 24 12 19 13 17 31 34 29 20 23 28 44 57 55 50 64 69 61 61 64 72 60 54 36 40 17 16 15 14 14 13 14 13 16 12 12
11 8 22 63 97 98 76 22 47 57 70 76 92 58 20 14 16 15 18 28 31 30 30 62 35 44 54 52 69 49 48 57 60 62 64 55 36 39 25 17 16 15 16 16 15 19 16 18 19
33 34 40 51 73 97 39 9 6 14 24 48 81 81 64 13 19 14 13 16 32 32 27 25 23 33 48 63 82 45 54 60 68 58 55 41 34 38 38 18 16 16 16 17 17 17 15 16 18
32 29 63 50 49 42 34 9 5 10 12 8 30 65 90 36 13 19 14 14 23 33 27 21 29 27 44 65 48 55 44 74 66 58 56 55 40 34 38 31 22 18 31 41 30 36 37 26 36
34 58 45 44 26 13 17 8 8 19 22 45 10 32 94 85 56 17 20 15 12 22 23 13 33 20 46 48 50 48 56 56 64 57 54 57 49 33 36 47 31 26 48 40 57 51 46 52 63
28 69 52 45 13 13 13 13 6 15 62 64 42 9 52 82 80 30 18 23 16 15 19 16 26 34 44 53 48 47 55 55 48 46 49 49 40 28 39 41 52 36 43 57 56 41 55 66 71
46 60 44 39 20 7 8 8 7 8 45 47 60 61 19 58 82 81 22 19 21 16 18 14 15 41 45 40 62 55 55 62 54 48 41 39 35 31 35 54 51 42 52 61 56 44 60 60 62
46 36 37 43 25 23 72 54 37 44 40 48 44 48 50 66 21 35 56 21 14 20 17 19 13 22 30 45 44 45 55 56 54 43 35 31 27 26 30 33 32 35 62 40 50 40 40 38 39
29 29 20 29 18 96 89 53 43 50 67 62 62 52 37 43 56 26 46 42 23 18 21 17 20 13 26 40 61 60 38 41 44 38 33 30 32 28 24 25 25 23 19 22 20 18 17 27 26
9 12 11 33 60 80 74 49 48 48 51 53 59 61 32 38 45 46 33 80 52 57 22 21 17 19 16 33 47 63 50 33 38 38 38 40 34 27 22 18 20 21 19 15 12 16 21 24 19
8 9 8 23 48 53 70 65 54 50 52 54 60 62 57 47 42 48 41 65 97 98 62 21 22 18 21 42 46 42 57 50 52 40 34 36 25 21 17 16 16 15 19 19 14 16 17 14 15
12 18 18 14 52 68 64 68 65 51 46 59 58 58 62 79 76 72 66 75 42 76 75 38 22 24 18 25 52 43 35 51 47 58 51 42 29 25 18 14 13 17 15 16 12 14 14 19 20
34 12 12 42 58 38 60 74 68 80 94 49 45 49 55 81 64 64 83 85 90 40 93 98 53 25 24 19 28 48 46 48 54 51 43 38 35 36 34 31 21 29 25 21 19 31 39 40 43
42 74 61 28 38 34 36 53 79 64 59 62 73 77 67 69 66 59 63 68 68 44 73 96 94 47 24 26 21 24 36 46 50 60 53 40 40 45 35 36 37 35 38 39 50 51 55 43 45

GFSSGP_500_rhum_135.txt.gz
RH
92 72 63 66 56 49 12 12 18 35 38 37 23 22 27 31 52 67 79 85 86 83 86 81 88 79 84 84 81 75 87 94 98 94 82 81 77 79 76 55 49 59 64 68 76 84 65 38 21
97 76 69 71 74 49 16 17 26 45 34 25 21 25 29 29 52 75 76 74 75 72 75 80 90 85 88 85 86 88 94 98 96 100 91 82 79 74 64 65 68 67 75 68 80 71 65 50 46
85 64 79 81 98 47 20 20 29 45 38 27 29 31 30 30 40 65 78 73 78 72 67 77 81 88 77 81 92 94 96 96 95 99 88 82 77 69 71 66 71 84 72 60 59 63 43 42 45
84 62 79 87 75 34 21 19 22 36 30 23 27 28 32 37 35 52 63 65 70 55 80 76 74 84 78 79 79 92 96 98 99 97 83 77 70 67 73 71 80 69 59 46 42 58 56 45 34
88 88 92 77 94 42 27 52 17 32 34 27 22 30 35 39 35 40 66 59 46 64 80 82 83 80 88 83 89 85 97 98 98 96 81 86 85 63 66 66 67 59 48 37 29 30 34 41 25
91 87 94 94 97 63 58 52 33 32 40 30 24 29 33 46 44 62 54 41 38 44 62 72 83 81 82 83 90 94 97 97 96 93 96 78 67 64 56 62 60 51 44 29 16 20 17 21 12
79 92 94 96 98 98 91 98 43 35 36 35 38 28 40 60 56 59 47 45 39 43 64 83 91 86 97 98 88 90 96 94 94 97 96 94 74 56 57 65 58 35 27 23 18 10 10 11 11
75 90 96 96 93 98 91 64 52 17 22 34 21 26 55 61 74 74 67 64 51 48 53 66 76 96 97 98 97 96 95 96 96 96 82 71 60 53 65 71 50 26 23 17 10 10 11 11 12
91 95 90 76 77 95 90 74 65 26 18 24 18 22 43 47 91 76 63 78 64 57 59 56 62 72 77 80 90 87 78 85 80 77 70 66 69 63 48 50 42 21 18 11 10 10 11 11 10
90 78 59 78 56 78 97 89 54 27 18 27 18 20 33 43 54 51 61 68 95 59 57 58 69 66 81 71 72 67 54 56 60 71 81 84 78 82 29 24 25 18 13 10 10 10 11 10 8
75 88 76 45 41 82 74 84 46 28 43 38 22 19 28 40 50 55 79 58 79 91 77 60 69 68 72 85 73 68 57 51 53 73 86 69 49 40 24 15 19 15 11 10 10 10 10 8 10
83 56 46 18 35 76 78 75 64 53 91 19 19 17 22 34 52 60 78 62 61 81 80 89 77 73 69 77 88 82 71 70 55 56 77 72 45 31 18 16 18 12 10 10 10 11 7 8 9
64 38 23 28 36 60 83 74 78 75 51 24 22 20 18 28 41 49 74 60 48 67 69 78 84 72 77 80 79 96 92 72 59 50 55 72 50 24 17 16 10 10 9 10 10 11 7 8 8
40 45 47 43 43 36 69 73 85 97 44 16 18 27 12 22 36 42 57 73 45 62 70 74 93 93 97 88 90 89 96 93 78 59 45 52 52 33 17 13 10 10 11 10 10 10 7 8 8
22 68 56 68 64 38 36 57 62 100 33 22 15 17 18 14 33 40 42 44 42 57 60 66 84 94 88 76 79 89 82 85 90 84 48 48 53 37 18 12 11 11 10 11 11 10 8 7 7
16 33 77 69 77 67 27 25 66 92 71 31 19 17 20 19 28 32 32 41 33 38 50 59 66 84 73 58 67 79 73 77 77 74 67 39 51 34 17 15 12 11 11 11 12 11 11 10 9
47 47 32 56 95 86 58 39 49 78 75 71 82 24 18 16 14 26 33 31 28 28 36 56 58 63 58 68 64 62 66 63 73 82 75 38 46 30 15 15 13 13 13 14 15 14 15 15 14
12 11 10 19 89 95 73 28 37 40 65 98 86 43 21 23 16 14 22 33 29 36 47 43 56 55 48 60 69 63 60 68 74 92 68 42 42 27 18 16 14 14 15 15 16 18 17 19 20
12 10 10 15 68 68 84 30 12 9 19 44 84 84 37 23 22 62 18 27 31 35 36 68 41 59 50 61 50 51 60 67 68 71 56 38 37 32 22 18 16 16 16 16 17 21 16 18 20
15 16 14 11 23 42 53 16 11 8 11 10 20 58 90 21 55 28 30 18 30 32 29 33 32 40 60 73 59 48 57 74 65 58 62 49 35 37 28 22 17 17 17 21 26 26 25 40 42
18 17 16 19 16 29 23 17 6 18 15 20 22 15 80 66 36 28 25 18 14 24 21 31 23 51 58 63 55 55 58 68 74 57 56 44 35 38 38 35 23 22 17 41 33 52 40 38 55
18 14 16 12 24 26 27 18 6 14 42 49 48 20 18 87 49 45 32 22 17 18 21 17 33 36 58 54 52 54 57 55 58 59 62 51 44 33 36 47 38 27 48 45 53 66 48 57 63
48 21 21 22 27 10 8 8 10 15 37 52 48 47 32 76 92 83 25 21 21 22 18 17 39 42 47 55 58 62 59 55 55 53 59 59 57 42 38 51 52 38 36 40 49 62 46 61 62
38 38 32 34 20 19 29 35 32 34 46 61 61 50 43 54 31 75 37 22 20 23 23 17 17 40 50 48 65 56 60 62 63 46 47 48 38 34 33 55 53 60 42 54 69 56 44 49 51
36 45 51 29 18 33 53 29 48 75 86 68 83 68 48 38 53 43 64 71 38 30 25 22 17 20 31 53 50 43 54 59 57 47 39 36 35 31 28 38 42 51 38 49 30 31 20 17 21
25 27 28 25 36 53 57 39 63 71 75 76 85 76 59 43 54 70 42 74 62 44 21 24 24 18 23 36 66 66 38 42 47 44 35 30 28 27 30 30 26 34 31 18 17 14 15 16 19
19 22 23 18 33 30 47 32 49 50 57 58 60 65 61 67 50 52 38 50 67 66 38 29 24 24 22 22 44 69 58 41 45 44 40 36 35 34 32 28 23 26 34 26 16 14 16 19 15
28 21 22 11 14 18 34 31 50 54 54 47 46 54 62 60 67 61 50 44 92 95 97 69 29 29 35 22 38 51 65 52 45 49 40 38 38 33 26 24 30 21 25 23 25 18 13 16 17
31 18 19 24 15 18 24 44 42 46 55 77 99 72 52 59 50 61 67 71 72 82 94 98 75 61 85 26 24 55 50 53 54 60 61 48 46 30 27 21 19 14 28 25 23 14 16 22 30
46 25 20 22 36 30 40 39 40 36 36 43 65 77 72 57 71 83 73 64 81 95 74 84 80 61 81 98 45 23 60 44 47 49 55 59 53 44 35 34 31 27 30 47 40 32 36 48 54

GFSSGP_500_rhum_138.txt.gz
RH
83 70 66 80 67 59 19 19 28 27 23 21 21 21 22 30 48 62 76 78 88 90 79 96 96 97 96 90 87 91 89 96 86 99 97 81 72 71 88 52 57 66 68 65 76 83 52 22 23
81 80 69 80 74 37 22 21 26 26 21 21 22 24 24 30 55 73 75 76 80 81 77 91 96 93 90 90 88 91 94 94 93 95 83 74 74 78 62 56 69 71 74 77 79 63 36 42 49
76 65 78 83 56 26 23 24 31 29 20 20 19 24 25 30 40 63 67 69 68 75 77 82 86 92 96 96 94 96 97 97 96 96 88 80 76 74 67 80 81 86 66 67 62 56 48 54 31
82 75 85 83 70 32 27 18 23 32 24 19 22 27 27 33 38 63 61 60 62 64 73 81 89 92 91 95 94 93 97 97 97 96 84 78 78 83 86 86 83 74 62 51 60 43 53 40 29
85 79 78 85 78 78 41 28 16 32 33 30 21 28 33 40 41 50 60 59 52 51 73 74 91 90 91 89 96 96 97 97 96 91 82 76 79 83 84 88 74 61 52 43 63 65 54 36 23
88 77 78 78 89 91 80 24 14 20 36 46 19 29 43 45 52 47 43 44 63 68 78 83 85 90 96 95 97 96 97 97 97 94 72 79 77 68 66 75 63 44 37 29 28 31 28 18 11
68 60 83 95 88 97 97 30 26 15 26 24 19 35 51 56 68 51 41 40 41 66 79 88 91 90 90 91 94 96 97 94 97 96 81 84 69 66 60 60 49 41 29 16 17 9 10 10 11
68 93 88 96 90 98 84 60 58 17 21 16 21 37 45 54 76 70 62 52 43 47 58 72 83 81 86 87 88 87 93 98 95 94 94 94 70 56 60 59 33 27 23 16 8 9 10 11 11
82 70 72 62 85 93 79 94 81 19 17 18 19 33 43 72 81 71 73 64 54 45 63 74 86 90 96 97 95 93 97 97 96 96 90 70 55 55 69 47 29 23 18 10 8 10 11 10 8
85 72 56 36 60 82 96 69 38 29 17 15 18 28 39 50 55 62 68 87 62 59 53 65 75 78 88 96 96 96 95 96 94 72 68 65 55 54 50 42 27 20 12 8 9 10 11 9 9
76 74 32 17 66 87 75 75 50 58 47 17 21 20 36 47 56 76 57 86 81 78 57 63 70 72 69 69 63 58 62 68 74 71 78 72 74 48 27 30 24 15 10 9 9 10 7 8 8
68 38 25 17 52 70 63 48 56 52 64 28 20 19 26 41 44 66 59 60 73 73 70 76 65 70 79 73 65 56 57 59 70 82 77 42 71 26 17 20 22 13 9 10 10 10 7 8 8
81 32 16 53 49 88 77 73 77 79 35 33 24 15 23 34 41 55 52 49 62 68 78 70 67 69 72 82 77 68 58 55 62 78 77 44 30 21 15 19 15 10 10 11 10 8 8 8 7
40 34 30 50 37 66 68 75 97 100 57 17 24 23 20 30 35 44 76 45 67 66 74 86 74 72 79 69 85 82 78 67 56 61 75 58 42 21 18 13 9 9 11 10 11 8 8 8 7
25 51 45 55 65 36 53 50 61 88 24 19 20 21 21 22 32 30 45 43 69 70 68 83 96 88 90 93 74 87 79 69 56 50 52 66 47 21 16 11 10 10 9 10 11 9 8 8 9
26 26 35 53 73 53 24 36 83 81 33 44 22 19 22 17 29 29 27 27 51 56 65 78 87 86 84 81 90 83 84 76 68 63 46 62 47 25 12 11 10 10 10 11 12 12 12 13 11
38 60 34 44 69 72 48 29 62 85 65 62 51 22 22 23 19 31 27 24 32 46 59 67 81 68 69 66 80 90 79 79 82 82 52 51 52 25 15 13 12 12 13 16 16 15 16 16 16
14 32 45 42 35 62 82 23 21 54 80 90 78 38 19 24 18 25 29 23 27 39 47 60 59 59 65 68 68 78 71 66 77 74 64 40 50 24 18 14 13 14 14 15 16 16 17 18 19
12 10 12 9 12 43 58 50 14 6 24 51 69 77 31 28 21 17 25 29 31 50 56 44 53 47 59 67 72 60 64 65 66 86 75 39 45 33 17 14 15 15 16 16 19 17 19 21 25
12 12 13 15 25 42 50 32 9 8 11 22 20 64 84 24 69 33 16 23 30 29 28 35 51 50 63 67 61 58 60 60 69 79 67 49 45 46 16 15 15 15 16 19 21 27 26 43 46
13 12 15 18 17 30 36 23 11 9 10 17 17 15 80 53 39 45 21 17 28 32 30 24 40 52 63 73 51 50 66 66 67 74 69 57 37 41 27 17 16 16 17 32 33 46 38 36 53
13 20 15 16 17 39 38 50 23 9 31 61 50 22 22 90 49 61 66 24 19 24 21 31 28 52 62 54 52 50 60 67 65 64 65 54 43 36 36 30 18 20 21 38 42 54 54 61 68
26 21 24 23 17 22 21 26 14 26 38 48 62 52 28 98 69 93 69 20 24 17 20 19 36 47 54 52 52 62 59 68 77 64 58 50 44 37 37 43 36 34 26 43 43 51 58 50 60
28 29 24 29 36 24 35 32 17 63 45 38 49 48 49 63 88 85 85 23 27 28 17 18 31 44 51 54 56 54 59 63 69 60 56 60 51 49 33 34 57 50 36 38 40 56 55 50 51
21 26 34 33 22 38 36 32 41 50 50 54 70 58 42 38 54 51 75 38 21 35 91 18 16 41 51 55 67 61 57 53 54 54 54 57 51 49 33 32 57 44 52 41 47 63 50 44 33
37 29 42 47 24 41 41 35 64 87 88 68 68 58 57 45 42 62 42 74 64 34 37 23 20 17 34 49 50 48 61 63 64 56 47 48 48 37 33 31 47 57 53 45 33 36 29 15 15
50 34 46 46 22 36 34 31 76 81 92 84 62 58 60 54 38 57 67 46 64 67 38 24 26 18 16 28 58 58 48 54 56 52 44 39 36 29 28 28 32 26 28 34 24 22 16 14 17
30 27 32 27 26 32 28 34 50 64 64 75 68 56 52 54 52 62 60 61 49 46 67 39 97 33 16 14 29 64 45 34 42 42 41 33 29 28 29 26 26 25 24 31 30 19 18 13 13
42 30 22 23 19 17 18 22 40 60 59 63 56 56 62 52 51 56 57 71 70 84 72 81 92 40 51 31 16 32 65 39 30 42 41 36 36 38 35 34 29 23 21 23 26 28 19 13 14
54 40 25 20 24 23 15 19 28 39 37 34 33 40 59 61 50 48 52 59 65 80 99 98 89 83 96 97 65 38 39 57 45 37 37 38 36 37 33 26 27 31 20 14 29 25 23 29 28

GFSSGP_500_rhum_141.txt.gz
RH
81 70 65 83 86 68 20 24 24 19 21 21 24 22 24 37 49 56 68 70 68 71 76 98 95 98 95 89 93 99 97 89 92 96 98 91 69 67 72 50 54 64 65 66 74 62 43 23 28
78 70 71 75 50 36 15 20 26 15 18 22 26 26 26 42 73 74 74 79 77 73 80 96 98 97 98 93 95 96 97 92 87 89 87 73 67 65 56 54 66 68 68 80 76 39 29 44 38
76 71 76 65 72 36 24 17 29 23 16 18 24 27 28 39 61 73 76 79 73 74 83 95 97 94 96 94 93 92 98 100 93 89 78 71 66 65 54 65 73 69 71 68 60 48 48 37 18
77 84 84 91 88 78 40 32 29 31 30 17 25 29 32 35 61 58 55 67 66 67 76 94 94 96 92 94 96 99 99 98 89 89 78 72 70 80 91 95 84 67 66 56 40 46 48 40 21
80 78 80 91 78 72 42 12 22 25 26 22 28 32 40 35 53 53 55 49 46 64 70 85 93 90 91 96 92 97 98 97 98 92 85 82 90 92 94 92 78 64 44 53 52 48 34 19 17
75 73 80 79 90 84 79 12 14 21 17 18 32 39 46 47 56 42 46 46 48 72 71 78 84 83 90 92 91 95 97 98 97 96 86 82 86 87 86 70 52 40 34 38 30 23 15 11 12
66 82 86 98 88 92 72 44 16 19 12 20 34 45 54 58 52 44 38 53 63 71 78 83 83 80 83 83 89 96 95 96 97 93 80 81 81 73 69 61 45 34 20 16 10 11 11 12 13
80 76 86 94 98 96 76 75 27 18 10 20 32 42 56 58 66 63 48 42 76 85 82 82 80 86 96 92 92 91 89 97 97 95 96 78 68 61 59 51 39 28 15 9 9 11 12 11 10
84 74 49 72 92 86 96 82 16 19 12 16 29 41 57 61 66 80 64 45 47 68 82 78 85 94 95 97 98 97 97 97 96 94 92 88 64 56 61 36 25 20 12 9 10 10 10 8 9
77 67 42 42 89 86 90 26 23 35 15 14 23 38 47 50 56 75 82 61 54 59 70 76 79 80 82 85 95 96 98 97 92 96 74 57 57 61 59 34 22 15 8 9 10 11 9 8 8
67 58 19 40 78 83 92 30 48 67 20 12 19 35 41 54 67 57 81 73 61 62 66 79 78 84 88 80 90 92 97 95 88 69 62 52 53 52 42 30 18 11 9 10 10 7 8 7 8
54 46 27 58 79 82 73 49 45 81 46 17 14 26 35 45 66 50 64 82 71 57 60 60 70 69 84 98 96 96 94 93 89 69 73 75 46 27 28 27 16 10 9 10 8 7 8 6 6
46 34 32 50 84 90 76 69 91 64 48 27 16 19 29 38 56 43 51 72 71 64 83 66 59 69 66 59 53 59 65 69 71 77 53 79 56 22 17 21 13 9 9 10 7 7 7 7 8
17 28 38 42 78 85 82 66 95 81 48 23 24 15 21 34 38 51 43 57 62 67 73 66 66 65 75 68 62 52 48 60 80 81 48 35 28 18 18 16 10 9 9 10 7 7 8 8 10
8 34 60 59 35 55 67 43 91 87 42 16 18 18 15 27 32 28 35 61 62 64 75 77 68 70 71 77 74 67 62 53 59 75 62 41 24 17 12 9 9 10 9 10 8 8 9 11 13
14 23 44 55 64 29 29 68 98 75 35 21 17 18 15 25 34 27 24 47 57 58 66 84 84 76 75 75 77 81 75 63 50 58 65 48 32 15 11 10 10 9 10 11 12 12 12 15 16
16 28 39 41 58 56 33 51 79 76 65 58 37 20 16 21 32 30 21 32 44 50 56 71 73 75 78 76 79 83 76 62 55 48 49 62 35 12 10 10 10 9 12 15 16 16 17 19 20
10 16 43 34 43 55 69 36 42 76 91 98 92 32 20 19 28 34 30 24 32 46 52 65 64 60 65 66 76 79 84 80 64 63 45 56 41 15 13 12 13 16 17 16 18 18 18 20 24
11 11 22 25 20 15 49 59 16 18 45 83 83 72 25 21 16 31 30 28 34 50 46 50 46 54 55 54 63 79 77 78 75 69 55 47 48 20 14 13 14 14 16 17 15 16 18 23 32
12 12 13 12 9 12 20 32 28 9 13 26 45 86 76 23 21 16 27 29 32 29 38 47 46 47 56 57 57 55 63 63 66 71 62 52 49 25 15 14 15 16 16 18 18 22 37 38 55
13 14 14 14 18 20 22 26 28 8 10 13 11 35 68 82 34 29 15 26 32 26 27 36 48 49 60 58 52 57 62 76 77 78 70 51 41 31 19 15 15 16 16 20 30 42 34 39 57
14 19 18 18 22 17 28 44 26 12 16 22 39 16 39 86 42 59 24 13 24 25 24 24 44 54 64 48 43 51 60 63 70 74 71 51 41 47 24 16 16 16 16 22 38 39 53 53 63
19 23 20 28 21 26 30 42 41 23 22 51 56 43 20 60 63 43 61 39 14 17 19 27 32 53 60 63 48 51 64 71 58 68 61 54 53 38 37 29 18 16 20 38 50 49 52 46 59
22 26 26 36 28 50 52 22 30 26 31 47 62 58 55 96 71 51 60 66 21 15 17 15 31 44 56 54 52 55 58 71 67 55 58 53 55 42 36 40 47 26 26 29 30 37 53 49 52
20 34 57 59 35 58 60 36 33 29 32 42 64 56 56 53 59 78 64 66 32 53 16 15 16 35 43 52 52 52 59 58 61 60 53 56 54 44 34 33 35 41 39 37 38 51 67 57 42
34 39 58 77 42 49 61 41 49 43 46 69 60 48 51 47 42 55 58 47 59 30 26 91 14 16 35 40 59 56 54 59 60 58 58 58 57 43 40 47 34 51 49 43 42 41 53 28 26
25 39 56 56 44 36 48 34 62 62 61 83 88 62 57 62 55 64 62 62 46 56 64 38 20 14 18 33 43 44 48 58 53 55 53 57 57 47 45 37 32 36 57 53 47 38 43 24 15
41 59 62 48 42 37 32 33 37 74 83 90 95 90 72 57 49 55 66 69 66 56 53 76 68 24 15 16 29 44 38 46 56 55 44 46 45 45 41 34 29 31 37 26 31 32 23 19 14
54 42 41 34 28 48 32 23 25 49 68 67 68 70 61 53 57 51 58 66 55 64 61 52 53 75 73 24 16 29 52 32 44 51 46 39 38 36 34 28 26 26 23 26 25 33 27 27 20
74 64 51 34 27 30 27 19 17 23 33 43 42 47 46 40 57 52 58 62 61 63 56 74 82 65 81 75 22 20 25 50 30 38 40 36 33 30 26 27 25 22 23 22 27 28 25 27 21

GFSSGP_500_rhum_144.txt.gz
RH
70 64 66 60 51 32 21 32 20 18 22 24 23 24 29 42 46 67 70 50 51 67 78 79 78 95 96 90 84 94 98 94 96 96 95 95 67 59 60 58 64 62 62 74 63 34 24 28 26
62 73 70 67 60 82 25 24 24 15 18 25 26 26 30 50 68 70 66 67 61 72 79 96 91 95 95 92 88 94 99 96 96 95 96 72 62 66 51 57 63 62 79 71 38 28 42 24 11
74 85 86 84 84 78 41 23 31 29 18 25 26 27 31 40 64 74 71 72 75 71 76 93 96 97 95 90 88 94 97 96 97 95 82 67 66 57 60 67 70 64 70 56 46 44 39 18 12
79 81 88 100 100 73 24 16 24 36 24 24 29 31 31 41 63 54 64 69 67 73 95 96 97 96 97 90 84 93 96 97 97 88 80 70 68 64 89 79 65 73 54 44 42 52 35 15 15
55 68 81 91 97 74 35 16 18 27 21 28 35 38 35 44 49 54 60 62 60 70 80 93 93 96 97 98 97 92 100 96 91 93 82 67 78 88 91 75 73 47 48 49 46 24 18 15 13
69 74 93 96 99 84 41 19 18 20 21 33 42 44 42 43 41 50 41 42 56 65 86 96 96 95 92 90 96 98 98 94 93 94 92 82 92 97 77 77 52 35 49 37 20 13 11 12 11
71 73 97 96 96 92 63 54 17 16 23 34 42 49 53 42 36 34 41 50 69 69 82 83 86 87 79 80 81 93 95 89 96 97 89 84 82 69 66 43 34 25 17 13 9 10 11 9 9
72 63 85 93 98 98 90 73 18 17 20 32 40 56 51 55 42 42 40 59 63 70 73 83 83 78 85 87 85 86 90 92 97 96 91 70 62 59 56 45 32 15 10 9 9 10 8 8 8
72 57 57 82 97 74 85 82 17 14 16 29 40 46 61 62 59 50 43 54 74 77 78 83 85 86 93 90 91 93 95 96 96 97 95 76 60 53 53 33 22 14 8 9 9 10 8 8 10
80 54 27 55 82 87 71 26 24 17 13 22 36 41 50 55 63 68 52 39 60 80 85 90 92 92 90 91 90 95 97 97 97 96 83 62 52 56 38 24 16 9 8 9 8 8 8 10 14
70 59 25 27 70 87 76 29 61 51 16 18 32 39 48 61 53 66 72 51 44 54 75 85 88 90 89 96 96 97 96 96 96 88 58 55 61 61 34 21 11 9 8 8 7 6 8 11 12
66 50 32 68 82 79 83 36 49 97 29 14 24 34 39 50 45 48 77 67 60 45 52 66 70 75 85 94 98 96 96 92 73 66 51 57 60 42 29 17 10 8 9 6 8 6 7 8 10
55 40 39 78 84 76 86 66 98 39 50 17 16 29 34 45 45 42 61 78 66 53 56 54 60 60 84 87 93 98 97 78 66 66 62 44 33 28 27 14 9 9 8 6 8 7 8 10 11
26 26 44 44 76 70 67 81 95 82 56 29 14 22 32 34 44 44 43 57 66 63 76 58 60 62 62 81 94 92 84 81 79 60 74 66 24 18 22 12 9 9 7 7 8 9 10 12 15
8 45 57 62 36 56 58 51 81 85 41 20 23 13 24 31 32 34 40 55 56 63 67 56 60 64 62 53 53 64 67 78 75 42 55 42 17 16 17 10 9 9 6 6 8 10 13 15 18
9 27 46 60 61 34 29 88 82 89 58 15 17 18 14 30 31 28 37 54 60 57 61 64 62 62 64 66 58 49 58 76 84 61 42 29 15 16 11 9 9 9 7 8 11 13 16 17 20
9 57 27 46 57 64 35 58 83 54 43 42 27 16 15 29 30 26 24 42 46 49 56 72 77 66 62 61 74 70 55 56 66 76 65 38 16 13 9 10 9 9 11 13 16 19 20 21 28
86 12 23 43 54 70 81 68 45 71 86 96 81 33 19 20 29 28 26 29 36 45 47 64 68 78 78 78 65 78 74 61 51 56 65 46 19 13 10 10 10 10 14 16 18 19 19 25 47
11 11 35 18 32 47 37 82 71 24 65 87 80 47 19 17 18 30 26 24 34 40 46 46 62 59 68 70 75 71 69 60 57 50 48 55 21 12 11 11 12 16 16 17 18 18 21 34 59
13 13 27 17 17 17 15 17 44 40 11 26 50 80 43 20 16 19 27 27 31 41 39 45 37 52 54 56 70 70 74 76 68 60 49 54 26 15 12 13 14 15 17 17 16 21 36 50 56
14 16 81 20 16 18 18 16 25 31 10 14 21 37 80 83 29 16 17 28 30 25 28 41 42 42 54 51 54 72 71 70 70 68 55 50 36 16 14 14 14 15 17 19 22 35 35 48 54
13 20 18 17 19 54 21 99 37 23 11 13 14 12 16 23 69 35 26 16 28 25 25 32 43 39 50 54 52 50 52 55 56 64 65 51 44 19 14 14 15 16 16 19 31 34 48 48 56
16 34 24 24 22 21 34 71 100 46 18 30 42 40 22 22 78 46 40 18 14 24 20 25 35 48 47 54 42 46 55 51 58 57 61 60 42 30 21 14 15 15 16 18 24 40 52 50 57
18 24 20 27 46 48 99 98 100 75 35 39 56 57 42 28 78 72 74 67 33 14 19 17 27 43 50 53 54 38 52 60 57 74 74 72 42 38 24 15 15 16 16 29 45 41 37 53 48
16 21 90 95 100 93 92 66 99 56 23 50 73 70 52 52 86 82 73 95 83 24 16 15 16 29 45 46 44 46 45 56 54 66 66 61 45 37 31 25 21 23 18 24 29 26 45 51 52
18 43 88 93 86 89 81 63 95 46 34 40 66 66 60 49 40 42 61 58 72 48 31 24 15 15 34 45 46 45 48 48 53 54 63 57 45 35 32 32 32 38 41 45 38 41 45 68 56
19 31 91 82 92 88 88 58 44 50 42 46 57 54 69 64 49 40 34 44 61 54 62 36 46 57 14 31 40 51 58 47 47 48 50 52 50 45 41 35 29 27 39 49 44 46 42 44 42
20 50 78 80 77 80 75 66 88 59 55 79 64 72 83 76 64 54 40 41 44 50 52 74 84 59 20 14 20 37 45 48 46 46 43 45 47 47 43 34 34 30 38 54 51 55 46 37 32
22 57 55 76 75 71 70 74 59 37 61 85 80 67 75 79 62 55 54 57 56 46 45 55 46 52 70 33 17 15 29 44 46 53 50 42 43 50 43 34 40 33 38 38 54 51 37 35 31
77 75 79 78 82 50 68 75 75 28 40 73 66 63 57 62 58 58 57 55 56 56 54 53 59 68 55 51 40 49 19 21 51 50 51 56 39 38 40 42 47 42 38 37 33 30 36 41 35